GFSSW_850_thetae_000.txt.gz
Theta_e
311 310 308 310 310 311 311 310 310 311 312 312 309 309 310 308 309 318 327 331 327 325 325 326 326 327 325 323 323 323 322 321 324 325 327 329 329 329 328 326 325 325 326 330 329
309 308 306 309 310 309 309 308 309 310 311 310 308 309 314 313 316 322 325 329 329 324 323 326 325 326 325 324 324 324 324 322 322 324 327 328 329 327 326 327 327 325 325 328 325
309 309 309 307 309 309 309 309 309 310 309 309 308 308 314 316 318 319 325 327 326 325 324 325 326 327 326 326 325 325 325 324 321 326 325 326 326 328 327 327 329 327 326 326 324
306 308 308 308 307 308 308 306 305 307 309 310 307 308 313 317 318 316 322 324 326 326 327 325 326 326 327 327 326 325 324 323 322 324 324 324 326 326 328 327 327 327 327 327 326
308 307 306 308 308 308 309 308 306 308 310 311 308 311 313 318 317 325 315 322 329 331 330 325 325 327 327 326 325 324 323 323 323 323 325 324 324 325 327 328 327 326 325 327 328
307 306 305 304 303 303 306 307 306 308 311 311 311 313 315 318 313 323 326 319 329 331 329 325 326 327 327 326 323 323 324 323 324 324 325 323 324 325 326 327 327 326 325 325 327
305 306 305 305 305 304 304 305 306 309 311 313 313 315 316 317 314 322 328 326 328 330 329 325 326 327 327 323 322 322 322 323 323 324 323 322 323 323 324 326 326 327 326 324 325
307 307 307 306 304 304 305 309 309 310 312 313 315 315 316 317 321 322 328 329 328 329 329 328 327 326 324 321 322 322 322 323 323 324 323 322 323 322 324 325 325 326 326 326 325
306 306 306 307 307 306 307 309 312 313 313 314 313 313 313 318 322 323 328 328 326 325 326 327 325 321 320 320 323 322 320 322 322 324 323 322 323 325 325 325 324 325 325 325 325
309 309 310 311 311 310 309 311 311 310 311 311 310 313 313 316 322 321 327 328 327 326 325 324 322 320 320 319 324 323 320 321 321 324 323 322 321 321 323 323 323 324 323 322 321
310 311 313 312 313 311 312 313 311 309 309 314 314 314 315 322 325 327 327 326 325 326 327 323 321 320 320 320 320 323 322 321 322 322 322 321 320 323 321 320 322 320 320 319 319
310 312 314 314 312 314 313 313 315 315 317 318 318 318 320 322 322 324 325 324 326 331 326 323 321 319 320 322 324 322 322 322 324 323 323 321 323 321 320 319 319 319 320 321 320
311 312 315 313 315 314 315 315 315 317 319 319 319 319 318 322 322 321 323 323 327 331 326 321 319 320 324 324 324 322 322 323 324 323 322 323 323 320 320 321 320 320 321 321 320
314 316 317 316 316 315 315 313 314 317 319 320 319 319 320 321 319 319 320 323 322 328 321 319 320 322 323 323 322 323 322 323 323 323 325 322 324 321 320 321 319 321 322 321 320
315 319 319 318 316 316 316 315 315 317 326 320 319 319 320 320 319 319 318 317 320 320 320 319 320 322 323 323 322 324 322 322 321 320 321 323 322 319 319 321 320 320 322 321 320
316 319 319 317 319 318 318 317 317 328 326 323 319 321 321 322 320 317 322 320 318 318 318 318 319 320 321 320 321 320 320 320 320 319 323 321 322 320 320 320 320 321 322 321 320
317 318 320 320 318 317 319 318 328 328 320 324 322 322 321 322 323 323 319 318 320 319 318 318 317 314 316 318 317 318 320 325 325 325 325 320 321 319 320 320 320 320 321 321 320
317 317 318 317 316 317 318 323 328 325 325 322 323 323 323 323 323 323 319 322 321 322 320 322 322 317 316 319 320 318 322 326 332 329 324 319 323 323 317 320 320 321 321 321 319
316 318 319 316 318 320 323 328 327 325 323 324 324 324 325 325 325 326 323 324 325 324 326 325 323 316 316 316 315 322 324 320 324 324 324 324 325 321 317 316 317 320 321 320 319
316 320 319 317 322 325 328 327 325 323 323 323 328 326 327 326 325 326 328 324 327 324 323 325 323 319 316 315 315 315 315 320 321 325 326 324 324 321 317 316 316 318 321 320 319
318 321 317 323 325 326 328 326 323 321 322 324 326 328 327 327 328 327 326 323 323 324 323 323 326 323 319 319 320 316 318 317 317 319 322 323 322 319 319 317 316 318 321 320 318
320 323 320 324 325 325 324 324 322 322 322 322 324 325 325 326 326 325 326 324 322 324 326 323 326 325 324 318 318 318 319 318 320 322 319 316 317 317 316 317 320 321 321 318 317
319 319 321 323 324 323 321 320 321 322 322 323 324 324 324 325 327 326 324 322 322 322 323 323 326 327 325 322 320 323 322 319 319 320 323 319 318 317 317 318 321 321 320 318 317
317 323 322 319 319 321 322 322 321 319 321 322 322 323 324 325 324 326 323 321 321 320 319 321 323 323 323 321 321 323 322 322 321 320 321 320 319 319 318 318 319 318 319 317 316
315 316 316 322 318 318 319 320 320 322 321 321 322 322 323 324 324 323 321 320 319 318 320 321 322 320 320 319 318 318 319 318 320 320 320 319 319 318 316 317 318 319 317 316 316
316 316 316 316 316 316 317 319 318 317 318 321 322 321 321 321 322 324 322 322 321 318 320 317 319 318 317 315 314 314 314 314 316 317 318 318 318 317 318 318 319 319 318 317 316
313 314 316 314 316 316 317 316 317 316 315 317 319 321 320 315 313 313 316 319 319 319 318 317 316 315 315 315 315 316 316 315 315 315 315 316 316 316 317 318 319 319 318 317 314

GFSSW_850_thetae_003.txt.gz
Theta_e
310 310 309 309 309 310 310 311 311 311 312 312 313 313 309 308 309 309 313 326 330 325 325 325 326 326 327 323 323 323 319 316 318 321 321 326 325 328 326 327 326 325 328 328 328
308 309 309 310 308 309 310 309 309 309 310 311 311 311 309 311 314 313 309 323 330 323 323 325 326 325 324 323 323 321 319 320 317 320 319 324 324 324 327 326 326 326 326 328 328
306 307 309 309 309 307 308 309 310 309 309 309 309 309 309 312 316 314 308 319 329 324 323 325 325 325 325 325 325 323 322 322 323 323 322 323 323 324 325 325 326 326 325 326 327
307 307 307 308 309 308 308 309 310 309 309 308 308 309 308 314 315 312 309 312 328 329 325 324 325 325 325 325 326 324 324 324 324 323 322 323 324 322 324 326 327 326 326 326 325
307 307 307 305 307 308 307 308 309 305 307 307 308 310 310 314 314 319 317 309 325 329 326 324 325 325 325 325 325 323 323 324 325 322 322 324 323 321 323 325 327 325 326 326 326
304 305 305 304 303 303 305 308 310 308 307 309 310 311 312 314 311 317 320 309 324 327 325 325 325 325 326 326 324 323 322 321 323 323 322 323 322 321 323 324 326 326 324 325 325
307 307 306 306 304 303 303 304 307 307 306 310 310 309 313 313 311 313 317 321 322 328 328 327 327 326 326 326 324 324 320 319 321 323 321 322 320 320 322 323 325 326 325 324 325
306 306 306 306 306 304 304 304 305 307 307 311 312 311 312 310 312 316 315 322 323 327 329 331 327 325 327 325 320 321 320 321 320 321 322 321 321 319 323 321 325 325 325 325 324
307 308 309 308 309 306 305 307 309 310 310 312 312 313 314 315 315 313 316 326 324 327 330 330 328 326 325 320 319 319 320 319 319 319 320 320 321 320 323 323 323 324 324 321 319
309 311 312 312 312 310 308 310 311 313 313 311 313 314 313 315 316 319 318 325 327 328 327 328 327 322 319 317 321 321 319 317 317 321 320 320 319 318 322 320 320 319 319 319 319
311 312 313 312 312 311 311 312 310 311 311 311 312 313 315 314 316 322 322 328 327 326 327 326 325 326 321 316 318 318 319 318 319 321 321 320 318 317 319 318 317 318 320 320 320
311 311 313 312 312 312 311 312 311 311 310 310 313 312 314 315 320 322 326 327 325 327 325 325 326 319 317 318 318 317 319 318 320 321 319 319 320 319 317 316 319 321 321 321 320
311 312 313 313 310 314 314 315 313 312 314 315 314 316 317 321 323 322 326 325 326 328 329 327 324 319 320 320 321 320 321 322 322 320 320 321 320 318 316 318 320 321 321 321 320
312 315 315 314 314 314 314 314 314 315 316 317 318 319 319 320 321 322 324 325 325 330 326 323 318 320 320 321 319 320 320 322 322 319 321 319 321 317 317 318 317 320 320 320 320
314 318 316 316 315 313 313 313 313 313 322 316 318 317 320 319 320 321 321 324 328 328 322 320 319 318 321 321 319 323 321 321 320 319 318 320 320 317 317 318 317 318 320 319 319
314 317 317 315 314 314 314 314 315 321 323 318 319 321 320 320 319 318 319 321 323 321 316 316 319 318 319 319 319 319 319 319 318 317 321 318 319 318 319 318 317 317 320 319 319
313 317 317 318 318 318 318 317 323 326 318 320 322 321 320 319 319 320 321 321 320 316 316 315 315 314 317 317 315 317 317 322 323 321 322 318 318 317 317 318 318 317 320 320 319
316 316 317 317 317 316 315 320 327 323 322 321 320 321 321 321 322 320 320 319 316 316 316 318 319 315 315 317 317 315 317 323 330 326 324 318 319 319 316 319 321 321 320 319 318
314 316 318 320 318 317 320 326 326 323 321 322 321 323 325 324 322 321 320 323 324 320 323 320 320 315 315 314 316 319 321 318 321 321 321 321 321 318 314 315 318 319 320 319 319
314 318 320 320 321 320 323 326 324 322 322 323 324 324 325 324 325 325 326 323 326 323 322 321 320 317 315 315 314 315 315 320 318 323 324 321 322 319 315 314 314 317 318 319 318
319 320 319 322 323 324 323 323 322 321 322 324 326 326 325 326 325 325 324 323 323 324 322 323 322 321 318 318 318 317 316 315 315 316 320 320 319 315 316 313 314 316 319 319 318
320 315 321 324 319 318 321 323 322 322 322 323 324 325 324 325 324 324 325 324 322 324 325 323 320 322 323 317 317 317 318 316 317 321 316 314 317 315 316 313 317 319 320 318 318
319 320 319 323 319 318 319 320 320 322 322 323 324 324 323 324 326 324 322 321 322 321 323 322 322 324 322 320 318 321 321 318 317 316 320 318 317 315 315 317 319 319 319 318 317
318 316 318 320 320 317 319 321 321 321 320 321 322 322 323 323 323 323 321 321 320 319 319 319 320 320 321 319 318 322 321 321 318 318 317 318 319 316 317 318 319 319 319 317 317
315 313 316 315 314 314 316 318 320 322 321 321 321 322 323 324 322 321 320 320 318 318 318 318 318 317 317 317 316 317 317 317 319 318 319 317 317 316 314 313 315 319 317 316 315
316 313 315 314 315 313 314 316 317 316 318 322 321 319 317 318 320 322 320 320 320 318 318 314 317 315 314 314 313 313 312 312 314 315 316 316 317 315 317 316 318 317 317 315 312
314 314 314 313 312 313 314 315 316 314 315 315 317 317 316 312 311 312 316 316 317 317 316 315 312 312 313 313 314 317 315 313 313 313 313 314 314 313 316 317 318 318 316 314 310

GFSSW_850_thetae_006.txt.gz
Theta_e
306 307 310 311 310 310 310 310 311 313 313 313 313 314 314 311 309 314 313 319 329 329 329 329 327 326 326 325 323 322 318 317 316 318 319 320 320 324 326 325 324 325 327 328 327
304 306 308 309 310 310 309 310 310 310 311 311 313 313 313 311 310 314 311 316 327 324 327 326 326 325 326 323 322 320 319 320 317 318 320 321 321 323 324 324 325 325 325 327 327
304 305 306 308 309 309 309 309 309 309 309 310 310 310 310 311 313 313 310 311 323 326 324 325 325 325 325 324 323 321 321 320 322 323 323 321 321 323 322 323 325 325 326 327 328
304 306 307 306 308 308 309 308 308 309 309 310 308 308 310 311 312 313 311 310 322 328 323 324 324 324 323 324 325 324 322 322 323 324 323 320 322 322 323 323 324 324 325 326 327
305 306 307 306 305 306 308 308 308 309 309 309 309 308 311 312 312 314 317 310 318 329 327 326 324 324 323 323 324 323 323 325 325 324 322 321 320 321 322 324 324 325 325 326 326
307 306 305 305 305 304 303 307 307 309 308 306 308 309 312 312 311 318 319 313 311 327 328 326 324 325 325 325 324 324 322 321 321 321 321 320 321 321 323 324 323 323 325 325 325
308 307 306 306 306 304 303 303 307 309 310 306 308 310 312 311 309 312 316 317 310 327 328 325 325 325 326 325 325 321 321 319 319 321 320 321 319 319 323 322 322 321 324 324 325
309 307 308 308 306 306 305 306 303 308 308 306 309 311 311 310 310 312 313 318 317 327 328 325 325 325 325 325 320 319 319 320 318 319 320 320 320 319 322 321 321 322 322 322 323
311 310 311 310 309 308 305 304 304 305 306 307 311 311 309 310 310 311 314 316 319 326 328 327 326 325 325 322 319 318 320 318 318 318 319 318 320 318 321 321 321 321 319 319 319
311 312 312 312 310 310 307 306 308 309 309 311 312 311 312 314 311 311 313 316 319 324 328 329 328 324 320 319 325 320 319 317 317 318 317 317 318 317 320 319 318 317 318 319 319
311 311 312 312 312 312 310 309 310 310 312 311 311 312 314 312 314 314 312 317 322 326 328 328 329 329 326 320 318 318 318 317 315 316 318 318 318 318 317 315 314 317 319 319 319
309 311 312 313 312 312 310 312 311 310 311 311 312 313 314 314 316 321 318 323 324 326 326 328 331 326 323 319 317 317 317 316 316 319 320 319 318 317 314 314 317 318 319 320 319
309 312 313 313 310 312 311 311 313 310 310 311 310 312 315 315 318 320 322 324 323 325 327 329 328 325 322 318 320 318 316 317 320 319 318 320 319 317 316 317 318 319 320 320 320
310 313 315 313 312 312 313 314 312 311 316 313 314 314 315 316 321 321 324 325 325 325 327 326 321 323 323 319 316 318 316 319 321 319 320 318 321 316 315 317 316 317 319 319 319
310 316 315 314 314 313 314 312 311 313 321 313 315 316 316 320 321 322 324 324 326 324 322 326 321 322 321 319 316 319 319 320 319 317 317 318 319 316 315 317 316 315 318 318 319
309 317 315 314 313 313 313 313 313 318 320 318 318 320 316 319 320 320 321 324 325 322 319 319 319 317 317 318 317 318 318 315 314 315 319 317 319 318 316 317 316 315 318 318 318
308 312 316 314 314 313 313 313 318 325 317 320 321 319 319 321 321 322 323 324 325 323 322 319 315 313 316 316 315 315 316 320 321 320 321 316 317 318 315 315 317 315 317 318 317
309 310 316 316 317 316 313 318 326 321 321 319 320 319 322 320 321 321 322 321 319 316 317 320 319 313 313 316 316 315 316 320 326 323 323 317 318 317 313 316 318 319 318 318 318
311 312 313 314 314 316 316 324 324 322 320 321 320 320 324 322 321 321 320 320 318 317 319 317 318 314 315 314 315 316 319 317 320 318 320 320 318 316 314 315 316 317 318 318 318
312 315 318 320 317 316 321 325 324 321 318 320 322 321 324 320 320 320 320 322 324 319 320 318 318 316 314 314 313 316 314 319 317 324 323 319 319 319 317 316 315 315 316 318 318
318 319 320 320 317 318 325 324 323 318 321 325 324 323 320 321 319 323 324 322 323 322 321 317 317 319 316 316 317 315 315 314 315 316 320 320 318 313 313 314 316 315 318 319 318
319 316 319 320 317 316 322 323 322 322 322 323 320 320 323 325 324 324 325 323 321 322 324 322 317 319 320 316 315 315 316 314 316 318 314 313 317 312 313 311 314 317 319 318 318
317 318 319 321 322 318 319 320 320 322 322 324 325 324 323 324 326 323 322 320 321 321 322 321 321 321 323 319 318 319 317 315 314 314 318 318 318 312 314 311 315 316 318 318 317
317 317 317 319 317 317 319 320 321 320 321 320 322 322 322 322 321 322 322 320 319 319 319 318 317 320 324 321 318 321 321 317 316 316 316 316 318 316 316 316 317 318 319 318 316
314 312 315 316 314 315 316 319 320 321 320 320 321 321 322 322 321 321 320 319 318 317 316 316 318 317 317 316 316 318 318 318 318 316 317 316 316 316 313 312 314 315 315 315 316
314 313 314 312 313 313 312 316 317 317 318 321 319 316 316 318 318 321 320 319 320 317 317 314 316 314 313 312 313 313 313 312 314 316 316 316 316 313 314 314 315 317 315 315 315
314 314 312 311 310 312 313 314 315 315 314 313 316 314 312 311 311 314 316 315 316 317 315 314 312 312 313 312 314 316 314 312 310 310 311 312 311 312 313 314 315 316 315 315 312

GFSSW_850_thetae_009.txt.gz
Theta_e
304 305 305 306 309 312 313 313 311 311 313 314 314 314 316 314 313 311 312 312 323 330 330 329 328 326 325 326 323 321 318 318 317 315 316 319 319 322 323 323 324 324 325 327 328
303 303 304 306 307 309 309 309 309 311 311 312 313 313 314 314 313 312 310 310 317 327 326 328 329 327 324 326 322 319 318 321 317 316 319 321 321 321 322 322 324 325 325 326 327
305 304 305 305 307 310 309 309 309 310 310 311 311 312 314 313 312 312 311 310 312 326 326 325 327 325 325 323 321 319 320 319 321 321 322 322 321 322 321 320 323 324 324 324 327
306 305 306 307 306 307 309 309 309 310 310 309 309 310 311 311 311 315 312 310 310 326 327 324 324 324 322 322 324 322 321 321 322 323 323 320 323 320 321 321 323 323 323 324 325
303 304 305 306 307 306 307 308 309 307 308 310 310 309 310 312 311 314 318 311 310 323 328 324 324 323 322 322 323 322 323 324 325 324 322 321 318 318 320 322 322 323 323 324 325
306 307 307 306 304 305 304 305 308 308 308 310 310 310 310 311 310 311 316 316 312 314 327 325 324 324 324 323 323 324 323 323 323 323 319 319 319 319 321 323 323 322 322 323 325
309 309 308 307 306 306 305 304 303 307 307 309 305 309 310 310 309 310 313 316 317 313 328 325 324 324 324 324 325 323 320 318 319 321 318 320 319 317 323 321 321 321 321 321 324
311 311 310 309 308 307 307 306 305 305 307 309 307 310 310 309 310 312 311 316 315 317 327 325 325 324 325 324 319 318 318 320 318 318 319 320 320 318 321 320 320 320 320 321 322
309 311 312 311 311 309 307 307 306 306 306 309 308 310 310 309 309 309 313 316 315 318 327 326 326 325 325 323 322 318 320 318 317 316 318 318 318 317 319 319 320 318 319 319 319
308 310 312 312 311 310 309 305 305 305 307 308 308 309 310 310 310 309 311 315 318 319 327 328 326 323 321 324 332 322 320 317 317 316 317 317 317 317 318 318 316 316 318 318 318
308 310 312 311 312 312 309 307 308 307 308 309 311 311 312 309 311 310 310 313 318 321 327 328 328 329 324 322 322 319 317 317 315 314 315 315 316 316 316 317 313 316 318 319 317
309 310 312 312 312 313 312 308 309 309 310 309 311 310 312 312 316 314 311 315 319 321 326 329 329 327 324 320 318 318 318 318 316 316 316 317 316 315 314 313 313 316 318 319 317
309 312 313 313 313 313 310 309 309 310 311 310 310 311 312 314 315 318 314 319 319 320 326 328 328 326 326 326 322 319 318 317 317 317 316 317 318 317 315 316 316 317 318 319 318
309 312 314 313 313 312 311 310 309 310 311 311 312 311 311 313 316 317 316 320 320 319 324 327 325 327 325 322 325 328 316 317 317 318 320 316 320 316 314 316 315 316 318 319 318
308 314 315 314 314 313 313 311 311 312 312 312 313 314 313 314 318 318 317 321 321 320 324 325 326 328 329 324 317 320 316 316 317 317 316 317 318 317 314 316 315 313 316 318 318
308 310 316 314 312 312 312 312 310 313 320 315 314 314 316 316 318 320 322 323 321 322 321 321 322 325 326 320 315 317 316 314 313 314 318 316 317 318 315 316 315 314 315 318 318
307 307 313 314 313 312 311 312 317 317 313 317 315 316 316 317 320 321 323 325 323 325 325 318 319 316 316 316 315 315 316 320 321 320 320 314 316 319 315 313 315 314 315 318 318
307 308 309 314 315 312 311 313 319 319 318 318 318 317 316 319 321 322 323 327 322 320 324 322 324 314 312 315 315 314 317 319 323 321 319 313 316 317 313 312 317 318 317 317 317
308 310 311 310 315 314 313 316 322 322 321 320 317 317 321 321 322 322 322 323 321 320 322 320 320 313 313 313 315 315 317 315 320 317 319 318 316 315 314 313 314 315 316 317 317
310 313 315 317 311 315 316 320 323 319 319 318 321 320 322 321 322 320 321 320 319 316 315 316 316 315 313 313 312 315 313 318 315 324 323 318 317 319 318 316 314 313 315 317 317
316 317 318 318 313 316 323 323 320 319 320 323 321 322 321 321 321 322 322 321 322 320 318 314 315 317 314 315 314 313 313 312 314 315 319 319 318 313 315 314 315 314 317 318 316
316 314 316 314 319 319 321 324 319 319 321 323 320 319 319 319 322 324 323 322 321 320 322 319 314 317 317 315 313 314 314 312 315 317 312 312 316 311 312 311 315 316 317 317 317
314 317 316 316 321 321 320 322 322 323 323 323 320 321 323 322 325 321 322 320 321 320 321 319 318 321 322 318 317 318 315 313 312 313 315 316 316 311 309 310 314 316 317 318 317
315 313 315 315 317 319 319 321 323 321 321 321 323 322 322 321 320 321 322 319 319 319 319 318 317 318 320 320 317 319 318 314 315 316 315 315 317 316 314 315 316 316 318 318 316
314 311 313 313 313 316 317 320 322 323 321 320 323 323 322 322 320 321 320 318 318 317 315 314 318 316 315 315 317 318 319 315 315 314 316 316 315 315 314 313 314 315 314 315 315
314 311 313 310 312 313 313 316 318 316 321 322 322 318 320 321 319 321 319 319 320 316 316 312 315 314 312 312 312 313 314 316 317 317 315 316 315 312 313 314 315 316 315 314 315
313 313 312 309 309 312 313 315 316 314 313 316 316 314 315 311 310 313 314 313 314 315 314 312 311 311 313 313 314 314 312 310 310 310 312 312 311 311 313 313 315 316 316 315 315

GFSSW_850_thetae_012.txt.gz
Theta_e
303 304 304 305 305 308 311 313 315 316 316 315 315 315 315 315 316 315 314 309 310 328 328 328 328 326 325 325 324 320 317 319 319 315 315 318 319 322 323 321 322 324 324 325 325
303 303 303 303 304 305 308 310 311 312 311 311 312 313 315 315 315 314 315 312 309 324 328 328 329 328 325 325 322 319 318 320 317 314 316 319 320 322 321 320 321 323 324 324 324
308 306 305 305 305 305 308 308 308 308 309 311 312 312 313 314 314 313 314 314 310 318 327 325 327 328 324 323 321 318 320 318 320 321 320 321 322 323 320 318 321 321 322 323 323
308 307 306 306 307 306 306 309 308 308 309 310 310 311 312 314 314 316 315 313 312 313 327 326 324 324 322 321 322 321 320 320 321 323 322 321 322 320 320 321 322 322 322 322 322
303 304 307 305 305 306 306 306 307 309 308 309 310 310 311 312 312 314 317 316 313 312 324 327 324 323 322 321 322 321 322 323 324 324 323 322 319 318 319 322 321 322 322 322 322
306 307 307 307 306 305 304 305 305 308 308 308 308 310 310 311 310 311 312 315 317 315 320 326 324 324 323 322 322 323 323 324 324 324 322 319 319 319 321 321 321 322 321 321 321
309 310 311 310 308 306 306 305 304 304 307 308 309 310 310 310 309 309 310 311 315 316 319 325 324 324 324 323 323 324 322 319 318 320 319 320 318 317 322 321 320 321 320 320 320
308 310 311 312 311 309 307 307 306 303 304 307 309 308 308 309 308 309 313 311 314 317 317 324 324 323 324 323 318 319 317 320 319 318 318 318 319 316 319 319 320 320 318 318 320
306 307 309 311 312 311 309 307 308 305 303 307 309 308 309 309 308 308 312 314 317 316 316 325 325 324 324 323 320 317 321 318 318 316 316 317 317 315 318 318 318 317 317 318 319
307 306 308 311 312 313 310 308 307 306 306 308 309 308 307 310 309 308 309 315 317 315 321 325 325 323 322 322 330 321 320 319 318 317 315 315 315 316 317 317 317 316 317 317 317
307 309 309 311 312 312 309 308 305 306 307 308 308 308 310 310 312 310 308 313 317 316 324 325 328 328 325 325 322 319 318 320 316 314 315 314 313 314 315 316 315 314 316 317 317
307 310 311 311 312 312 311 306 306 308 308 307 310 310 309 311 313 311 310 313 317 314 322 329 328 325 322 321 322 319 319 318 317 315 314 315 315 314 313 314 315 314 316 317 316
307 308 312 313 313 312 312 308 307 308 310 309 308 311 311 310 313 314 311 314 316 313 320 328 327 324 324 321 323 320 320 321 321 315 315 314 316 315 314 314 314 315 317 317 316
307 308 312 313 313 313 312 311 310 308 311 310 310 310 311 312 313 314 310 315 317 314 319 326 325 326 326 326 324 326 318 318 318 317 319 315 319 315 313 314 313 315 317 317 317
307 308 311 310 311 310 312 310 309 310 312 309 311 311 310 312 315 316 309 314 318 316 322 326 327 328 328 327 324 327 318 318 318 316 315 316 317 315 313 315 314 312 316 318 317
306 307 310 313 310 312 312 311 308 312 313 312 312 313 313 312 315 317 316 317 319 317 322 322 323 325 327 323 320 318 316 315 312 313 318 316 317 316 314 313 314 313 315 317 317
307 307 307 310 311 313 311 311 313 316 310 315 313 313 313 314 315 317 317 318 321 321 323 320 323 320 319 321 315 317 318 321 321 320 320 314 315 316 314 312 313 313 315 317 317
308 308 308 308 313 310 310 311 318 316 312 315 313 313 314 315 316 318 319 320 322 317 320 323 325 318 314 322 320 318 315 318 323 320 318 312 316 315 314 312 313 316 317 317 317
308 308 310 310 313 310 309 314 318 320 316 317 315 314 316 315 319 317 319 320 323 317 319 322 323 313 315 314 320 314 318 315 317 315 318 318 314 314 314 312 312 313 315 316 316
309 310 314 314 313 311 311 315 317 319 317 316 317 317 316 316 321 319 320 321 322 318 314 316 316 314 312 312 311 313 313 318 315 324 323 318 315 318 315 316 313 311 313 316 316
313 314 316 315 313 313 315 314 320 318 317 320 319 318 318 317 320 320 319 320 319 317 314 312 313 316 313 313 313 313 314 312 314 315 319 319 317 311 312 312 313 311 314 315 316
314 312 314 312 316 316 315 320 319 320 321 322 320 319 318 320 321 321 321 321 319 318 317 315 312 314 315 314 311 311 312 312 317 316 311 312 315 311 309 309 312 313 314 315 316
314 314 313 314 321 321 320 321 321 321 321 322 319 319 319 321 323 323 322 319 320 319 318 316 316 319 321 318 316 316 313 311 311 311 312 315 316 311 308 311 314 314 315 316 316
313 313 314 314 315 317 321 322 323 321 321 321 321 320 320 321 321 321 321 319 319 319 319 318 316 316 321 319 316 318 315 312 314 314 314 313 316 315 313 314 314 316 317 317 316
313 310 314 316 315 315 318 321 323 324 321 321 322 321 321 321 320 321 318 317 316 318 315 314 318 316 313 316 316 317 317 313 314 314 317 317 314 314 314 314 314 313 314 315 315
313 310 311 310 311 315 314 319 321 317 321 323 322 319 318 322 320 320 318 319 318 315 314 312 315 313 312 312 313 316 317 313 313 313 314 314 314 311 312 313 315 315 316 314 314
312 313 311 309 309 313 315 317 317 316 316 313 318 317 314 313 311 314 313 312 314 314 313 311 311 312 315 313 313 313 311 314 314 313 314 316 313 311 314 313 314 315 315 316 316

GFSSW_850_thetae_015.txt.gz
Theta_e
303 303 303 303 304 305 307 310 313 316 318 318 318 317 316 316 316 316 315 314 312 322 327 328 328 327 325 325 324 319 321 322 321 317 320 316 321 322 323 321 321 322 323 325 323
303 303 304 304 303 303 304 305 308 311 314 315 315 315 314 315 315 315 316 315 314 310 324 328 328 328 325 324 323 319 322 322 319 316 317 318 320 322 322 320 321 321 322 321 322
303 306 306 305 305 305 305 309 307 308 310 311 311 311 311 314 315 314 314 314 315 312 314 328 327 328 325 324 321 318 322 319 320 320 319 319 321 322 320 322 321 321 321 322 322
305 303 303 305 305 306 306 305 310 310 309 308 310 311 311 313 313 316 315 314 314 314 312 325 326 324 324 322 321 321 319 320 321 322 322 321 322 321 321 322 322 322 321 321 322
306 305 303 307 306 304 306 306 306 307 309 308 310 310 311 312 312 314 315 316 315 319 314 324 326 324 325 322 321 320 321 321 322 323 322 322 321 321 321 325 324 321 321 321 321
307 308 309 309 309 307 306 304 305 306 308 308 308 310 310 312 310 311 314 312 314 317 316 322 325 324 324 322 324 322 323 323 323 324 322 320 321 320 324 323 323 322 321 321 321
309 311 311 311 311 309 308 306 305 304 305 308 308 309 310 310 309 309 310 310 312 314 317 320 324 322 324 322 323 323 323 320 320 321 320 319 320 318 322 319 319 320 320 319 318
308 310 310 310 311 312 310 308 306 305 304 306 308 310 310 309 309 309 309 310 310 311 314 317 325 323 322 323 320 322 319 326 321 317 318 318 325 319 318 316 318 318 318 317 318
305 307 306 306 309 312 312 309 307 307 307 305 308 309 309 308 307 308 308 311 314 312 314 316 323 324 324 321 321 318 326 320 322 318 319 318 320 317 317 318 317 317 317 318 318
306 307 307 310 309 311 312 311 307 308 307 307 308 309 309 309 309 309 308 309 315 315 318 318 323 325 324 325 329 323 322 318 321 318 315 316 317 316 315 316 317 317 316 317 317
306 306 309 311 310 311 312 310 307 307 306 307 308 308 309 310 308 310 308 309 312 317 317 318 327 328 325 324 323 317 320 324 320 315 315 316 315 317 316 315 314 313 315 316 317
305 307 309 311 311 311 312 309 307 306 307 306 308 308 310 310 312 311 309 310 312 316 316 322 327 325 322 322 321 319 321 319 318 315 315 317 318 317 315 315 315 314 315 316 316
305 308 308 312 311 312 312 310 306 308 308 308 307 309 310 309 311 311 311 312 315 314 317 323 324 324 324 324 325 320 320 319 323 317 315 315 318 316 314 313 312 313 316 316 316
305 307 308 312 311 313 312 312 307 306 310 310 308 308 310 310 310 310 311 313 316 313 315 321 325 325 325 324 324 326 319 320 320 323 325 315 323 317 316 314 313 313 315 316 316
305 306 309 311 312 310 311 312 308 308 314 310 309 309 310 310 311 312 311 312 316 313 316 323 327 326 326 325 322 325 321 322 321 320 315 316 319 319 312 315 315 313 315 316 316
305 305 307 310 312 311 311 311 307 312 313 312 311 312 312 311 312 313 312 313 317 314 315 322 324 325 326 323 323 314 316 316 314 316 320 317 319 320 317 315 313 312 315 316 316
307 307 307 308 312 312 311 308 312 314 311 313 312 312 311 312 312 314 314 313 317 316 317 320 326 323 324 321 317 318 324 326 323 322 323 313 316 319 314 313 314 314 314 316 316
309 308 309 309 308 311 310 311 316 313 311 312 312 312 312 313 314 315 313 314 315 318 315 322 325 321 319 324 323 323 323 323 325 323 320 312 319 318 312 313 313 314 316 316 316
313 310 310 309 309 310 310 312 314 314 310 314 312 312 313 313 314 316 315 315 316 316 316 320 322 316 315 316 322 319 323 316 317 314 319 319 317 316 314 313 311 312 314 316 316
311 311 310 313 310 309 307 314 314 314 313 313 311 311 312 314 316 317 314 318 317 318 313 317 317 314 312 313 312 318 316 323 316 324 324 320 316 321 316 313 313 311 312 315 316
308 312 314 312 312 308 312 312 313 314 313 314 316 315 311 312 316 317 316 319 319 319 313 311 314 314 312 315 314 315 317 314 316 316 322 320 319 312 313 311 312 312 313 316 315
311 313 314 311 313 312 314 314 314 319 316 317 317 316 314 313 315 318 319 319 319 318 314 312 312 318 314 313 312 313 315 314 319 317 311 314 319 310 309 308 309 312 314 315 315
312 314 312 312 317 314 314 315 314 320 318 321 320 318 314 314 320 320 320 317 319 319 316 314 315 319 320 318 315 314 310 311 311 311 313 318 318 311 310 312 313 312 314 315 315
312 317 313 312 313 316 320 320 321 320 321 321 318 317 318 320 320 320 322 320 319 318 318 316 314 317 322 319 315 317 313 310 315 315 314 313 315 315 314 314 313 313 314 315 315
311 310 315 315 315 315 319 320 320 323 320 321 320 319 319 321 321 321 320 317 317 319 316 316 319 315 313 316 316 315 315 311 314 316 319 317 314 314 313 313 313 314 315 315 315
311 308 310 310 311 316 317 321 321 320 320 322 321 318 320 319 319 320 318 318 319 315 315 312 317 312 313 313 315 317 315 314 313 312 313 313 314 310 311 312 313 314 314 313 313
311 311 310 310 310 315 315 318 319 317 318 313 317 317 321 314 312 318 318 316 316 314 313 314 311 314 316 312 312 316 312 314 314 311 314 316 316 310 312 312 313 313 313 314 314

GFSSW_850_thetae_018.txt.gz
Theta_e
303 303 303 303 303 304 306 314 315 316 319 320 320 319 318 317 317 317 317 316 315 317 321 319 328 328 329 326 324 321 326 326 326 325 326 320 325 325 324 323 323 323 324 325 322
304 304 304 304 304 304 303 304 305 307 312 315 317 318 317 316 316 316 316 315 315 314 319 324 327 329 329 326 325 325 327 326 325 325 325 324 324 325 325 325 324 323 323 322 322
305 305 305 306 305 305 305 305 305 305 307 310 312 314 313 313 315 315 314 313 314 315 318 320 326 328 328 326 326 325 327 326 324 323 322 324 325 325 326 327 325 323 323 323 322
307 307 304 303 305 305 306 306 305 311 309 307 309 310 311 313 314 316 314 314 314 317 319 317 322 326 328 328 326 326 325 325 325 323 324 325 325 326 326 326 326 325 325 322 321
308 308 304 304 307 307 305 306 306 307 308 309 308 309 311 313 312 315 316 316 314 316 320 317 322 326 329 328 326 326 325 324 324 323 324 324 325 327 326 326 326 325 323 321 321
308 309 309 310 311 310 310 307 305 306 308 309 309 310 311 312 311 311 314 313 312 316 319 317 322 323 326 327 327 325 325 325 325 325 325 325 326 324 325 325 325 323 322 321 320
307 309 311 311 311 311 310 309 307 304 305 308 309 309 311 311 310 309 310 310 311 312 316 317 320 324 324 327 326 326 327 326 326 325 326 324 326 326 324 321 319 320 320 318 319
305 309 309 309 308 310 312 312 309 307 304 305 309 309 310 310 309 309 309 310 310 310 314 316 319 322 324 325 324 327 327 330 326 326 325 323 328 326 322 320 321 319 318 319 318
304 309 308 307 306 308 311 313 310 308 308 305 307 309 309 309 309 309 310 310 313 311 313 315 317 321 324 324 326 327 330 329 327 325 326 324 326 324 319 320 320 321 319 319 319
304 308 309 307 309 310 310 311 310 307 308 307 307 309 308 309 309 309 309 309 310 315 315 317 316 323 325 326 330 328 328 326 327 326 322 325 325 323 322 320 321 321 319 320 319
304 306 308 309 310 311 311 311 308 307 308 308 308 308 310 310 309 310 310 309 310 314 315 316 318 323 326 326 325 325 325 326 326 325 322 325 326 324 323 323 321 320 319 319 319
303 305 308 309 308 311 311 311 309 308 308 308 308 308 310 310 311 310 310 309 311 314 315 317 320 322 324 325 324 325 325 326 325 321 321 325 326 326 325 323 321 321 319 319 318
304 304 307 308 310 312 312 311 310 307 307 308 307 308 309 309 310 311 311 309 312 313 314 317 318 320 325 324 325 326 325 325 326 322 324 323 327 326 321 318 316 316 319 319 318
304 304 306 308 311 311 312 313 311 307 308 310 308 307 309 309 310 309 311 310 313 314 314 316 318 322 326 325 324 328 324 325 326 329 331 323 330 327 324 322 318 317 318 318 318
306 304 306 308 312 312 312 310 310 306 314 311 309 308 309 309 311 310 311 310 314 315 313 316 321 324 326 326 325 324 325 325 327 328 325 328 327 327 320 322 320 319 319 318 317
310 305 305 307 310 312 312 310 308 310 314 312 310 310 310 310 309 312 312 311 312 315 313 316 319 323 325 324 324 323 324 322 320 321 330 327 325 327 323 321 319 318 319 318 317
314 309 306 306 310 312 311 308 311 315 311 313 312 311 311 311 311 312 313 313 311 318 317 314 315 325 324 325 321 324 326 331 331 330 329 319 322 326 321 319 319 319 319 317 317
314 313 309 308 307 311 309 309 316 313 313 311 312 311 312 312 312 313 313 313 314 315 315 319 326 326 325 325 323 324 327 329 330 330 328 317 325 323 318 317 316 318 319 318 317
314 313 311 309 309 308 308 311 315 314 312 313 312 312 312 313 313 313 313 313 313 315 317 318 321 320 322 321 323 324 327 321 322 320 324 324 323 321 318 318 316 316 318 318 317
315 312 309 309 309 310 308 313 313 313 311 312 313 311 313 313 314 315 313 313 314 316 316 317 322 319 316 321 317 324 323 326 323 327 327 325 324 325 321 319 317 317 318 318 317
313 310 313 311 310 308 310 312 312 312 311 313 312 312 312 314 314 315 314 316 314 316 318 318 321 317 314 323 325 322 323 322 321 323 327 326 325 320 319 318 317 318 318 318 317
309 314 314 311 310 309 311 312 312 313 312 312 313 311 312 313 314 317 316 318 315 316 319 319 319 322 323 315 319 323 324 326 327 324 321 322 324 316 317 315 315 317 317 317 317
311 314 313 311 314 313 311 313 312 313 314 313 317 313 312 312 313 317 317 315 318 319 319 318 320 323 322 320 316 321 324 325 324 319 323 326 324 316 318 319 316 317 316 317 316
312 316 312 312 313 315 314 314 315 314 317 317 318 317 312 312 315 315 320 318 319 319 318 317 320 321 324 322 321 322 323 321 324 325 324 322 323 319 320 320 318 317 316 316 315
309 315 314 314 313 314 315 317 318 321 319 320 320 318 315 313 318 320 322 321 320 319 319 319 322 320 320 319 320 320 321 320 322 324 324 324 322 321 320 320 319 317 316 315 315
310 312 311 315 314 316 314 317 319 318 319 319 321 319 318 317 320 321 322 321 322 321 321 319 322 318 318 317 319 320 320 321 322 324 323 322 322 319 317 316 316 317 316 316 315
312 309 310 313 313 317 318 318 321 318 318 315 320 320 320 319 319 320 320 320 320 321 322 321 321 320 323 316 318 321 321 319 319 319 320 321 322 317 316 316 316 316 315 315 314

GFSSW_850_thetae_021.txt.gz
Theta_e
304 304 304 303 303 303 304 309 316 319 321 322 322 321 320 319 319 319 319 320 318 315 314 321 321 329 330 329 327 325 327 328 327 327 326 325 325 325 326 325 325 325 326 326 324
304 304 305 304 305 305 304 303 304 308 313 316 317 319 319 319 318 320 319 318 316 316 317 320 321 324 330 329 327 327 327 327 326 326 326 326 326 327 327 327 327 327 325 325 325
306 306 306 305 306 305 305 305 304 304 305 307 311 315 317 317 317 317 317 316 316 315 317 318 321 327 328 329 327 328 328 327 326 326 325 325 326 326 327 328 327 327 326 326 326
308 307 307 304 304 306 305 306 305 305 309 307 308 310 312 314 315 316 313 314 316 318 320 320 318 323 327 330 328 328 326 326 326 326 325 326 325 326 327 327 327 327 327 327 326
308 309 308 303 305 308 307 306 306 306 309 310 308 309 311 313 313 315 316 315 315 316 320 320 318 320 324 326 328 328 327 326 325 325 325 325 325 326 326 327 327 327 327 327 326
305 309 309 308 309 311 310 309 308 305 306 307 310 308 312 312 311 312 315 315 315 317 318 320 318 319 321 323 326 327 326 326 326 326 325 326 326 326 326 326 326 326 326 324 325
304 306 309 311 312 311 311 310 309 309 305 306 309 310 312 311 311 312 312 312 313 314 317 318 319 319 321 323 323 327 328 326 326 326 326 326 327 327 325 326 324 321 321 322 322
304 304 310 310 310 308 308 312 311 309 307 305 306 311 312 311 311 312 311 312 312 312 313 316 319 318 321 323 325 326 329 330 326 326 326 326 329 326 326 325 323 322 321 322 322
312 304 306 309 307 306 309 309 312 310 309 306 306 311 311 310 310 310 311 312 312 313 312 313 317 318 320 325 327 328 331 330 328 326 326 327 328 326 325 324 323 323 322 322 322
313 308 304 309 309 308 310 310 312 311 309 309 309 310 309 310 310 310 311 311 311 312 313 313 316 319 320 324 329 328 330 329 330 326 327 327 327 326 325 324 324 323 322 322 322
312 311 304 308 309 309 310 310 311 308 309 310 310 310 310 310 310 311 310 311 311 311 315 314 318 319 319 323 324 326 327 327 328 326 327 327 326 325 324 324 325 324 323 322 322
309 310 304 307 310 310 310 310 310 310 310 310 310 309 309 311 311 311 311 311 311 312 313 316 317 317 316 319 325 325 327 328 326 326 326 326 325 326 326 325 326 325 323 322 321
309 305 304 307 308 310 311 311 311 309 308 307 310 310 309 309 309 310 311 311 311 312 313 315 315 316 316 321 325 326 328 326 326 326 324 325 327 327 326 326 326 323 323 322 321
314 305 304 306 308 309 312 312 312 311 309 310 309 309 309 309 310 309 311 311 311 312 312 314 314 312 318 320 325 329 325 325 325 328 329 327 329 328 327 325 322 321 322 322 321
314 308 304 305 311 312 312 312 311 310 316 311 309 308 309 309 310 311 309 311 312 312 311 312 315 314 319 319 324 326 325 324 326 327 329 329 330 328 327 325 324 322 321 321 320
315 311 305 306 307 310 311 310 309 310 315 313 309 310 310 310 310 311 310 311 311 311 312 312 314 318 319 319 323 324 324 325 325 327 330 328 329 328 327 325 324 322 321 321 319
314 314 308 309 310 311 311 308 311 315 312 314 312 311 311 311 311 311 312 312 314 313 315 314 312 316 318 323 324 325 327 331 330 330 329 326 329 328 322 321 322 321 321 320 319
315 315 313 308 310 311 309 307 315 314 313 311 312 312 312 310 311 311 311 315 312 312 315 319 319 316 316 326 327 327 326 326 330 328 327 322 325 326 321 320 320 321 321 320 319
315 314 312 310 310 310 309 311 315 315 313 312 312 314 313 311 312 312 313 314 313 311 316 320 319 313 321 324 324 326 327 324 326 325 329 326 325 321 321 320 319 320 321 320 319
314 314 312 312 310 310 310 313 313 313 312 312 316 313 313 312 312 313 314 314 313 312 311 317 320 312 321 321 321 325 324 328 325 328 328 327 326 326 322 322 320 319 321 320 319
314 311 312 312 311 310 310 311 312 311 311 312 314 314 312 312 313 315 314 314 312 313 314 318 315 316 321 325 325 325 327 327 326 326 329 328 326 324 322 321 321 320 321 320 319
312 311 313 311 311 310 310 309 311 312 312 312 314 314 313 313 313 315 314 314 313 315 318 319 321 320 322 317 323 325 326 326 328 327 325 325 325 320 320 320 319 320 319 320 319
310 312 313 311 313 311 310 310 310 313 314 313 315 315 313 313 314 316 316 314 316 317 318 320 321 325 321 319 320 325 325 327 326 324 327 326 326 320 322 321 318 319 320 320 319
311 315 312 310 311 314 312 313 313 312 313 314 315 315 313 313 314 316 318 317 317 316 318 319 321 323 325 325 323 326 326 325 327 328 327 326 324 321 322 322 320 319 319 320 319
310 315 314 314 313 313 314 315 316 317 315 314 318 317 315 313 314 316 317 318 317 319 318 321 322 321 321 322 324 325 325 326 327 327 327 326 324 323 322 322 321 320 319 319 318
310 311 314 315 313 313 313 315 316 316 319 318 318 317 316 313 314 318 318 320 321 321 320 321 322 321 322 321 321 322 322 324 325 325 324 324 325 324 322 320 321 320 319 319 318
312 311 312 315 317 317 318 315 315 316 317 318 317 319 318 314 314 320 320 319 321 322 321 321 322 322 324 320 321 323 322 322 322 322 322 325 324 324 319 319 319 320 319 318 317

GFSSW_850_thetae_024.txt.gz
Theta_e
304 304 305 305 305 304 303 304 309 315 320 321 322 322 322 321 321 320 319 320 320 320 317 315 321 321 328 330 330 328 328 329 327 327 327 325 325 325 325 326 326 326 325 326 325
304 305 306 307 306 306 305 304 303 304 313 318 320 320 321 320 319 319 319 318 319 319 316 319 320 321 322 329 330 328 329 328 325 325 325 326 325 326 327 327 326 327 327 326 325
305 307 309 308 305 305 305 305 305 304 304 305 311 314 316 317 317 317 317 316 318 319 316 320 319 321 326 327 329 329 329 327 325 325 326 326 325 325 326 327 327 327 328 328 327
304 308 310 308 304 305 306 306 306 306 306 307 306 307 309 314 315 317 315 317 318 321 320 321 320 319 324 327 327 329 327 327 326 326 327 325 325 325 325 326 327 327 327 327 327
304 306 310 308 304 306 308 309 307 306 306 309 310 307 310 314 313 315 312 314 315 316 319 320 320 319 321 324 327 328 327 327 326 325 326 326 325 325 325 325 325 326 327 327 327
307 304 308 310 308 310 311 311 310 307 306 307 308 309 309 313 312 312 313 314 315 316 317 319 320 320 319 320 321 327 328 328 327 326 325 325 325 325 325 325 325 326 326 325 325
311 304 305 309 310 312 311 312 311 310 307 305 309 311 312 311 311 311 312 313 314 314 315 318 318 320 318 319 321 322 325 328 327 326 325 326 325 325 326 326 325 325 325 322 322
310 308 304 308 310 311 308 307 311 312 310 306 305 311 311 311 310 312 312 312 312 312 312 314 317 318 320 319 322 324 324 328 327 327 325 325 327 326 326 326 325 325 323 321 322
311 313 309 304 310 308 307 309 310 311 312 309 305 310 309 310 311 310 312 312 312 312 313 312 313 317 318 320 323 324 327 326 328 326 325 325 326 325 326 325 325 324 323 321 323
310 312 313 305 309 310 308 309 311 312 311 310 310 310 309 310 311 311 311 312 312 312 313 313 313 317 319 319 322 325 327 326 328 328 326 326 325 325 326 325 324 323 323 322 323
313 308 313 307 307 309 309 310 311 312 311 311 311 310 311 312 310 311 311 311 311 311 313 313 315 317 317 317 319 321 323 326 325 326 326 326 325 325 325 325 324 324 324 323 323
314 309 312 308 306 309 310 310 311 311 310 310 311 311 311 311 311 310 311 311 311 312 312 313 315 314 315 316 318 320 324 326 326 325 326 325 326 325 323 323 324 324 324 323 322
314 313 308 305 307 309 311 311 311 311 308 310 311 311 311 310 311 311 311 311 311 312 312 312 313 314 314 316 318 318 323 325 324 325 325 324 325 323 322 323 324 325 325 323 322
314 314 308 305 307 308 309 311 312 312 309 310 309 310 311 310 310 310 310 311 311 312 311 312 312 313 315 315 316 319 319 324 325 327 329 323 326 323 323 323 323 325 325 322 320
314 314 310 304 311 312 312 312 312 310 315 311 310 309 310 309 310 311 309 311 312 311 312 312 312 313 314 315 315 318 320 323 325 327 328 329 329 326 324 324 324 318 322 321 320
314 314 311 306 307 310 311 310 309 310 314 313 309 310 310 310 310 310 310 310 311 312 311 312 311 312 312 313 314 314 319 322 326 327 330 326 329 326 325 323 320 318 321 321 320
315 314 312 307 307 307 311 310 311 315 312 314 312 311 310 311 310 311 312 311 312 314 313 311 311 311 312 314 313 316 321 324 330 332 331 325 326 326 320 320 321 319 321 321 319
314 314 314 308 310 311 310 308 312 313 313 311 312 311 313 311 311 310 312 312 311 312 312 313 312 314 312 313 319 319 317 327 331 329 324 323 327 324 319 319 321 321 321 320 319
313 315 314 310 309 310 309 310 313 313 313 313 312 314 314 312 311 311 311 311 310 312 313 317 315 314 313 314 319 318 317 321 326 321 325 323 323 318 318 318 318 320 320 320 319
313 315 314 314 309 310 311 312 312 312 312 312 314 313 314 312 311 312 312 313 311 312 311 311 316 315 316 317 320 322 322 327 325 327 330 325 324 322 319 318 317 319 319 319 319
313 314 313 314 311 310 311 311 311 311 311 312 314 315 313 312 312 314 315 314 313 313 311 311 312 318 314 318 319 324 327 325 325 326 329 325 323 319 318 318 317 317 320 319 319
314 313 312 313 312 311 312 311 309 311 311 312 312 314 314 313 312 313 315 314 313 312 313 311 314 318 319 318 320 324 325 325 325 328 325 322 321 318 317 317 317 317 320 320 319
312 313 312 312 313 312 311 311 309 311 312 312 313 313 314 315 313 313 314 314 314 314 316 316 319 322 321 323 323 326 325 324 325 324 326 324 320 318 316 316 319 318 320 320 319
311 314 312 311 311 312 312 312 311 310 311 313 314 314 315 315 312 315 315 317 315 313 316 319 319 319 327 326 324 326 325 324 325 326 325 324 319 320 319 317 317 319 320 320 319
311 314 312 313 311 312 313 313 313 313 311 312 314 314 316 314 312 314 316 318 318 314 317 319 324 322 323 324 324 324 325 325 326 325 326 325 320 319 319 317 317 319 320 320 319
309 311 313 315 312 312 313 314 314 314 315 317 315 316 316 314 313 313 317 317 317 318 316 317 322 321 321 324 324 325 325 325 325 324 325 324 323 320 319 320 319 319 320 319 319
311 310 311 313 315 315 315 314 314 314 313 314 315 316 318 317 313 317 315 316 319 318 319 320 321 323 322 320 321 322 321 324 324 323 324 325 323 321 317 318 318 319 319 319 319

GFSSW_850_thetae_027.txt.gz
Theta_e
304 304 305 307 307 306 304 303 303 307 315 321 324 324 323 323 322 321 321 320 320 320 319 317 315 319 323 326 330 330 325 327 326 324 324 324 323 324 324 325 325 325 326 325 325
304 304 306 309 309 307 305 305 304 303 305 314 318 321 321 321 321 320 320 320 319 320 319 317 319 320 320 326 329 327 326 328 324 322 322 323 323 325 326 326 326 326 326 325 325
304 304 307 310 309 305 305 305 305 305 305 304 306 314 316 317 317 317 317 317 318 321 318 317 318 320 320 322 325 328 330 326 325 325 325 323 324 324 324 324 326 326 326 327 327
307 304 307 310 307 304 306 307 306 306 306 306 306 305 308 314 317 315 314 313 319 320 320 319 317 320 319 323 325 327 328 328 326 326 326 324 325 324 324 324 325 325 326 326 327
311 306 304 310 308 304 308 309 309 308 306 306 309 309 309 312 313 315 313 313 313 315 317 320 320 320 317 319 321 324 324 327 327 327 326 325 324 324 324 325 325 324 325 326 326
312 312 304 307 309 308 310 311 311 309 308 306 307 308 309 312 308 310 311 312 314 315 316 317 319 320 320 317 318 320 323 324 327 327 325 324 323 324 325 325 325 325 325 325 326
314 310 307 304 309 310 313 311 312 312 310 308 306 310 311 309 309 311 312 314 313 314 315 314 317 319 319 318 318 320 322 320 321 326 326 326 324 323 325 325 325 325 325 325 325
315 310 309 304 306 309 310 309 306 309 312 311 307 307 310 309 308 311 312 312 313 313 313 314 313 314 318 319 319 320 321 323 321 323 325 325 327 323 325 325 325 325 325 325 322
315 312 311 310 304 310 309 307 307 311 311 312 309 305 308 308 310 309 311 312 312 312 312 311 312 313 317 319 319 319 322 323 323 323 325 325 326 323 324 325 324 324 324 324 321
316 314 310 313 307 308 309 308 309 311 312 311 310 310 310 309 309 311 311 312 312 312 312 313 312 312 315 318 319 318 320 321 323 322 323 326 326 321 324 324 323 324 324 322 322
315 316 309 313 311 307 310 309 310 311 311 312 311 310 310 311 311 310 311 311 311 312 311 313 312 313 312 315 315 315 317 319 321 322 324 324 325 324 323 324 321 324 322 320 322
314 315 311 312 311 305 309 310 310 311 310 311 312 311 311 311 311 310 311 311 311 311 310 312 313 311 312 313 317 316 317 318 320 322 323 325 325 324 323 322 323 323 324 321 321
314 315 313 311 308 307 309 310 310 310 309 309 311 311 312 311 311 311 310 311 310 311 311 311 311 311 313 313 315 316 317 317 319 321 321 323 326 324 322 322 323 323 325 321 321
314 315 313 310 306 307 309 310 309 311 312 311 308 311 311 311 311 311 311 311 311 311 311 312 310 311 313 314 313 316 314 315 317 322 325 324 331 322 322 321 318 320 321 321 320
314 314 314 309 306 307 308 309 311 312 312 310 310 309 311 311 311 311 311 311 313 311 311 312 311 311 312 313 313 314 314 315 317 320 324 325 328 323 320 321 321 320 319 319 320
315 315 314 308 311 311 311 311 310 311 310 312 309 308 311 310 311 311 310 310 311 312 311 311 310 312 311 311 312 313 313 315 317 320 325 324 328 324 323 322 320 318 319 318 319
315 315 314 311 308 311 310 309 311 311 310 313 311 310 309 311 311 310 311 311 311 311 309 311 312 310 311 312 312 313 314 316 318 321 323 322 326 326 320 316 319 316 317 317 319
315 315 315 312 307 306 309 310 312 310 312 311 311 310 312 311 311 310 312 311 309 310 312 310 310 311 311 312 312 313 313 314 317 321 321 325 327 322 323 316 318 318 317 318 318
314 315 314 311 309 308 309 310 309 310 313 312 312 314 313 311 311 310 310 311 310 309 311 313 313 312 312 311 311 313 314 312 319 319 325 325 320 317 316 315 317 317 317 317 318
315 315 313 311 309 310 310 310 310 312 312 312 315 313 313 312 312 310 310 310 310 310 309 311 313 311 309 312 311 315 314 315 317 322 329 323 319 318 317 316 317 317 316 317 317
314 314 313 313 310 310 310 311 310 310 312 312 314 314 313 313 311 311 312 311 311 312 310 310 312 313 311 316 316 316 318 316 318 318 326 324 322 315 316 316 318 317 316 317 317
314 313 313 311 311 310 311 310 310 311 311 312 311 313 314 313 313 311 313 313 312 312 312 311 314 315 316 317 317 318 319 318 317 324 323 319 318 314 314 314 316 316 317 317 318
313 313 312 312 312 311 311 311 310 311 311 311 312 312 312 313 316 311 311 313 313 312 313 312 314 320 320 319 319 319 319 319 320 325 326 321 318 315 313 313 314 316 317 317 317
312 313 312 312 311 312 312 312 312 309 310 310 312 312 315 314 313 314 311 313 312 313 313 312 316 317 325 325 319 319 322 324 324 326 325 321 319 317 315 315 313 317 317 317 318
312 313 312 312 312 312 312 312 313 311 309 311 311 314 314 315 314 313 314 315 314 314 315 317 318 320 320 318 322 323 325 324 326 326 326 319 320 317 315 314 314 317 317 317 317
311 312 311 311 311 312 312 314 314 313 312 313 313 314 313 315 313 310 315 316 317 315 316 316 319 320 324 324 323 324 324 324 324 324 324 324 324 315 315 315 315 317 317 317 316
311 312 313 313 312 313 313 313 313 313 312 313 313 315 315 313 313 313 315 315 316 316 314 317 319 324 321 322 323 324 323 323 323 322 323 325 321 315 316 315 315 316 318 317 317

GFSSW_850_thetae_030.txt.gz
Theta_e
304 304 304 306 308 307 306 305 303 304 311 318 322 323 322 323 323 322 321 321 320 319 319 318 316 317 321 323 329 329 325 325 325 323 323 323 322 324 322 323 324 325 325 325 327
308 304 304 307 309 308 306 305 305 304 303 309 318 320 321 322 322 321 320 320 320 320 319 319 316 319 320 322 325 327 327 327 322 322 322 322 322 323 325 325 325 326 325 325 325
312 306 304 308 309 307 305 305 305 305 305 304 305 313 317 318 317 316 314 315 317 321 318 318 317 319 318 320 323 327 329 325 325 325 325 323 323 325 323 323 325 326 325 325 325
313 311 304 306 310 305 305 307 307 307 306 306 306 305 305 313 311 314 313 313 315 321 321 319 318 319 317 321 323 323 326 327 327 327 326 324 325 323 323 323 325 325 325 325 325
315 312 309 304 310 307 305 309 310 309 307 306 307 309 306 312 309 314 313 313 313 319 320 320 320 319 318 316 318 319 321 324 326 327 327 326 324 323 323 324 324 324 324 325 325
314 314 312 307 305 310 308 311 311 310 309 306 307 308 308 309 308 309 314 311 312 315 316 318 318 318 319 317 316 318 318 320 323 323 325 325 325 324 324 324 324 325 324 324 323
314 315 314 310 304 309 310 312 311 312 311 309 306 308 310 310 308 310 310 311 313 314 315 315 317 318 319 318 319 318 319 318 319 319 321 325 326 326 325 324 324 325 325 324 324
314 315 315 309 305 306 309 311 309 307 310 311 310 306 308 309 310 310 311 312 314 314 314 314 313 312 313 317 318 319 318 321 319 319 321 324 328 324 326 324 323 324 325 324 325
313 314 314 310 307 306 310 309 307 308 310 312 312 308 307 308 308 309 310 312 312 312 313 312 312 312 315 318 318 317 318 319 321 319 322 323 326 324 326 323 323 324 325 325 324
314 314 316 311 312 305 309 309 308 309 311 313 310 310 310 310 309 310 309 311 311 312 312 312 312 311 312 315 317 317 316 317 319 320 320 322 324 323 324 322 322 324 325 324 323
313 313 316 312 313 309 308 310 309 311 312 313 311 311 310 310 310 310 310 310 311 311 312 312 312 312 311 313 314 314 314 315 316 317 319 321 322 321 322 323 320 321 323 323 323
313 312 314 314 312 312 307 310 310 311 309 311 311 312 312 311 311 310 311 311 311 311 310 311 313 312 310 310 314 315 316 316 314 315 318 320 321 321 321 322 322 322 322 323 320
312 313 314 314 312 311 306 308 309 309 309 310 310 311 311 312 312 311 310 310 310 311 311 311 310 310 311 312 313 313 316 315 315 315 314 315 319 321 321 322 322 322 323 322 321
312 313 314 313 314 311 310 307 310 310 310 311 309 311 311 312 312 311 311 311 311 311 311 311 310 311 311 312 312 314 313 315 314 315 316 319 324 321 321 322 321 322 321 321 320
312 313 315 313 312 309 307 309 309 309 303 308 309 310 311 312 311 311 311 311 313 311 310 311 310 311 311 311 312 313 312 313 315 315 316 315 319 321 321 322 322 320 320 321 321
311 313 314 313 308 306 306 308 311 304 305 311 309 309 310 311 312 311 311 311 311 312 311 311 310 311 311 310 311 313 313 314 314 316 320 315 318 319 322 321 320 320 318 319 318
310 313 314 313 309 308 310 311 308 301 309 311 311 309 309 311 310 311 312 312 313 312 310 311 311 310 311 312 311 311 313 315 316 316 315 313 318 317 319 319 319 319 318 318 318
310 312 314 313 310 311 310 309 308 308 310 311 310 309 311 309 311 310 311 312 309 309 310 304 306 310 310 311 312 312 312 315 313 311 312 320 322 320 318 318 319 318 318 316 317
309 312 313 311 310 310 308 310 307 309 311 311 311 312 312 311 311 311 310 309 311 309 310 308 309 311 310 310 311 311 313 311 313 315 318 319 320 319 318 315 314 315 315 316 317
309 311 312 313 308 309 308 310 308 312 311 311 311 312 313 311 312 311 308 308 309 308 308 309 309 311 311 310 311 311 310 312 313 311 318 322 320 316 317 315 314 315 315 316 316
308 313 311 311 307 308 309 312 309 311 311 311 312 314 313 313 311 309 309 309 308 309 308 309 312 311 311 310 312 312 311 312 311 313 319 326 324 317 318 316 315 315 316 316 316
308 309 310 310 311 309 310 310 310 310 311 311 311 313 314 314 314 309 310 310 310 310 310 310 313 313 312 312 310 310 311 312 313 312 315 318 318 314 313 316 316 315 315 316 316
311 310 310 309 309 310 310 310 311 311 311 311 312 311 312 313 315 310 310 311 311 311 312 311 314 315 318 313 315 312 314 312 313 317 315 318 317 313 310 313 315 314 315 315 316
309 312 311 311 309 311 311 311 312 310 311 310 311 311 312 313 312 314 312 311 312 312 312 311 313 315 320 321 319 319 315 316 314 316 314 318 319 317 313 313 313 314 315 315 316
309 311 311 311 311 311 311 313 313 313 310 310 310 311 313 315 313 313 313 313 313 313 313 312 316 313 313 314 316 319 319 319 317 316 316 315 318 319 314 312 314 315 315 314 315
311 312 310 310 311 312 312 313 313 312 311 311 311 312 312 315 313 311 312 313 316 313 314 314 315 313 318 322 319 322 320 320 319 318 314 323 324 315 312 312 313 314 315 315 315
311 311 312 311 312 312 313 312 313 313 312 312 311 312 314 313 312 312 312 312 315 317 315 316 316 317 324 321 322 324 317 323 317 321 325 327 321 315 315 313 313 314 315 315 315

GFSSW_850_thetae_033.txt.gz
Theta_e
314 308 304 304 306 309 308 307 305 304 307 314 319 322 325 324 323 322 322 321 321 320 319 319 318 317 319 319 327 327 323 324 323 322 322 321 322 323 324 321 323 324 325 325 326
315 313 305 304 307 310 308 306 305 305 304 307 315 320 322 322 323 322 321 321 321 320 319 319 318 316 319 320 324 326 327 326 321 320 320 322 322 322 323 323 324 324 325 325 326
315 314 311 304 308 310 307 305 305 306 305 304 304 315 319 319 318 318 316 317 319 320 320 319 318 317 318 319 322 325 328 324 325 324 324 322 322 324 323 322 324 325 325 324 325
315 314 313 307 311 310 305 306 307 307 306 306 305 304 306 313 311 314 313 314 314 320 321 320 319 317 316 320 322 320 322 325 326 326 326 324 324 323 322 322 323 323 324 324 325
315 314 314 312 305 311 306 307 309 309 308 307 306 308 307 311 307 313 313 312 316 319 321 321 319 318 317 315 317 317 319 321 322 325 325 326 325 323 324 325 325 325 324 324 324
315 314 314 314 311 305 309 307 311 311 309 308 307 307 308 308 307 307 313 312 313 317 318 320 319 318 318 317 316 317 316 317 318 319 321 322 323 324 324 325 325 325 324 324 325
315 314 314 315 312 306 308 310 312 312 311 310 308 307 309 309 309 308 308 310 311 315 315 317 318 318 318 318 317 318 318 317 317 318 318 321 321 322 324 325 326 325 324 324 324
313 313 314 315 314 308 306 311 312 309 308 311 311 308 308 310 310 309 311 312 312 314 314 314 314 313 313 315 316 318 316 319 316 317 318 321 322 322 324 325 325 326 325 324 324
313 312 313 314 314 309 305 310 310 307 309 310 312 311 309 309 308 309 310 310 312 314 314 313 312 312 312 316 315 315 317 317 317 317 319 320 322 319 321 325 323 324 324 324 324
313 312 314 314 314 310 306 310 309 307 310 312 311 309 310 310 309 309 309 310 311 312 312 312 311 312 313 315 313 314 316 315 316 318 317 318 320 319 320 322 322 322 324 324 324
314 312 314 314 315 311 307 310 309 308 310 313 312 312 310 310 310 310 308 310 311 311 310 311 311 311 311 311 313 313 313 313 314 314 314 315 317 318 318 319 320 321 323 324 323
313 313 314 313 315 312 309 309 309 310 310 310 312 311 311 311 311 310 310 310 310 310 309 311 312 310 309 309 312 313 314 314 313 313 313 313 314 314 312 314 318 320 321 322 324
310 313 314 312 315 312 311 309 309 310 308 309 309 311 311 311 312 311 310 310 309 310 310 311 310 309 310 311 311 311 312 312 313 313 313 313 313 311 313 316 318 320 321 321 321
306 310 314 313 314 313 311 310 307 309 310 310 309 310 311 311 312 311 310 310 310 310 309 311 310 310 310 310 311 312 311 312 313 315 313 314 315 313 314 315 317 319 321 321 322
305 309 315 312 313 313 312 310 308 309 304 307 308 310 311 311 311 311 311 311 312 311 309 311 310 310 311 310 311 312 311 312 314 313 312 313 312 311 314 315 317 317 320 321 322
305 308 313 314 313 313 311 308 309 308 307 310 308 310 311 311 312 310 311 311 311 312 311 311 310 310 310 310 310 311 312 313 314 313 314 312 313 312 311 315 317 317 319 321 322
304 307 311 314 312 312 308 309 310 309 308 310 310 308 309 310 311 312 311 313 314 314 312 311 311 310 310 311 310 310 313 315 315 317 314 311 313 313 310 314 316 317 318 320 321
304 306 309 313 312 307 309 309 309 307 309 310 309 309 309 309 310 310 312 312 311 311 309 307 306 308 309 311 311 311 311 314 315 315 312 312 314 313 311 311 312 313 316 318 316
305 306 309 311 311 306 310 310 306 307 310 310 310 310 310 311 311 311 311 310 308 309 311 308 307 308 308 309 310 311 313 310 312 314 316 314 312 310 312 313 313 314 316 316 316
305 307 308 308 311 309 309 308 307 309 310 310 310 310 312 311 311 312 311 308 309 308 306 306 306 309 310 309 310 310 309 312 313 312 314 312 315 313 311 311 310 312 312 314 315
304 306 307 309 310 309 310 312 307 311 310 310 310 312 312 312 311 310 309 308 307 308 307 307 310 311 311 311 312 312 312 311 309 310 312 312 314 314 313 311 310 312 313 315 315
305 306 309 310 305 308 310 309 309 311 311 311 311 311 312 312 313 309 309 308 308 308 309 308 311 312 310 310 310 311 311 311 311 308 310 315 314 312 310 310 312 314 314 315 314
303 308 310 307 308 307 310 310 311 310 311 310 311 311 312 313 316 311 309 309 309 308 310 310 312 313 314 312 311 313 312 311 310 310 310 309 309 312 310 312 313 315 315 315 314
303 306 309 306 308 309 311 311 311 310 311 311 311 311 312 313 312 313 312 310 309 309 311 311 313 313 315 316 313 315 313 311 311 312 312 312 311 310 310 313 312 314 315 314 315
304 306 306 307 308 309 309 310 311 312 311 311 311 311 312 314 313 313 311 311 311 311 313 312 313 313 313 313 314 315 313 312 312 311 313 312 313 312 312 314 314 314 313 314 314
307 310 309 309 310 311 309 311 312 312 311 312 312 310 311 314 312 311 311 311 312 314 314 313 314 313 314 315 315 317 315 313 314 311 313 316 315 314 312 314 312 313 314 314 314
308 306 311 311 311 312 312 312 312 312 311 311 310 311 313 312 311 311 311 311 311 313 314 313 313 316 320 317 319 320 319 314 315 314 313 317 316 313 313 313 313 313 314 314 314

GFSSW_850_thetae_036.txt.gz
Theta_e
316 314 313 306 304 306 309 310 308 305 304 308 313 320 322 323 323 323 322 321 321 320 320 319 319 317 316 318 324 326 323 323 322 320 320 320 320 321 323 322 322 323 324 325 326
317 315 314 312 304 307 310 309 307 305 305 304 311 318 320 322 323 323 322 320 321 321 320 319 319 317 317 319 324 325 324 324 320 318 320 320 320 321 323 322 323 323 325 324 325
317 315 314 314 309 306 310 307 305 305 305 305 304 314 318 320 320 320 318 320 321 321 321 320 319 317 317 318 321 324 326 323 324 324 325 322 322 323 322 322 323 323 323 326 326
314 316 315 313 312 306 310 305 306 307 307 306 306 304 309 317 313 313 314 315 317 318 322 321 320 316 316 318 319 320 320 323 324 325 326 324 325 323 323 323 324 323 324 323 324
314 315 315 314 314 310 308 306 308 309 309 307 307 308 306 308 309 313 313 313 316 319 320 320 320 317 316 315 316 317 318 320 320 320 321 323 323 324 324 326 326 325 325 324 324
315 313 315 314 314 313 306 309 308 311 310 308 307 309 308 305 307 307 313 311 318 320 319 320 319 318 317 317 316 316 316 316 317 317 318 319 320 321 323 324 325 325 325 324 324
312 314 314 314 314 314 310 308 309 312 311 310 308 307 308 309 309 308 309 313 312 317 318 318 320 317 317 317 316 317 317 315 315 317 316 318 319 319 320 321 323 323 324 324 324
314 314 314 314 314 315 311 306 312 312 311 311 310 309 309 310 310 309 309 309 310 312 315 314 316 316 314 314 314 317 315 317 314 315 316 318 319 317 320 319 321 321 323 323 322
311 314 314 313 314 315 312 305 311 311 307 309 311 311 310 310 309 309 309 311 312 313 314 313 313 312 312 314 313 314 314 315 316 315 316 317 319 319 320 319 320 322 323 323 323
307 311 314 313 313 314 311 308 310 309 307 310 312 311 311 310 309 309 308 310 312 312 312 311 311 310 311 313 311 311 313 313 315 315 313 314 315 315 316 317 317 319 321 323 323
304 309 312 312 314 314 310 310 309 308 308 312 312 311 310 310 309 310 309 309 311 311 310 311 310 312 311 309 310 312 313 312 312 312 312 313 313 313 313 315 316 317 319 319 321
303 304 310 313 314 314 310 309 308 308 309 309 312 311 311 310 311 310 309 310 310 310 309 310 311 309 308 308 311 311 313 313 311 311 312 312 313 312 312 312 314 315 317 319 321
303 303 307 312 315 314 313 309 308 308 307 308 309 311 311 311 311 311 310 310 309 309 309 310 309 309 310 310 310 310 311 311 310 310 310 311 311 308 309 310 311 312 313 316 319
302 303 305 309 314 313 312 309 309 308 303 308 309 310 311 311 310 311 310 310 309 309 308 309 309 310 309 310 309 311 309 310 311 311 311 310 313 310 310 309 308 310 314 316 318
302 302 302 306 310 313 312 310 309 307 303 307 309 310 311 310 311 311 311 310 311 310 309 310 310 310 311 310 309 310 310 310 311 312 311 311 311 308 309 309 310 311 314 316 317
301 302 303 305 309 313 311 310 308 302 308 311 308 310 312 311 312 310 311 311 311 312 311 310 309 309 309 309 309 310 311 311 312 314 316 311 311 311 309 308 309 311 314 317 319
303 302 304 306 312 313 312 308 310 310 307 310 310 309 310 311 312 311 312 313 313 314 313 311 311 310 310 311 309 309 312 312 312 314 312 309 311 311 308 308 309 309 313 316 318
303 303 305 306 312 311 309 308 307 308 308 310 308 308 309 309 309 311 312 312 311 312 310 310 306 310 310 310 309 309 310 309 309 312 311 310 312 310 309 309 310 310 312 314 317
303 304 305 306 310 310 308 310 307 307 309 310 309 308 309 309 310 310 311 311 310 311 313 310 307 306 307 309 309 311 311 309 311 309 311 313 310 309 308 308 308 310 311 310 311
305 304 306 307 309 308 308 309 307 308 309 309 309 309 310 311 310 312 311 307 309 308 308 306 303 306 308 308 309 311 310 313 312 313 312 310 309 310 309 309 308 308 309 313 315
305 304 307 307 307 307 309 310 307 310 309 309 308 309 310 311 311 311 309 307 307 307 307 306 307 307 310 311 311 312 311 312 311 311 308 308 308 308 311 312 313 310 308 310 313
304 306 308 309 306 304 310 310 310 310 310 310 309 310 310 311 311 311 308 308 307 307 309 308 310 310 308 309 310 310 311 311 313 309 309 307 309 311 310 311 312 311 311 312 314
304 306 307 307 306 307 309 310 309 310 310 309 310 310 310 312 314 312 310 308 307 307 308 308 311 309 307 312 310 311 311 311 311 312 310 307 308 307 308 309 312 313 313 313 313
303 307 307 305 306 309 310 310 310 310 309 310 310 310 311 313 312 312 312 311 308 308 309 309 312 311 313 313 313 313 312 310 311 313 311 309 308 307 308 311 311 314 315 313 311
304 304 305 306 305 310 310 310 310 311 310 310 311 310 311 314 311 313 312 310 310 310 311 311 314 313 313 313 313 313 314 312 312 311 310 310 310 310 310 311 311 313 315 313 311
306 307 307 306 308 309 310 308 310 311 310 311 311 310 309 313 313 312 311 311 311 311 311 312 315 314 314 314 315 315 314 314 312 312 310 310 310 310 312 312 311 312 314 314 311
305 306 305 306 309 310 310 310 310 310 311 310 310 311 311 311 311 311 311 310 310 312 314 314 313 315 317 316 317 321 316 316 313 312 311 311 311 310 311 313 313 312 313 314 312

GFSSW_850_thetae_039.txt.gz
Theta_e
315 318 316 314 312 305 305 309 310 308 307 305 306 314 319 322 323 323 321 321 321 320 319 319 319 317 317 318 323 325 326 326 323 321 321 320 320 321 321 322 322 322 323 324 326
315 315 316 315 313 311 305 310 309 306 305 305 304 311 320 321 323 323 322 322 321 321 320 319 319 317 316 319 324 325 327 325 321 319 321 320 320 321 322 321 322 323 323 324 324
315 314 316 315 314 313 306 309 308 305 305 305 304 306 317 318 321 321 321 321 321 321 322 320 319 317 317 318 320 324 326 322 323 323 325 324 323 323 322 324 323 323 323 323 325
312 315 314 316 315 313 312 307 307 306 307 307 306 304 307 317 315 314 315 315 318 321 323 321 320 317 316 317 318 321 320 322 323 323 323 324 324 325 323 323 323 323 323 324 324
315 312 315 314 316 314 313 307 307 308 309 308 307 307 306 307 315 313 314 313 314 316 321 321 320 316 316 314 315 318 318 319 320 318 318 320 322 324 324 324 324 325 325 324 325
312 314 313 314 316 315 313 312 308 308 310 309 307 308 307 305 307 308 313 312 317 319 319 320 318 318 316 316 316 315 316 316 317 317 317 319 319 320 320 319 321 322 323 324 324
307 311 313 314 315 315 314 313 307 309 312 310 309 307 307 309 309 308 311 312 316 320 320 319 318 316 317 316 316 316 317 316 316 316 317 317 318 317 318 319 320 321 322 322 322
305 307 312 314 314 315 314 314 306 310 312 311 311 309 310 310 309 309 307 309 312 316 316 316 318 318 317 314 313 316 315 317 315 315 316 317 317 317 316 317 318 318 319 318 317
303 304 309 312 314 315 315 314 306 312 312 308 311 310 311 311 310 309 309 309 309 312 315 314 313 313 312 313 313 312 314 315 315 314 316 317 318 317 318 317 317 317 318 319 319
303 303 304 310 313 314 314 312 308 311 309 308 311 310 310 310 308 309 308 310 312 312 312 312 311 311 312 313 314 312 313 313 315 313 312 313 315 314 314 314 316 315 316 317 319
302 303 302 305 310 314 315 310 309 308 308 308 311 310 310 310 309 310 308 310 311 311 311 310 312 313 312 310 310 311 312 313 312 311 312 312 313 313 312 312 312 313 314 315 317
300 302 303 303 309 313 315 310 310 308 307 307 311 311 310 310 310 310 309 309 310 310 308 310 312 310 308 309 310 310 311 312 310 310 311 311 312 311 311 311 311 311 312 313 314
301 302 303 302 305 309 313 311 310 309 306 307 307 310 311 310 311 310 309 310 308 309 309 310 309 309 309 310 310 310 312 311 310 310 310 310 311 310 309 309 309 310 311 311 312
300 301 303 303 303 306 310 312 311 309 302 306 308 309 310 311 310 310 310 309 308 310 308 310 309 309 309 310 310 311 309 310 311 311 311 309 312 310 309 309 309 308 309 310 311
300 301 301 302 305 306 309 310 310 307 301 307 309 310 310 310 309 311 310 310 310 309 309 309 309 310 310 310 309 310 309 310 310 312 311 311 312 312 308 309 309 309 310 310 310
299 300 301 303 303 304 309 309 308 307 302 310 309 311 312 309 311 311 310 310 311 311 310 309 308 309 309 308 309 309 309 311 312 313 314 312 312 312 311 310 310 309 309 310 312
301 302 301 303 303 304 308 308 308 307 306 310 310 311 312 311 312 311 313 311 313 313 312 312 312 311 310 311 309 310 313 312 311 313 311 309 312 312 309 308 308 308 308 310 312
301 303 303 303 303 307 309 306 310 308 308 308 308 310 310 310 310 312 311 313 312 311 311 311 309 310 311 311 310 311 311 311 308 310 310 309 313 311 308 309 309 309 309 310 310
302 303 303 302 305 308 306 311 308 307 309 309 308 309 309 309 309 310 312 312 311 311 312 310 309 305 308 308 310 310 311 310 309 309 310 310 309 309 309 309 308 308 309 309 311
304 304 304 303 305 308 307 311 306 307 308 308 310 308 309 308 309 310 310 308 310 311 309 309 310 304 307 308 308 309 309 311 311 313 313 310 310 310 309 308 309 311 313 312 308
304 304 303 305 307 305 309 309 307 308 308 308 308 309 309 310 309 310 309 308 307 307 309 307 307 306 309 309 308 310 310 312 312 313 313 312 310 306 308 309 312 312 313 313 309
303 305 305 308 304 301 308 308 310 309 309 309 309 309 309 309 310 310 310 307 306 306 309 308 309 307 307 307 308 309 311 310 312 313 312 312 311 310 310 311 312 313 313 314 313
302 301 308 307 305 306 309 309 310 310 309 309 309 310 310 311 312 310 310 308 307 306 307 308 310 310 306 309 309 311 311 310 311 311 313 312 310 307 308 307 309 312 314 313 312
302 305 304 306 305 306 309 309 311 310 309 308 309 310 311 312 311 311 311 310 307 307 308 308 310 307 310 310 311 312 312 310 311 313 312 312 310 308 307 308 310 310 314 312 310
304 303 305 306 306 308 309 310 311 310 309 309 309 309 311 312 311 312 310 310 308 308 309 309 313 311 311 311 312 313 313 312 312 311 313 311 310 309 309 310 309 311 313 312 309
304 304 305 306 307 309 310 310 310 309 309 310 310 310 310 311 310 312 310 310 311 310 310 311 314 314 314 314 314 315 315 314 315 312 311 311 311 310 307 311 311 311 313 313 309
302 304 303 307 308 310 310 308 309 309 309 309 309 310 310 310 309 310 310 310 311 312 312 313 313 315 315 315 316 321 318 315 314 312 312 313 312 309 309 310 312 313 313 314 309

GFSSW_850_thetae_042.txt.gz
Theta_e
313 315 315 317 316 315 312 304 306 310 308 307 305 311 319 318 319 324 322 321 321 320 318 318 319 318 317 320 325 325 323 323 323 323 323 322 322 322 321 322 324 323 324 325 324
315 313 315 314 317 315 314 308 305 310 307 306 304 308 315 320 323 324 323 321 321 321 321 321 320 318 319 320 323 324 325 323 322 323 322 322 322 323 323 323 324 324 323 325 324
315 316 314 315 316 316 314 313 305 309 305 306 305 304 314 319 320 322 323 323 322 321 321 320 319 319 319 320 322 323 325 323 324 322 324 325 324 324 323 324 324 325 325 324 326
312 313 314 314 315 317 314 313 308 308 306 307 307 305 307 316 316 317 319 320 321 322 321 322 320 320 319 320 319 322 322 322 323 324 325 325 324 325 323 323 324 324 323 324 325
306 309 312 314 315 315 316 313 312 307 308 308 308 307 305 312 316 313 314 314 314 322 322 321 321 320 321 319 319 320 320 319 319 320 320 320 321 323 323 323 324 324 325 325 325
304 305 309 311 313 314 317 314 313 308 308 309 308 308 309 308 307 310 313 313 316 320 323 321 320 319 319 319 319 318 318 318 318 318 318 319 319 319 319 319 319 320 322 323 324
303 304 305 308 311 313 315 315 313 308 309 311 310 308 309 310 308 307 313 312 319 321 321 321 319 319 319 319 318 318 319 318 318 317 318 318 319 319 318 318 319 319 320 320 321
302 302 302 304 309 312 314 316 314 308 309 312 311 310 311 310 310 309 308 312 314 319 320 319 318 318 317 316 315 317 317 319 318 317 317 317 319 318 318 318 319 318 319 319 320
302 302 303 303 306 310 314 316 314 308 312 312 311 310 312 310 310 309 309 310 312 316 315 317 317 315 314 315 316 315 317 317 317 316 317 318 320 318 319 318 318 318 319 320 320
302 300 301 303 304 307 314 315 314 310 312 308 310 310 310 311 309 309 309 310 311 313 314 314 313 314 314 316 318 317 316 315 316 315 315 316 317 317 316 316 317 318 319 319 319
300 300 301 302 303 305 311 315 312 309 310 310 310 310 310 309 309 309 309 311 311 312 314 313 314 315 315 315 315 314 315 315 314 313 313 314 314 314 313 313 313 314 315 315 317
299 300 300 301 303 303 307 310 310 310 310 309 311 310 310 310 310 310 310 311 312 314 313 313 313 313 312 313 313 314 314 315 313 312 312 313 313 313 313 313 313 313 313 312 313
299 300 300 302 302 301 304 306 311 308 310 309 309 310 311 310 311 311 310 310 312 313 313 314 312 310 312 312 313 313 314 314 313 312 312 313 315 316 313 312 312 312 311 312 312
300 299 299 300 302 304 303 306 309 309 314 310 309 308 311 311 311 311 310 310 311 312 312 313 312 311 311 312 312 314 312 312 312 313 315 312 317 315 315 315 314 313 312 312 312
300 300 300 301 302 302 306 306 309 310 318 310 309 310 310 310 310 311 310 310 311 311 311 312 312 312 311 311 311 312 311 311 312 312 312 313 313 314 313 313 313 313 312 312 312
301 300 301 301 302 301 303 305 308 310 315 311 310 311 311 310 311 311 310 310 310 311 311 311 310 310 311 311 311 311 311 312 312 313 315 313 314 314 313 312 312 313 312 312 312
300 301 302 302 303 303 302 306 309 317 308 310 310 312 311 310 312 312 312 312 313 314 313 312 312 311 310 311 311 311 313 315 315 315 314 311 313 313 312 312 312 312 311 312 312
300 303 303 302 303 304 304 303 314 311 311 309 310 312 313 311 312 311 313 313 311 312 313 314 315 312 312 312 312 312 312 314 314 313 311 311 313 313 312 312 312 311 310 312 313
302 304 304 302 302 304 306 309 313 310 309 309 310 311 311 311 311 311 312 312 312 312 313 314 312 309 311 311 311 311 313 311 313 312 312 310 311 312 312 311 311 311 312 313 313
304 304 303 302 302 303 306 310 309 309 309 310 311 309 310 311 311 311 311 311 311 312 311 311 314 308 309 310 310 311 310 311 313 312 314 313 313 313 312 311 311 311 313 312 313
302 304 304 303 303 302 309 310 309 309 309 310 310 310 310 310 310 311 312 310 310 311 311 310 310 310 308 310 311 310 311 311 311 313 314 315 315 312 310 310 310 313 312 312 314
302 304 303 305 305 302 310 308 309 309 310 310 310 311 310 311 311 312 312 311 308 310 312 310 310 311 310 310 309 310 311 310 314 314 313 314 315 311 310 311 313 312 310 312 314
303 300 306 306 308 308 308 310 310 311 310 310 311 311 311 311 313 311 311 309 308 309 310 310 310 313 314 312 309 310 311 311 312 312 314 316 315 311 311 312 311 310 310 311 313
301 305 304 305 306 309 310 311 312 310 310 310 311 311 312 312 312 312 312 310 308 309 309 309 312 313 316 313 313 314 313 312 311 314 314 315 313 312 310 311 311 310 310 313 314
300 303 305 308 307 309 310 310 311 311 310 310 311 311 312 313 312 312 311 311 309 308 309 309 314 311 312 312 312 314 314 313 313 312 314 314 314 313 312 311 310 310 311 314 313
300 301 304 307 307 309 310 311 311 311 311 311 311 311 310 312 312 312 311 311 312 311 310 310 313 313 314 313 314 316 316 317 317 317 314 314 314 312 312 310 311 312 312 313 314
302 302 303 307 308 310 310 311 311 311 310 310 311 311 311 311 311 310 310 311 311 313 311 312 311 314 315 315 316 322 320 318 317 313 314 316 313 312 312 313 311 312 313 314 312

GFSSW_850_thetae_045.txt.gz
Theta_e
316 317 315 315 316 317 316 314 312 305 309 310 308 306 315 319 317 318 322 323 323 320 319 321 320 320 320 321 322 325 327 325 324 323 323 323 323 323 323 323 323 323 324 328 329
313 314 315 315 316 316 317 315 313 306 309 308 306 305 310 319 321 319 320 323 322 321 321 321 320 320 320 321 322 325 324 323 322 322 323 323 323 323 324 323 323 324 324 326 328
306 311 313 314 314 316 316 316 313 309 308 307 306 305 308 317 321 322 322 323 322 321 324 322 322 320 320 320 322 324 324 322 322 324 324 323 323 323 324 325 323 323 325 326 328
305 306 308 312 313 314 316 317 314 312 307 306 306 306 305 318 320 321 321 323 323 323 324 323 322 321 322 322 320 323 322 322 323 324 324 325 324 324 323 323 323 324 326 326 326
303 304 306 306 310 313 315 315 315 313 308 307 308 308 306 316 317 316 317 319 322 323 324 323 322 322 322 321 321 322 322 321 321 322 322 322 323 323 324 324 323 323 325 326 326
303 304 305 304 306 311 313 315 316 313 309 308 309 308 311 312 311 315 314 315 319 321 323 322 322 322 321 321 321 320 320 320 320 320 320 321 320 320 320 320 321 322 323 323 325
303 302 303 302 303 306 310 314 315 314 310 309 310 309 313 313 310 310 313 316 319 320 323 322 321 320 320 320 319 319 321 320 319 319 320 319 320 321 319 319 320 320 320 320 321
303 302 302 302 303 303 308 312 314 315 311 310 311 312 313 312 311 309 312 315 319 320 320 320 320 319 318 318 317 318 319 320 320 319 318 318 321 320 319 320 320 320 319 320 320
302 302 302 300 302 303 305 310 314 316 310 311 312 313 314 312 311 311 310 313 317 319 321 320 319 318 317 317 317 318 320 320 320 318 318 319 321 320 320 320 319 320 319 319 320
301 301 300 299 301 302 304 307 313 315 310 313 313 312 311 312 312 311 311 312 315 315 317 316 316 316 316 317 320 319 319 318 318 318 317 318 318 318 318 318 319 319 320 320 320
301 300 299 301 301 301 303 306 312 312 313 312 313 312 312 311 310 311 311 312 313 314 316 314 315 317 317 316 317 316 317 318 318 317 316 316 316 316 316 315 316 316 316 317 318
300 300 300 301 301 301 303 303 305 309 311 311 311 312 312 311 312 311 311 312 313 316 314 314 316 315 315 315 316 316 317 317 316 315 314 315 315 315 316 316 315 315 315 315 315
300 300 300 300 301 301 304 304 304 308 310 311 312 311 312 312 312 311 311 312 313 314 314 316 315 313 314 314 315 315 316 316 316 315 314 315 316 317 318 317 316 315 315 315 315
300 300 300 301 301 304 304 305 304 307 311 311 311 311 312 312 313 312 311 312 313 314 314 315 313 312 313 314 314 315 314 314 314 315 318 314 319 316 316 317 316 315 315 315 314
299 300 301 301 302 302 304 304 303 305 319 312 311 310 312 312 312 312 311 311 313 313 313 315 313 313 313 313 313 314 312 313 313 313 313 315 316 316 315 315 315 316 315 314 314
300 300 300 302 302 302 303 302 304 307 319 312 310 310 312 311 312 312 311 311 311 312 312 313 312 312 313 312 312 312 312 312 312 313 317 315 316 316 314 314 314 314 314 314 313
300 300 300 301 302 303 303 304 307 311 310 311 311 311 312 311 312 312 312 312 313 314 313 313 312 311 311 312 312 312 313 317 318 316 316 313 314 314 314 314 313 314 313 312 312
300 303 304 305 303 302 303 304 311 313 312 310 312 312 312 311 312 312 312 312 312 312 314 314 317 313 312 312 313 313 313 316 318 317 315 313 313 313 314 313 313 313 313 312 312
302 303 303 304 303 303 303 307 313 313 310 312 312 313 313 311 313 313 313 313 312 312 316 315 315 311 313 312 312 313 314 312 313 312 313 312 312 313 313 314 313 313 312 312 312
302 303 305 304 304 304 306 308 310 310 310 312 312 311 313 312 313 312 313 313 312 312 312 313 316 311 311 311 312 312 312 312 313 314 315 314 315 316 315 315 314 312 312 312 313
303 303 304 304 303 304 308 310 310 309 310 312 311 311 311 312 312 312 313 312 312 312 312 312 312 311 310 311 313 312 312 312 312 313 315 317 316 316 314 313 312 312 312 313 312
302 305 305 303 305 305 309 310 310 310 311 311 311 311 311 311 312 313 313 313 311 312 312 311 312 313 312 311 310 311 312 311 313 315 314 315 316 313 313 312 312 312 312 312 311
302 301 305 304 310 309 309 310 311 310 311 312 312 312 312 312 313 313 313 311 310 312 313 311 312 314 316 312 311 311 311 311 312 313 315 316 316 313 313 313 311 312 311 311 310
301 306 304 305 307 309 310 311 312 311 311 312 313 312 313 313 313 313 313 311 310 310 309 310 312 314 318 316 313 314 313 313 312 315 315 316 315 314 314 314 313 311 311 311 311
300 303 303 309 309 310 311 311 312 312 311 312 312 313 313 314 314 314 313 312 311 310 310 310 313 313 313 312 312 314 315 315 315 314 314 314 315 315 315 315 313 312 311 310 313
301 302 303 308 308 310 310 313 312 311 311 312 313 312 312 313 313 314 313 312 313 311 311 310 313 312 313 313 314 317 316 317 318 318 317 317 316 314 314 313 313 311 311 312 312
301 302 303 308 309 310 310 311 311 312 311 311 312 312 312 312 311 311 312 312 313 313 312 312 312 314 315 315 316 321 320 319 318 317 317 317 316 314 313 313 313 312 312 313 313

GFSSW_850_thetae_048.txt.gz
Theta_e
306 311 312 314 316 316 316 317 317 314 310 306 310 309 307 314 318 318 317 321 323 322 319 323 321 321 321 321 321 322 324 325 324 323 323 322 323 323 323 323 323 324 324 328 336
305 305 307 310 312 314 315 316 317 315 313 306 309 307 306 312 318 321 316 322 325 323 320 322 321 320 321 321 321 323 326 327 324 321 322 323 323 323 323 322 322 323 323 326 327
305 305 305 307 309 311 313 316 318 316 313 308 308 306 305 311 318 319 320 320 322 323 320 322 321 320 320 321 322 322 324 323 321 321 324 324 323 323 323 323 324 323 323 325 327
304 304 304 304 305 308 310 314 316 318 314 311 307 306 305 315 318 321 322 320 321 322 323 324 322 321 321 320 320 322 322 322 322 322 324 324 324 324 323 323 323 323 323 326 326
304 304 304 303 305 305 307 310 314 317 316 312 307 308 305 315 317 319 316 320 323 323 323 324 321 321 322 321 320 320 320 321 322 321 321 323 323 323 323 323 323 323 323 325 326
304 304 304 303 303 304 305 307 311 314 317 312 307 308 307 311 313 316 313 316 320 323 323 323 323 322 321 321 321 321 321 321 321 321 321 320 320 321 320 321 321 322 323 323 324
301 301 303 303 303 303 304 305 310 314 317 313 308 309 312 312 311 311 313 314 319 319 323 323 322 321 321 321 320 320 320 320 320 320 320 320 320 319 319 320 320 320 320 321 322
302 301 301 302 302 302 301 303 305 312 314 314 309 310 313 313 313 311 311 314 316 319 322 322 322 320 320 318 318 320 320 320 318 319 319 319 319 318 319 319 319 319 320 320 320
302 302 301 301 301 301 301 302 303 308 313 314 311 312 313 313 313 312 311 314 318 319 319 321 320 319 318 318 318 317 318 319 319 318 318 318 319 318 319 320 320 320 320 320 320
301 301 300 301 300 300 302 302 302 304 310 313 312 313 312 313 312 312 311 314 318 319 320 319 319 318 317 317 318 318 317 317 317 318 317 317 317 316 317 317 318 320 320 320 320
300 300 301 299 300 301 301 303 306 308 310 313 313 313 312 313 312 312 311 313 315 318 318 318 318 318 317 317 316 316 317 317 317 316 315 314 314 314 315 315 315 316 317 318 319
300 299 300 300 300 301 301 303 304 305 307 311 313 313 312 311 312 312 312 313 315 315 315 315 315 315 315 316 316 316 316 316 315 315 314 313 314 313 314 314 314 314 315 315 316
299 299 300 300 301 301 303 303 305 303 303 310 313 312 311 312 312 312 312 313 314 315 315 315 314 314 314 315 315 315 315 315 315 314 313 313 314 314 315 314 314 315 315 315 315
299 299 300 301 301 303 302 304 305 302 308 311 313 312 312 312 313 312 313 313 313 315 313 314 314 312 313 315 314 315 314 314 314 314 315 312 315 313 313 313 314 315 316 316 315
299 300 300 300 301 302 303 303 303 303 311 312 312 312 312 312 313 312 312 312 314 314 314 315 314 313 313 314 313 314 313 313 313 312 311 313 312 313 314 313 313 312 315 315 315
300 300 300 299 300 301 302 304 303 306 311 313 310 313 313 313 313 311 312 311 312 312 313 314 312 313 313 312 312 312 312 312 312 312 314 312 313 313 313 312 311 310 314 315 314
300 301 302 303 302 300 302 303 306 309 309 313 312 313 312 313 313 312 313 312 313 313 314 312 312 311 312 313 312 312 312 313 316 314 311 313 314 313 312 312 312 311 313 313 312
300 302 303 303 303 302 303 304 308 312 312 310 311 312 312 312 313 312 313 313 312 311 314 313 314 313 312 312 313 313 313 313 315 315 315 312 312 310 311 312 313 313 313 313 312
302 303 304 303 304 302 303 305 309 313 310 313 312 314 312 312 312 312 312 311 311 311 315 314 316 313 312 312 312 313 313 312 312 311 308 310 309 309 310 310 310 312 312 312 312
302 303 305 303 303 303 305 308 308 307 310 312 313 313 313 312 313 313 313 311 311 312 311 314 315 312 313 312 312 311 311 311 309 307 310 312 311 312 313 312 311 310 311 312 312
302 303 304 303 303 304 307 309 308 308 311 312 311 312 311 312 312 312 312 312 311 311 311 312 313 311 311 311 312 312 313 311 310 310 309 312 312 312 312 311 310 309 311 311 312
302 303 304 303 304 303 309 308 308 310 311 311 311 311 311 311 312 311 312 313 311 312 312 311 312 314 311 310 310 312 311 310 307 307 309 309 313 312 310 312 312 311 312 311 312
302 302 304 304 305 305 308 310 308 311 312 312 312 311 311 311 312 313 312 311 312 312 312 311 312 311 313 311 311 310 311 311 310 310 310 313 312 311 311 311 312 312 313 312 311
302 305 304 303 305 308 309 309 312 311 313 313 312 312 311 313 313 314 312 311 311 312 310 310 312 310 312 314 313 310 311 310 311 313 312 313 312 311 312 314 314 313 313 313 311
302 303 304 308 308 309 310 310 311 312 312 312 313 313 312 313 313 313 312 312 311 310 310 311 311 311 312 312 311 311 312 312 313 312 313 312 314 314 315 314 312 313 312 311 311
302 301 302 307 308 310 311 311 312 312 312 312 314 313 313 313 314 313 312 312 312 310 311 310 311 312 309 311 311 312 312 313 314 315 316 317 318 315 314 313 313 313 313 312 311
301 302 303 308 309 311 311 311 312 311 312 312 312 312 313 312 311 312 312 312 312 311 311 312 311 312 314 313 314 317 316 316 319 318 318 319 317 315 315 315 313 312 312 313 312

GFSSW_850_thetae_051.txt.gz
Theta_e
305 306 306 306 307 311 312 314 316 318 316 314 309 307 309 307 309 316 318 313 318 322 321 319 319 320 320 320 320 321 319 321 323 322 321 322 319 323 323 323 323 323 328 336 338
305 305 305 305 305 307 309 311 314 317 317 315 313 306 307 306 308 316 314 316 321 319 323 321 322 320 321 320 321 318 320 322 321 320 319 322 322 322 322 322 322 323 327 335 334
305 305 305 304 305 305 306 308 311 315 318 316 314 307 306 306 313 310 312 316 323 323 322 321 321 320 320 320 320 319 320 322 323 323 322 323 322 323 321 321 321 322 322 326 325
305 305 304 304 304 304 304 305 307 312 316 318 315 308 306 309 315 320 320 317 321 322 322 320 322 322 318 318 320 320 320 321 321 321 322 323 324 323 323 322 322 323 323 323 327
304 305 304 304 304 304 303 304 307 309 314 316 315 308 308 310 313 317 318 320 322 322 321 323 324 322 319 318 319 317 318 320 321 321 320 321 322 322 322 323 323 323 323 323 325
303 303 303 303 303 303 303 303 304 305 311 315 316 308 309 312 310 315 316 314 321 321 322 323 323 321 321 321 320 320 319 319 319 319 319 319 319 320 320 322 322 322 322 323 322
303 303 303 301 302 302 303 302 303 303 308 313 315 309 310 309 311 313 315 314 318 322 323 322 323 322 322 320 319 320 319 318 318 319 318 319 318 318 320 320 320 320 320 322 322
302 301 302 301 300 301 301 302 303 303 303 310 314 310 310 310 311 311 311 315 318 320 319 322 323 321 320 318 318 319 318 320 318 318 318 318 319 317 318 318 318 319 319 319 320
301 301 301 300 300 301 300 300 302 301 302 305 312 309 310 311 312 312 311 314 318 319 320 321 321 319 319 319 319 316 316 318 318 316 318 317 318 317 317 317 316 317 318 319 319
301 300 300 300 299 299 300 301 300 302 302 303 310 309 311 312 312 313 311 314 318 319 320 320 319 317 315 317 319 316 316 315 315 316 316 316 315 314 318 316 315 316 318 319 319
300 299 299 299 300 300 301 301 302 305 306 310 312 312 313 312 313 312 312 314 318 319 319 319 319 317 315 314 315 315 315 315 314 314 313 313 313 312 312 314 313 314 315 316 318
299 299 299 299 300 301 301 301 301 303 304 307 311 311 312 312 312 311 313 314 317 319 315 316 317 316 315 315 316 315 314 315 314 313 312 311 312 312 311 312 313 313 313 314 315
299 298 299 300 300 301 302 302 303 304 303 305 307 312 312 312 312 312 311 314 314 315 315 314 313 313 313 314 315 314 314 314 313 312 311 310 311 311 312 311 312 313 313 313 314
299 300 300 301 300 301 302 301 303 303 307 310 309 311 311 312 313 312 312 314 314 315 314 314 313 313 313 314 313 314 312 313 313 312 313 310 313 309 311 310 311 312 312 313 313
300 299 300 301 301 300 302 303 302 302 306 310 309 312 311 313 312 312 312 313 313 314 313 313 313 313 313 313 313 313 311 311 311 310 308 310 310 309 309 312 311 310 311 314 316
299 300 300 301 302 301 301 301 303 302 304 312 311 313 312 312 312 312 312 312 312 313 312 312 312 311 312 311 311 311 311 311 311 309 309 309 310 309 311 311 310 309 312 313 314
299 301 302 302 303 302 300 303 299 299 306 311 311 312 313 313 312 312 313 312 311 313 313 312 312 311 311 311 311 311 309 305 315 313 309 310 311 309 310 310 310 309 311 313 312
302 302 303 303 303 302 301 303 301 307 308 312 313 312 314 312 312 313 312 311 310 310 308 308 311 311 310 311 311 311 310 305 309 309 312 310 312 310 308 310 311 312 313 312 312
302 303 304 302 303 303 302 305 304 308 309 312 312 313 314 312 312 312 312 310 310 309 310 310 312 311 310 311 311 312 310 309 307 308 304 308 307 306 307 308 307 310 310 311 311
303 303 303 303 303 302 302 306 307 305 305 311 314 312 313 313 312 312 312 310 310 309 310 313 313 312 312 311 312 310 309 308 301 303 307 309 308 309 311 309 308 307 309 312 312
302 303 303 302 302 303 303 307 306 304 309 312 312 312 310 313 311 311 311 311 309 309 310 311 310 312 312 312 311 312 313 309 306 305 305 309 309 307 310 310 310 309 310 311 312
302 303 303 303 301 302 307 308 303 307 310 312 310 309 309 312 311 312 311 311 310 310 311 311 312 310 308 308 309 309 310 309 301 302 302 308 310 308 309 308 309 311 313 313 313
302 303 303 304 302 303 307 306 305 311 313 312 311 310 310 311 311 311 311 310 310 311 311 310 311 310 313 311 311 310 311 309 307 305 302 307 309 308 307 309 310 313 313 312 312
302 302 303 303 304 307 308 308 309 310 312 312 311 310 311 312 311 313 311 311 311 312 311 310 311 305 308 310 310 308 309 308 310 308 309 308 309 310 309 311 312 313 312 312 312
303 304 303 307 306 308 308 309 311 313 312 311 311 312 313 313 313 312 311 310 310 310 310 309 306 309 309 310 311 310 309 309 306 309 311 311 311 310 312 313 314 314 312 313 313
303 302 302 303 307 309 309 310 312 312 311 312 312 313 311 312 312 312 311 310 311 309 308 308 306 310 306 309 311 311 310 310 311 311 311 311 313 313 314 315 315 312 312 313 313
302 303 303 305 309 309 309 310 312 311 311 311 310 312 312 311 310 311 311 310 309 309 310 310 308 308 308 311 311 311 312 312 311 312 314 317 317 317 317 315 311 311 311 311 310

GFSSW_850_thetae_054.txt.gz
Theta_e
307 307 306 305 305 305 306 307 309 312 316 319 316 314 307 308 308 307 314 312 309 321 321 321 323 322 319 320 320 320 318 320 321 319 319 320 321 322 322 321 322 324 326 326 335
306 307 306 306 305 305 304 306 307 308 313 318 318 315 309 307 308 306 309 312 314 320 321 319 322 319 321 320 320 318 317 320 319 319 320 320 322 322 321 321 321 325 330 335 338
306 306 306 306 305 306 305 305 306 306 310 315 317 316 311 307 309 308 309 310 314 321 321 321 322 321 320 320 320 317 319 319 321 322 322 322 321 322 321 320 319 323 337 338 338
306 305 304 304 305 304 304 304 304 304 307 311 315 317 310 307 311 320 319 311 316 320 319 323 321 321 318 319 320 319 318 320 320 321 320 320 322 322 322 322 322 322 323 330 338
305 305 304 303 303 303 303 304 304 304 304 308 312 315 310 309 309 318 318 317 321 323 322 321 321 322 318 317 318 317 318 319 320 320 319 319 320 321 322 323 323 323 322 322 322
304 303 303 303 303 302 302 303 303 303 304 305 310 314 311 311 310 308 315 319 319 322 322 321 320 321 320 319 317 318 318 318 318 318 319 318 318 319 320 322 322 322 322 321 322
304 302 302 301 302 301 301 303 303 302 303 302 308 311 312 310 309 314 314 314 317 319 322 321 322 321 321 320 319 319 320 318 318 318 318 319 319 316 319 320 320 321 321 321 320
302 302 302 301 300 300 300 301 301 302 301 300 304 309 312 313 311 316 315 315 317 321 321 321 322 321 320 318 317 318 317 320 318 318 318 318 320 317 319 319 319 319 318 318 318
301 301 300 300 300 300 300 300 301 301 299 301 305 307 311 312 309 311 311 315 318 319 319 322 322 321 320 317 318 315 317 317 317 316 317 316 318 316 318 317 317 317 318 318 318
301 300 299 299 299 299 300 300 301 301 300 302 303 308 310 311 310 311 312 313 317 319 319 321 321 319 318 319 321 317 317 315 315 313 315 315 316 314 316 315 316 317 317 316 317
299 299 299 299 299 300 301 301 301 303 304 304 307 309 311 312 311 311 312 313 318 319 320 320 319 320 316 318 314 315 315 314 313 313 312 311 311 311 312 312 312 313 314 315 317
299 298 298 300 300 300 302 301 302 302 303 303 304 309 312 312 312 312 312 313 317 318 316 318 319 316 316 315 316 316 315 314 312 312 312 310 310 310 311 311 312 313 313 313 314
299 300 300 300 300 300 301 302 301 302 303 303 306 306 311 312 312 312 311 315 317 317 316 317 317 314 313 314 316 313 313 313 314 311 310 309 310 310 309 310 311 312 312 312 313
300 300 300 300 301 301 300 302 302 302 304 305 305 305 311 312 312 312 311 315 314 317 315 315 313 314 314 314 312 314 311 312 312 311 311 309 311 309 309 308 308 310 311 312 313
299 299 300 300 302 301 302 300 302 301 298 308 305 305 312 312 312 311 312 313 314 314 314 313 312 313 313 313 311 312 310 311 310 309 308 309 310 308 308 311 311 310 309 312 313
299 300 302 303 303 302 302 301 302 297 300 309 308 310 312 312 312 311 312 312 313 313 312 311 311 311 311 311 311 310 310 309 309 306 303 308 310 309 309 310 310 308 311 312 313
299 302 303 302 302 303 300 302 299 300 305 310 309 312 312 312 312 312 313 312 313 314 314 312 311 310 311 311 310 309 306 302 303 303 307 308 309 309 308 309 309 308 310 310 311
302 303 303 302 303 302 300 302 302 306 306 304 312 313 315 312 313 313 312 311 310 309 309 311 312 311 310 311 311 309 307 304 306 310 310 308 311 310 308 307 307 309 310 311 311
302 302 303 303 303 301 302 301 304 306 306 309 313 314 313 312 313 312 312 311 310 309 310 309 310 310 309 310 309 312 308 307 305 302 302 306 305 304 307 306 306 308 310 311 312
302 303 303 303 302 301 301 305 307 306 303 310 313 312 312 312 313 312 311 309 310 308 309 309 309 312 311 311 311 309 308 308 298 300 305 307 307 307 309 310 308 307 309 312 313
302 303 302 302 302 303 303 305 306 304 303 311 311 311 310 310 311 311 311 310 308 308 310 311 307 313 312 311 310 311 310 306 304 303 303 307 308 305 308 309 308 307 310 312 313
301 303 303 303 300 301 305 307 303 305 310 312 309 310 310 309 310 310 310 310 309 308 310 310 308 311 312 309 309 309 309 306 301 300 298 307 307 307 306 307 307 309 311 313 314
302 303 303 303 304 304 305 306 304 309 312 313 310 309 309 309 311 310 309 310 309 309 310 309 309 308 310 309 310 309 309 308 304 302 300 304 307 306 305 309 309 310 312 314 313
302 301 303 303 304 306 306 306 310 309 311 311 309 309 309 311 310 310 311 311 310 310 310 310 308 304 307 307 307 305 309 308 308 304 305 305 307 308 308 310 311 313 314 314 313
302 303 303 305 306 307 308 310 313 313 310 310 310 311 312 313 311 311 310 311 310 311 310 308 306 306 307 309 310 310 308 307 307 309 306 309 308 308 309 310 312 315 312 312 313
303 303 302 304 307 308 309 311 312 311 311 311 312 312 311 312 311 312 310 309 310 308 310 307 305 308 305 308 309 309 310 309 308 308 309 309 309 309 310 315 315 311 309 310 309
301 302 302 305 306 309 309 310 311 311 311 311 312 312 311 310 309 310 310 309 308 308 308 309 306 308 307 309 310 309 310 310 309 308 311 312 311 313 316 316 310 305 305 305 305

GFSSW_850_thetae_057.txt.gz
Theta_e
307 307 307 307 306 306 306 306 306 305 308 312 317 317 317 315 308 308 310 309 310 317 321 320 322 322 321 319 319 319 317 319 318 318 319 318 320 321 321 320 320 321 324 328 330
307 307 307 306 307 306 306 306 306 305 307 310 314 316 318 315 311 311 307 308 310 319 323 321 321 322 320 319 319 317 316 318 318 317 319 319 320 321 321 320 320 324 327 332 334
307 306 306 306 306 305 305 306 305 305 305 305 313 316 316 316 310 311 309 307 309 315 322 320 322 321 319 319 319 317 317 317 320 321 321 320 320 322 321 320 319 321 334 336 338
305 305 305 306 304 303 304 304 304 305 306 304 307 314 314 314 310 318 318 314 308 316 322 321 322 321 318 319 319 319 317 319 319 320 320 319 320 321 322 321 321 322 328 335 338
305 305 304 303 303 303 303 303 303 304 304 304 304 310 312 312 311 317 317 319 309 318 321 322 323 321 318 317 317 317 317 319 319 320 319 319 318 319 321 321 321 322 322 323 326
304 303 303 303 302 302 302 301 304 303 304 303 304 306 310 312 314 314 309 320 312 320 321 321 323 321 320 317 318 318 318 318 318 318 318 318 317 319 319 320 321 321 321 322 322
303 303 302 301 302 301 301 301 302 303 303 303 305 306 308 312 312 310 308 317 315 321 320 321 321 321 321 319 319 319 319 317 317 318 317 318 318 316 319 320 320 320 319 320 320
302 301 301 300 300 300 300 300 302 301 302 303 304 305 308 311 313 312 314 315 317 318 320 320 321 321 320 318 317 317 317 319 317 317 317 318 319 316 318 319 319 319 320 320 319
301 300 300 300 300 300 299 300 300 300 302 302 303 303 309 311 312 313 316 315 317 317 318 320 320 321 319 317 316 315 317 317 317 316 317 316 317 316 317 317 317 318 318 317 317
301 301 300 300 299 299 300 300 300 300 301 301 302 305 306 310 312 313 315 314 315 318 319 321 321 322 320 319 322 317 317 315 316 314 314 315 314 314 316 315 315 316 317 317 317
300 300 299 300 301 301 301 301 301 302 303 302 303 303 310 310 311 312 312 312 315 318 320 320 319 322 321 319 314 314 315 315 313 312 312 311 310 310 311 311 311 313 316 316 317
301 301 300 300 300 301 300 300 301 301 301 302 302 304 305 311 312 311 311 312 315 320 318 319 320 318 318 319 317 316 316 315 313 311 311 310 309 310 310 311 312 312 313 314 314
300 299 300 300 300 301 301 301 302 302 303 302 303 303 306 311 312 312 311 312 317 318 317 319 317 315 315 315 316 315 314 313 313 311 308 308 309 309 309 310 311 311 312 312 313
300 300 300 300 300 302 301 301 300 302 302 303 305 305 306 311 312 312 311 315 316 317 316 315 313 314 313 314 313 314 311 312 311 311 312 308 310 308 308 307 307 309 311 310 311
299 297 298 300 303 301 301 300 300 302 295 305 303 304 307 312 311 311 312 314 315 315 314 316 313 315 315 313 311 312 310 310 309 308 308 309 310 308 306 310 309 307 308 309 310
300 303 303 304 302 301 301 300 301 296 301 307 305 304 306 311 311 311 312 312 314 313 312 311 311 311 311 311 311 309 308 307 306 305 304 307 309 307 308 309 307 307 307 309 310
303 303 303 302 303 302 300 302 297 296 304 308 307 304 311 312 312 312 313 313 315 315 315 312 311 310 310 310 310 308 307 305 304 303 306 307 309 308 308 307 308 306 308 311 312
302 303 303 302 302 301 301 298 301 305 306 304 307 309 314 313 313 313 312 312 309 310 311 311 314 310 309 310 311 309 307 305 305 307 309 307 310 309 306 305 306 308 310 312 313
302 303 303 303 302 300 301 300 303 307 305 305 310 313 314 313 314 312 312 311 310 309 311 308 308 309 309 309 309 310 306 306 305 301 302 306 304 303 307 306 306 308 310 312 313
302 302 302 302 301 302 301 303 307 305 302 305 314 311 313 315 315 312 312 310 310 308 308 308 310 311 310 311 309 309 307 307 299 303 306 306 305 305 308 308 307 305 308 311 313
302 302 302 303 303 302 303 304 305 302 304 311 310 310 309 312 311 311 311 309 308 308 309 308 308 314 312 312 311 309 307 304 304 303 305 307 305 303 306 308 307 305 309 311 313
302 296 303 303 300 300 303 305 303 306 309 311 309 309 309 310 310 310 310 309 308 308 309 309 308 314 313 309 308 308 308 305 302 302 298 305 305 306 306 305 307 308 311 314 315
302 302 302 303 302 304 306 307 306 309 311 312 309 309 309 309 310 309 308 308 308 308 309 308 306 303 311 310 309 309 308 304 302 299 297 302 305 304 303 305 308 310 312 315 313
302 299 302 304 304 306 306 309 311 308 308 309 308 308 309 310 308 310 310 310 308 309 310 308 306 303 306 307 306 304 308 306 308 304 304 304 305 306 306 306 308 310 314 313 312
302 301 303 305 304 307 309 311 311 310 309 309 310 310 311 311 310 310 310 309 309 312 309 307 306 305 307 308 309 307 308 307 306 307 304 307 307 307 308 308 309 312 312 310 309
302 302 303 304 307 307 309 310 312 311 310 311 311 310 310 311 311 310 309 309 310 308 309 306 305 306 304 307 308 309 309 307 308 308 308 309 309 309 309 309 315 312 308 306 305
301 302 302 303 302 308 308 309 310 310 311 311 311 310 310 309 309 309 309 308 308 307 308 309 305 306 304 307 309 309 309 309 308 307 309 310 310 310 312 315 314 309 304 303 302

GFSSW_850_thetae_060.txt.gz
Theta_e
306 308 308 308 308 308 307 307 306 306 306 305 305 313 316 317 317 315 312 307 307 314 316 316 322 322 322 321 319 318 316 317 318 318 318 317 317 319 320 320 320 320 321 327 330
307 306 307 306 306 307 307 306 306 306 305 306 305 310 314 317 317 317 316 313 307 310 319 321 320 322 323 320 318 316 316 317 316 315 317 318 319 320 321 319 320 320 326 326 331
307 306 306 305 306 305 304 304 304 304 305 305 306 306 310 313 315 316 316 315 312 308 319 322 321 322 320 319 318 317 317 316 319 319 320 319 320 321 320 320 319 320 328 333 337
306 305 305 305 304 303 303 303 305 304 304 305 304 304 307 310 315 315 316 318 309 308 320 321 321 320 318 317 318 318 316 317 318 319 320 319 319 319 320 320 321 321 322 331 337
304 304 303 304 303 303 302 303 303 302 304 304 304 304 305 310 313 315 314 319 317 312 319 321 321 320 319 318 317 317 317 318 319 319 319 319 318 318 319 320 321 321 321 322 327
304 303 303 302 302 302 302 302 301 303 303 303 303 304 304 309 311 314 314 313 319 315 319 321 321 320 319 317 317 317 318 318 318 318 317 317 317 317 318 319 319 320 320 320 321
303 303 301 300 301 302 301 301 301 301 301 302 303 303 304 307 311 310 313 314 316 316 320 321 321 320 319 318 318 318 317 316 316 317 317 317 316 315 318 318 319 319 319 320 320
302 301 301 301 300 301 301 301 301 301 302 302 302 303 304 304 309 312 314 310 316 317 320 320 321 320 319 318 316 317 317 320 317 316 317 318 317 315 317 318 318 318 318 318 319
301 300 300 300 300 300 300 301 301 301 302 302 303 302 303 305 309 313 314 316 316 317 318 318 319 320 320 315 317 317 317 318 318 316 316 316 317 315 316 315 316 317 317 317 318
300 302 301 301 300 301 301 301 300 300 301 302 302 302 301 307 309 311 313 313 316 317 318 319 320 320 319 318 319 319 317 316 317 314 314 315 313 313 315 315 314 316 316 316 316
302 301 301 300 300 301 301 300 301 301 302 301 301 301 303 307 311 311 314 312 315 318 320 319 320 323 320 319 315 314 314 315 313 312 312 311 309 309 310 310 309 312 314 316 317
301 300 300 300 300 301 301 301 301 301 301 301 301 302 302 304 311 311 313 311 314 318 318 316 314 318 320 318 315 315 315 315 313 311 311 310 309 309 310 310 311 312 313 314 314
300 301 300 300 301 300 300 301 301 300 301 301 302 302 303 303 309 312 310 311 315 317 318 318 314 318 319 318 318 316 315 314 314 310 308 307 309 308 308 309 310 311 311 311 309
299 300 301 302 300 300 301 300 301 302 302 301 303 304 302 304 312 312 311 313 315 317 316 316 315 319 318 318 316 315 312 312 311 311 313 307 312 308 307 306 306 307 307 308 308
303 303 303 302 303 301 301 301 300 301 297 302 303 303 306 306 312 310 311 313 316 316 316 315 315 315 317 315 312 312 310 309 308 308 308 309 310 308 306 309 305 303 308 311 312
302 302 302 301 302 301 302 300 301 299 301 304 304 305 306 307 311 309 312 313 313 314 312 312 311 311 311 310 310 308 307 306 304 305 303 307 308 306 307 307 307 305 309 311 313
302 302 302 302 302 302 300 301 298 301 303 304 304 304 305 312 312 312 313 314 315 315 315 312 311 309 310 310 309 308 308 303 302 303 306 307 308 307 306 307 307 306 309 312 314
302 302 302 302 301 300 301 297 300 305 307 305 306 306 311 313 312 313 313 313 310 311 311 310 313 311 309 310 310 308 308 306 304 306 308 306 309 308 304 303 307 308 309 312 314
301 300 302 301 300 301 301 301 305 305 305 306 307 311 314 313 313 312 312 310 310 309 312 309 311 309 309 309 309 309 305 305 303 300 302 306 305 303 305 306 306 307 311 312 315
302 301 301 301 302 303 302 304 306 305 303 303 313 312 314 313 314 312 312 309 309 308 307 307 309 311 310 310 308 308 305 307 300 305 305 304 304 304 307 308 306 305 308 311 315
301 302 301 303 303 301 303 305 304 304 302 310 309 310 311 311 311 309 310 309 308 308 306 307 307 312 311 311 310 309 308 304 303 302 304 307 305 303 304 306 307 305 309 311 315
302 295 302 303 301 300 306 307 304 307 308 308 308 308 308 309 309 309 309 309 308 308 309 308 310 313 312 308 307 308 308 304 303 303 301 303 306 304 304 305 306 307 309 312 315
301 302 303 304 306 306 306 308 307 309 309 309 309 309 308 308 309 308 308 307 308 308 309 308 305 309 312 310 308 309 307 303 301 299 304 303 304 304 303 302 305 307 309 313 313
302 300 303 304 304 307 308 309 309 308 308 307 307 308 309 309 308 309 310 309 308 309 309 307 304 304 307 307 306 304 308 304 303 301 303 302 304 305 305 305 305 307 310 312 310
302 301 303 306 307 307 309 310 310 310 309 309 310 310 310 310 310 310 309 309 309 311 307 307 306 305 306 308 308 307 308 306 304 304 304 305 304 305 306 307 307 308 312 310 306
302 302 302 303 304 306 308 309 310 310 309 310 310 309 309 310 310 310 308 308 310 307 308 305 304 305 304 307 307 308 308 307 307 307 306 307 308 308 308 309 309 313 309 306 304
301 302 302 302 301 305 305 308 309 310 311 310 310 309 309 308 307 308 308 307 307 307 307 307 305 304 304 306 308 308 308 308 307 306 308 308 309 309 310 311 314 309 306 304 302

GFSSW_850_thetae_063.txt.gz
Theta_e
309 308 308 307 307 307 306 307 307 306 306 307 305 306 306 311 314 315 317 316 312 310 316 314 322 323 323 320 318 317 320 320 320 319 319 316 316 317 318 318 319 319 320 323 328
308 308 307 306 305 306 305 304 305 305 306 306 306 306 306 308 312 314 316 316 316 308 316 318 318 323 322 322 318 317 319 319 317 317 317 317 318 320 320 318 319 319 320 322 324
307 305 305 305 305 305 305 304 304 304 304 304 305 305 306 306 310 313 314 315 316 315 313 318 319 320 322 319 317 316 318 316 318 317 319 319 319 320 320 321 320 319 325 330 330
305 305 305 304 303 304 304 303 304 304 304 304 303 304 305 305 312 313 315 317 317 317 312 318 321 321 321 320 318 317 316 316 317 319 320 319 319 319 320 320 320 321 321 326 334
304 303 303 303 303 303 302 303 303 302 303 303 303 304 305 304 307 314 316 314 316 319 312 319 320 320 320 319 317 317 317 317 318 318 318 318 318 319 319 319 320 320 320 321 324
303 303 303 301 301 302 302 302 302 303 303 303 302 303 304 304 304 310 313 313 313 316 315 319 319 320 319 319 318 317 318 317 317 317 318 317 316 317 318 318 318 319 319 320 320
303 301 301 301 300 300 301 302 302 302 302 302 302 303 303 302 303 308 311 312 313 316 315 319 320 318 318 317 318 316 317 317 317 316 317 317 317 316 317 317 318 319 319 319 319
301 302 301 301 300 300 301 302 302 302 303 302 302 302 302 302 301 307 311 311 313 313 312 319 319 319 319 317 316 318 317 320 318 316 316 317 316 315 316 317 317 317 317 316 317
301 301 301 301 301 301 301 302 301 301 301 303 302 302 302 302 303 303 308 312 313 315 315 315 319 319 317 316 318 318 319 318 319 316 317 317 317 315 315 315 316 316 316 316 316
302 301 302 301 301 301 301 301 300 300 300 301 302 302 301 301 303 303 307 313 315 317 317 317 317 319 319 319 318 319 317 317 318 315 315 316 316 314 315 313 313 314 315 316 316
301 301 301 301 301 301 302 301 300 300 301 300 301 301 303 302 306 307 309 312 314 317 319 316 319 320 319 318 314 315 315 316 314 312 312 312 312 311 311 310 310 312 314 315 316
301 301 302 301 300 301 301 302 300 301 300 301 301 302 301 302 305 310 310 311 315 318 317 316 318 316 318 318 315 315 315 315 312 310 312 310 311 311 311 311 311 311 312 312 312
303 303 303 302 303 300 300 301 301 300 301 301 301 301 302 301 304 311 310 311 314 317 318 316 313 315 319 319 317 315 316 313 314 310 308 308 311 309 308 307 307 307 308 308 309
303 302 302 302 302 301 299 300 300 301 300 300 302 303 302 301 306 310 311 313 314 316 317 314 314 315 316 316 315 319 313 312 311 313 317 308 316 311 307 306 305 307 310 311 311
303 302 301 302 301 301 301 300 300 300 299 302 303 302 304 302 307 312 311 312 314 316 316 314 316 316 313 312 313 315 312 310 309 309 310 310 313 311 306 306 306 306 310 312 312
302 301 302 302 301 301 300 301 300 298 294 304 303 305 305 301 307 310 311 313 313 313 312 312 312 314 312 314 313 308 308 306 305 306 310 307 309 308 308 307 307 307 310 312 313
301 301 302 302 301 300 300 301 299 301 302 301 304 303 304 310 311 312 313 314 315 314 315 311 312 310 310 310 309 308 310 309 308 310 311 306 308 308 306 306 307 308 309 312 314
301 300 300 300 300 300 301 295 302 305 306 306 306 306 308 311 313 313 313 314 310 311 312 314 315 311 309 311 311 308 311 310 308 310 308 306 311 308 304 303 307 307 309 312 315
301 301 301 301 301 302 301 298 302 305 306 306 306 307 313 312 312 313 310 313 310 308 311 310 312 309 309 308 309 309 310 304 303 301 306 307 306 304 305 306 306 307 309 311 315
302 301 301 301 302 302 301 306 306 305 304 304 311 311 313 312 313 312 312 309 310 307 306 307 313 311 309 309 308 308 305 309 303 306 310 305 304 307 306 307 307 306 307 310 314
302 302 303 303 303 302 304 306 305 306 305 309 309 310 309 310 309 309 310 309 308 308 306 306 308 312 311 311 309 309 308 304 304 304 307 308 306 302 306 307 306 306 307 311 313
302 298 305 306 305 302 307 307 306 308 308 308 308 308 308 308 308 308 309 309 308 308 309 307 309 313 312 307 307 307 307 304 305 306 303 305 307 303 303 304 304 305 307 311 313
302 302 305 306 308 307 307 309 308 308 307 308 308 308 306 307 309 307 308 307 308 308 308 307 306 311 312 309 308 309 307 304 302 302 305 306 307 302 303 303 305 305 307 311 311
302 300 304 306 305 308 309 304 308 308 308 307 307 307 308 308 307 308 310 308 308 310 308 306 304 306 309 308 307 305 307 304 304 307 305 304 304 305 306 305 306 307 309 311 310
302 301 303 305 303 305 306 307 309 309 308 308 309 308 309 309 309 309 308 308 308 309 307 306 307 305 306 308 307 307 308 305 303 304 307 306 304 305 305 305 307 308 310 310 308
302 302 302 302 302 303 306 308 309 309 308 309 309 308 308 310 309 309 307 307 308 307 307 305 307 305 305 307 307 308 307 307 306 307 305 305 307 308 308 308 309 312 311 308 305
301 301 302 302 299 304 307 307 308 309 310 310 309 308 308 307 307 307 307 306 306 307 306 306 305 304 305 306 308 309 308 307 307 306 308 309 309 308 309 310 312 310 307 305 303

GFSSW_850_thetae_066.txt.gz
Theta_e
308 308 308 308 307 306 306 306 307 305 306 307 306 305 305 306 306 312 314 317 318 313 315 318 322 323 322 319 318 319 321 321 323 323 322 321 321 320 320 320 319 320 322 326 327
307 307 307 306 306 306 306 305 306 306 306 306 305 306 306 307 306 308 312 315 314 316 316 318 319 322 323 321 318 318 319 319 319 320 320 318 320 320 320 319 320 320 322 324 327
307 306 305 306 305 304 305 305 305 304 304 304 304 304 305 306 307 305 311 313 315 316 316 316 318 322 322 322 319 318 320 319 319 318 319 319 320 321 321 322 321 321 323 332 327
305 304 304 303 303 304 303 303 302 303 304 303 305 304 304 306 307 314 312 312 314 317 318 316 318 321 321 322 320 320 318 318 318 320 320 321 320 321 321 321 321 322 322 325 337
305 304 303 302 302 303 302 301 303 304 303 303 303 303 304 305 306 309 314 314 316 318 318 316 317 320 321 320 321 321 319 318 317 319 320 319 321 320 321 321 321 321 320 321 326
304 303 302 302 301 302 301 302 303 303 304 303 303 302 304 305 304 304 305 310 312 315 319 315 317 319 319 319 320 319 319 318 318 318 319 319 319 319 319 320 320 320 320 320 321
303 303 303 302 302 301 302 303 303 303 303 303 304 303 304 304 303 304 305 308 311 315 317 315 318 318 318 319 319 318 320 319 319 318 318 318 319 319 318 318 318 318 318 319 319
303 302 303 302 302 302 302 302 302 303 303 303 303 303 303 303 302 301 302 306 311 313 318 314 318 318 318 318 319 320 319 321 318 318 318 317 317 317 317 317 317 317 317 317 318
303 302 301 302 302 302 302 302 302 302 303 303 304 303 303 302 303 302 303 306 311 314 316 315 318 318 318 318 320 319 319 318 319 318 317 318 317 316 316 316 317 317 317 317 317
302 302 302 303 302 302 301 302 302 301 301 302 303 303 303 302 303 305 304 307 311 314 317 316 317 320 319 319 320 320 319 318 318 319 318 317 317 317 316 316 317 317 317 317 317
302 303 304 303 304 303 300 301 302 302 302 302 302 302 303 302 303 305 306 307 312 316 316 315 318 320 320 319 317 316 318 317 317 315 320 319 319 318 317 317 316 316 316 316 316
303 303 302 302 302 302 300 301 301 301 301 301 301 302 302 302 303 307 306 311 313 318 315 316 318 316 318 319 317 317 318 317 315 316 315 316 317 316 316 316 315 315 315 315 314
303 303 302 301 301 302 301 301 300 300 301 302 301 301 302 302 303 307 307 310 315 317 317 317 316 316 317 319 319 318 317 317 317 313 313 314 317 317 312 310 309 309 310 310 310
303 302 301 301 301 300 301 300 300 300 303 301 303 303 303 303 305 306 306 312 314 315 314 315 314 317 316 319 319 319 316 317 315 317 320 313 319 314 310 311 311 312 313 312 312
302 301 302 301 301 302 300 300 300 300 304 304 304 302 303 304 303 310 308 313 315 317 315 313 313 313 311 318 317 318 314 315 315 316 316 315 318 314 311 313 313 313 314 313 313
302 301 300 301 300 300 300 300 300 303 305 304 303 306 305 303 304 310 311 313 314 314 312 313 313 313 313 313 313 311 311 311 312 314 320 315 315 313 311 312 313 313 313 314 314
301 301 300 300 300 300 301 301 305 307 303 305 305 305 306 307 309 310 313 315 316 318 314 312 311 311 311 311 311 312 317 319 320 319 318 310 313 313 310 310 313 314 314 314 315
301 301 301 301 301 301 302 302 307 306 306 306 305 305 307 311 311 313 314 315 313 314 316 317 316 311 309 312 313 314 315 318 317 317 314 310 314 312 308 308 310 310 310 313 315
302 301 302 302 302 302 302 308 307 306 306 307 306 309 313 313 313 313 313 313 312 312 316 315 315 310 311 310 311 313 317 309 311 308 313 313 311 309 308 309 310 310 311 314 315
302 302 303 304 303 302 307 308 307 304 304 304 312 313 314 313 314 314 313 311 311 309 309 312 316 312 310 311 309 312 309 314 314 316 315 311 311 313 311 311 311 312 312 313 314
303 304 305 305 306 305 309 308 307 307 305 310 311 312 312 312 312 313 313 311 310 309 309 311 313 313 312 313 313 311 313 310 311 310 313 311 310 311 312 312 311 310 310 312 314
304 311 306 307 309 306 310 308 307 309 308 309 310 311 311 311 311 311 312 311 309 310 312 311 313 315 314 309 309 310 312 311 316 313 310 312 311 308 312 310 308 308 309 312 312
303 304 307 307 309 309 310 310 309 310 309 310 310 310 309 310 312 310 310 308 308 310 311 311 312 313 313 311 310 312 311 308 308 310 313 314 311 307 308 307 308 308 310 312 310
303 308 306 307 306 307 309 311 311 309 310 309 309 310 310 311 310 311 311 310 309 310 308 309 310 313 314 312 312 313 311 309 313 315 312 313 310 309 310 310 311 312 311 312 309
303 303 303 307 309 307 310 311 312 312 310 310 311 311 310 311 311 311 310 310 310 309 309 310 312 309 309 310 310 310 311 309 309 311 316 311 310 311 310 311 312 312 312 311 307
302 303 303 305 304 309 310 311 312 312 312 312 311 310 311 311 310 311 310 310 311 310 310 309 312 310 310 309 309 311 310 310 309 310 310 310 311 311 311 310 310 313 311 308 305
301 302 302 304 307 310 308 308 311 311 311 311 310 311 311 309 308 309 308 308 309 310 310 310 311 312 313 309 310 313 311 310 310 309 310 312 312 311 311 311 311 312 309 306 304

GFSSW_850_thetae_069.txt.gz
Theta_e
308 307 308 307 307 306 307 307 307 306 308 307 307 307 307 307 306 308 309 314 316 317 312 318 319 322 324 324 321 318 322 325 325 325 325 324 325 324 323 323 323 322 322 331 341
307 307 306 306 306 305 305 304 305 304 304 305 305 305 305 305 309 309 308 311 316 317 318 319 317 321 323 322 320 320 321 322 322 324 324 323 323 323 322 321 322 321 322 330 335
306 306 306 306 305 304 304 305 305 305 304 304 305 304 305 305 308 308 309 308 313 317 318 316 317 320 323 322 320 320 320 320 319 320 321 321 320 321 321 322 320 321 321 328 332
305 305 305 304 304 303 303 304 304 304 304 303 303 304 305 306 309 314 308 309 312 316 318 315 315 319 321 324 322 320 319 319 320 320 319 320 319 320 321 321 321 322 324 327 334
304 305 304 304 303 303 302 303 304 304 304 303 304 303 304 306 307 308 308 310 313 316 318 318 314 317 320 320 322 321 320 319 319 320 320 319 320 319 321 322 322 323 322 323 329
304 304 303 303 303 302 302 302 303 303 303 303 303 303 305 306 305 305 306 306 311 315 316 318 315 316 318 319 321 321 320 319 319 319 320 320 320 320 321 321 322 321 322 322 323
303 303 303 303 303 302 302 302 302 303 303 303 303 304 305 305 305 305 304 304 306 312 312 318 316 315 318 319 320 320 321 320 319 319 319 319 320 320 320 320 321 321 320 320 321
303 303 303 303 302 302 302 303 302 302 303 303 303 304 305 304 304 304 304 304 303 306 312 316 317 317 317 318 318 320 319 321 321 319 318 318 319 319 319 319 319 319 319 319 319
303 303 304 304 304 304 303 302 302 302 302 303 304 304 304 304 304 304 304 304 303 309 313 316 316 318 317 320 321 320 322 320 319 318 319 318 317 317 317 318 318 318 318 318 318
302 303 304 303 303 303 303 304 302 301 303 304 304 304 304 303 304 304 304 304 303 307 314 316 317 319 320 320 325 321 320 319 318 319 318 319 319 318 317 317 318 318 318 318 318
302 304 303 301 301 302 302 303 303 303 303 303 303 303 304 303 303 304 305 305 305 309 318 317 318 317 319 318 318 317 318 318 318 318 319 318 318 318 317 317 317 317 317 318 317
303 303 301 302 301 301 302 303 303 302 302 302 302 302 302 303 303 303 306 305 305 310 315 316 318 317 318 317 317 317 317 317 317 317 317 318 318 318 318 317 317 317 316 316 316
304 303 301 301 301 302 301 301 301 300 302 303 303 303 303 303 303 304 307 306 309 315 316 316 315 315 317 318 319 320 318 317 317 317 316 316 317 317 317 316 316 314 314 315 315
303 303 301 301 303 302 301 300 301 300 303 303 304 303 303 303 304 304 307 308 314 315 316 315 315 316 317 318 318 320 317 317 317 317 316 315 316 317 317 314 312 313 314 314 314
302 303 301 301 302 302 300 300 300 302 305 305 304 303 304 304 302 306 308 310 315 313 316 314 317 318 319 316 315 320 317 318 317 318 318 317 318 318 314 314 314 315 315 315 314
302 303 301 302 303 301 301 301 301 306 305 305 305 305 306 304 305 306 309 309 311 312 315 314 313 313 314 313 315 313 317 317 317 319 322 319 318 315 314 315 315 315 315 315 315
303 301 301 301 302 302 302 301 309 309 305 306 307 306 306 309 306 306 309 313 314 315 316 312 312 310 310 311 312 314 318 322 323 321 321 316 316 316 312 314 314 315 315 316 317
302 301 302 302 302 301 302 304 310 307 307 306 307 309 308 308 307 313 315 316 315 315 317 318 316 309 309 312 313 316 317 325 323 322 319 312 317 316 312 311 313 314 315 316 317
303 303 305 304 303 302 304 312 308 306 306 307 308 308 313 313 313 314 313 314 314 314 317 317 316 310 310 311 313 315 317 313 314 313 316 314 313 311 309 311 313 313 313 316 317
304 304 306 305 304 304 309 308 308 306 306 305 313 312 314 314 314 314 315 314 313 312 312 314 317 312 312 312 312 315 312 316 318 317 317 314 314 315 310 312 312 313 314 315 316
305 308 307 307 308 309 310 311 309 308 307 310 313 312 313 313 314 314 314 313 312 311 312 314 315 315 313 315 315 313 315 313 313 314 317 313 313 314 312 313 314 313 312 314 315
306 313 307 308 309 308 312 311 308 311 309 311 311 312 313 313 313 314 314 314 310 311 313 313 315 315 315 311 311 312 315 315 318 317 314 316 312 313 313 313 311 312 312 314 315
306 308 308 310 311 312 312 312 311 312 311 312 312 312 312 312 313 313 313 310 310 312 313 313 315 315 314 313 312 313 313 312 311 314 316 316 312 312 313 311 310 310 312 313 314
306 309 310 310 308 308 309 312 312 311 312 311 311 311 312 312 312 312 313 311 311 311 308 311 313 315 316 314 314 316 313 311 311 317 315 315 311 310 312 311 311 313 313 314 313
306 306 305 312 312 310 311 313 313 313 312 311 312 312 311 312 312 313 312 312 311 309 311 312 313 312 312 311 312 313 313 312 311 313 319 313 313 311 312 312 312 314 314 315 312
303 303 303 308 310 311 311 311 313 313 313 312 312 312 312 312 312 312 312 312 312 311 312 311 314 312 312 311 311 312 312 312 311 311 312 312 312 312 311 313 313 315 315 313 310
301 302 303 309 311 311 310 310 311 312 313 312 312 312 312 311 310 310 310 310 311 312 312 312 313 313 315 311 312 314 313 312 312 311 312 313 312 313 312 313 312 313 312 311 307

GFSSW_850_thetae_072.txt.gz
Theta_e
307 308 307 306 306 307 307 306 305 305 305 305 306 308 308 307 307 306 309 308 315 316 312 319 315 321 324 325 324 321 322 324 325 325 325 324 325 325 325 324 323 323 324 341 345
307 307 306 306 306 305 305 305 304 305 306 306 306 305 306 306 306 308 309 310 311 316 318 318 316 320 322 324 324 321 320 321 322 323 324 323 323 323 324 324 323 323 328 335 339
306 306 306 306 306 305 305 305 304 305 305 305 304 304 304 305 306 307 310 310 311 315 317 319 317 318 320 322 323 321 322 319 320 321 320 322 322 322 323 322 322 322 323 327 336
306 306 305 304 304 303 303 303 303 303 304 304 304 304 304 305 308 312 310 313 312 312 317 318 316 317 320 321 322 321 320 320 320 320 320 320 320 320 321 321 321 321 321 326 331
305 305 304 304 304 304 303 303 303 302 303 304 303 304 304 306 306 308 308 308 311 313 317 318 316 316 318 320 321 322 320 319 319 320 320 319 319 318 318 320 322 323 323 326 332
306 305 304 304 304 303 304 302 303 303 302 303 303 303 303 305 306 306 305 306 309 311 314 317 318 314 317 318 319 321 322 320 319 319 320 320 319 319 318 319 322 323 322 323 323
305 304 304 304 305 304 304 304 303 303 303 302 303 303 304 305 305 306 305 305 305 309 312 316 317 314 315 318 318 320 322 321 319 319 320 320 320 319 319 320 321 322 321 321 322
304 303 304 305 304 303 304 304 304 303 302 302 303 304 304 304 305 305 305 305 305 305 306 312 316 317 315 317 318 320 320 323 320 319 319 318 320 319 319 319 320 321 321 321 320
302 303 304 304 303 302 302 303 304 303 302 302 303 304 304 305 304 304 304 304 304 305 307 311 314 318 317 317 319 320 322 321 320 319 319 318 319 317 318 319 319 319 319 319 319
302 304 304 303 302 301 301 302 303 303 302 304 304 304 303 304 304 304 304 305 304 305 308 311 316 318 318 318 321 318 319 318 318 319 318 318 318 317 317 317 318 318 318 318 318
303 304 303 303 302 301 301 303 303 303 304 304 303 304 304 304 304 304 305 306 304 302 311 315 317 319 318 317 318 319 319 317 317 316 319 319 318 317 317 317 317 317 317 318 318
302 304 303 302 302 303 301 302 302 301 302 303 303 303 303 303 303 303 304 305 304 306 306 314 317 315 316 317 318 319 318 318 317 317 317 318 318 317 316 316 317 317 317 317 317
302 303 303 301 303 303 301 301 302 301 302 303 303 303 303 303 303 303 305 305 304 305 307 314 314 313 317 317 318 317 317 318 317 317 316 316 315 317 316 317 317 317 317 316 315
302 303 302 302 304 303 302 300 300 300 304 304 304 303 303 303 303 304 304 305 306 306 306 315 315 316 317 318 317 319 317 318 318 316 317 314 315 316 316 316 316 315 313 313 314
303 303 301 302 303 302 301 301 300 301 306 305 304 303 304 304 303 305 304 306 306 309 314 314 316 317 316 316 317 318 318 318 318 316 315 315 314 316 315 315 312 311 313 314 314
302 302 302 303 305 302 302 302 301 306 307 306 306 305 305 304 304 307 306 305 305 314 314 314 313 314 315 315 314 314 315 318 318 317 320 315 314 314 313 313 312 313 315 315 314
303 305 303 303 303 301 302 301 306 309 307 307 308 306 306 309 308 308 308 309 313 314 314 312 311 311 311 314 313 311 314 320 321 320 316 316 315 314 312 313 313 313 315 316 316
305 306 306 305 304 302 302 304 308 309 307 307 309 308 309 309 307 309 311 315 313 315 315 315 313 311 310 313 313 312 317 322 322 318 315 313 315 312 311 313 314 315 316 317 317
305 306 306 306 306 305 305 307 307 307 307 306 307 311 313 310 310 309 311 315 312 315 316 313 312 309 310 311 313 315 317 313 314 312 312 311 312 309 310 312 313 314 315 317 317
306 308 307 307 309 307 309 309 309 308 306 306 311 312 315 315 313 315 315 314 312 312 313 313 315 312 311 312 311 314 314 315 317 319 319 312 312 311 308 311 312 312 314 317 316
308 309 308 308 310 309 309 309 310 310 309 311 313 313 313 313 314 314 314 312 312 311 313 314 315 315 313 315 316 314 315 313 313 313 317 312 311 310 308 310 311 311 314 315 316
310 312 309 310 308 309 312 311 309 312 310 311 312 313 313 313 313 314 314 312 311 311 314 313 313 316 316 312 311 312 315 314 312 313 312 312 309 309 308 309 312 312 312 314 315
307 309 311 310 310 310 310 312 312 312 312 312 312 312 312 312 313 313 312 311 311 312 312 313 313 314 313 313 312 312 313 313 311 313 316 313 309 309 308 308 310 311 312 314 314
307 307 309 310 308 309 311 312 313 312 312 312 312 312 312 312 312 313 313 312 311 310 310 311 312 312 311 314 313 311 313 311 310 313 314 313 310 310 309 309 309 311 312 314 314
305 305 304 310 311 311 311 311 312 313 313 312 312 312 311 312 312 313 312 312 311 310 311 312 311 311 311 311 312 313 313 311 306 310 309 311 311 309 310 309 310 314 313 314 313
304 303 303 306 310 310 310 310 311 311 313 313 312 312 312 313 312 312 312 312 312 311 311 311 311 311 309 311 311 311 312 312 310 310 310 311 311 310 310 311 313 314 315 315 313
300 301 302 306 310 310 310 309 311 311 313 312 312 313 312 310 310 310 310 311 310 311 311 312 310 310 311 311 311 311 311 311 311 310 310 311 310 312 311 312 312 313 315 314 312

GFSSW_850_thetae_075.txt.gz
Theta_e
308 307 307 307 307 306 307 306 305 305 305 305 305 305 305 306 308 307 308 308 306 317 313 318 317 312 322 323 324 324 323 326 327 325 326 325 325 325 325 323 323 328 332 341 345
307 307 306 306 306 306 305 305 305 304 305 306 306 306 306 306 306 306 307 308 310 310 316 316 317 315 321 322 323 320 321 323 322 322 323 323 324 324 324 323 322 336 337 341 341
307 306 306 305 304 305 305 305 303 304 304 303 303 305 305 305 306 306 309 309 310 312 314 314 318 316 321 321 322 321 320 320 320 320 320 321 323 323 324 321 321 336 335 335 330
306 307 306 305 305 305 305 305 304 305 304 303 304 303 303 304 306 310 310 309 313 312 312 316 316 318 318 320 321 320 320 320 319 318 319 318 321 323 324 320 321 322 325 329 329
306 306 305 305 304 304 305 305 304 304 304 303 303 303 303 304 305 309 308 306 312 313 312 316 316 316 317 317 319 320 320 320 320 319 319 320 318 318 319 319 322 324 325 334 336
306 305 304 304 305 305 305 305 305 304 303 302 303 302 303 304 304 305 306 306 307 312 311 313 316 316 317 317 317 320 320 321 319 319 319 320 318 318 319 318 322 323 325 325 330
304 303 304 305 305 304 303 303 304 304 303 302 303 302 303 302 305 305 305 305 305 308 311 313 316 316 314 315 318 318 320 320 319 318 318 319 319 319 318 318 320 320 322 322 323
304 304 305 304 304 303 301 301 304 304 303 302 303 304 304 302 304 304 305 305 305 305 309 311 311 315 316 316 316 318 319 321 319 318 318 318 320 319 319 318 319 320 320 321 321
303 305 304 304 304 302 301 301 302 304 303 302 303 303 304 305 304 303 304 304 305 304 305 307 311 316 316 316 317 318 321 320 320 318 317 316 318 317 319 319 319 319 320 319 320
302 303 306 303 303 302 301 302 302 304 302 303 304 303 302 304 304 304 304 304 304 304 306 308 312 317 316 316 319 317 318 318 318 318 316 317 317 317 317 318 318 319 319 319 319
302 303 303 303 302 302 300 303 303 302 302 303 303 303 304 304 303 304 304 305 304 303 308 311 315 318 315 314 315 315 316 317 316 315 317 316 317 317 316 316 317 318 318 318 318
302 303 304 302 303 302 300 302 302 301 302 302 303 303 303 303 303 303 304 304 305 305 304 309 315 314 316 314 317 317 316 315 314 316 317 316 317 316 316 315 316 316 317 317 316
303 304 303 302 303 302 300 300 301 301 300 302 302 302 303 303 302 302 304 305 304 306 306 310 312 315 316 316 317 318 316 316 317 315 315 314 314 315 316 316 316 316 316 317 316
303 303 302 303 303 302 301 300 300 300 297 305 304 303 302 303 304 304 303 305 305 305 305 307 310 315 316 316 316 319 315 317 318 316 318 312 314 311 314 316 313 315 316 317 316
303 304 302 303 303 302 302 301 300 301 304 304 304 302 303 303 303 304 304 305 306 306 306 309 314 314 317 316 315 316 316 318 318 319 314 314 312 310 311 315 315 312 315 314 313
305 305 304 304 304 302 301 302 302 302 305 307 304 304 304 304 304 305 305 304 304 306 307 313 313 314 315 314 314 313 315 317 317 318 319 313 312 309 312 315 312 310 312 314 314
306 306 306 305 304 302 302 302 300 306 305 308 309 307 306 307 307 307 307 306 308 310 312 313 311 311 313 314 313 314 315 319 320 320 314 312 312 311 310 311 311 311 313 314 314
305 307 307 305 306 304 303 298 302 305 306 306 307 307 310 309 308 308 307 307 305 310 313 314 314 312 311 313 314 313 315 320 322 315 314 312 314 313 307 310 313 314 315 315 315
306 308 307 306 308 306 305 303 307 306 306 306 305 310 313 310 309 309 309 312 313 314 313 311 313 309 312 312 313 315 316 313 313 312 311 311 310 308 308 310 312 314 316 316 317
307 309 307 309 309 308 303 307 306 307 307 307 308 311 314 313 312 312 315 312 312 312 310 309 313 312 311 312 311 314 313 316 312 317 316 311 309 310 308 311 311 312 315 316 317
310 310 310 311 309 308 306 307 308 309 308 309 312 312 310 313 312 313 312 311 311 311 312 311 310 314 312 314 313 314 316 314 313 314 315 309 309 306 308 310 310 310 315 316 316
309 304 310 310 306 307 311 311 310 311 310 311 309 311 311 310 311 312 312 311 310 310 313 312 313 315 315 313 312 314 315 314 311 313 310 308 310 307 305 307 310 311 314 316 316
308 309 310 309 303 309 307 310 311 311 311 311 311 311 310 310 312 312 311 310 311 310 311 311 310 312 313 312 310 311 313 313 310 310 311 312 309 307 307 307 310 311 314 315 315
307 302 307 309 309 308 310 310 312 311 311 311 311 310 310 311 310 312 311 311 311 309 310 310 310 307 309 311 309 308 311 309 305 305 310 308 309 309 309 308 308 311 313 314 314
305 305 303 304 306 309 310 311 312 311 311 312 311 311 310 310 311 312 311 311 311 310 310 309 308 309 310 311 311 311 311 309 303 309 308 311 310 309 308 307 308 310 312 313 314
303 302 303 304 305 309 308 309 310 310 311 312 312 312 309 311 310 310 310 310 311 310 310 308 308 308 305 310 310 310 311 310 309 309 309 309 310 307 309 309 308 310 311 313 313
298 301 302 304 305 308 309 309 310 310 311 312 311 311 310 309 310 310 309 309 309 310 309 309 307 306 307 310 310 309 309 310 309 308 309 309 309 310 308 309 311 313 313 314 314

GFSSW_850_thetae_078.txt.gz
Theta_e
306 307 307 306 306 306 306 305 306 306 304 305 306 307 307 308 308 307 309 309 309 312 316 316 316 315 315 322 323 324 320 325 324 323 323 323 323 324 325 324 321 325 332 336 343
307 307 307 307 306 306 305 305 304 304 305 305 305 305 305 306 307 307 307 308 308 307 312 315 317 315 318 320 322 323 319 322 322 322 322 323 324 324 323 323 324 338 338 343 342
307 307 307 306 306 305 305 306 305 304 304 305 304 304 304 304 304 304 306 307 308 310 311 313 316 316 319 320 321 321 321 320 321 323 320 322 322 323 322 322 323 336 341 340 339
307 307 306 305 305 305 305 305 305 305 304 304 303 303 303 303 304 306 310 310 310 312 311 312 314 316 317 320 321 320 320 319 320 319 320 321 319 321 321 322 323 328 327 337 337
305 305 305 304 305 305 305 305 305 305 303 304 303 302 303 303 303 307 308 306 308 312 311 312 314 316 316 317 319 319 319 320 320 319 320 319 319 318 321 323 324 322 331 335 334
304 304 304 305 305 305 304 302 303 304 305 303 302 303 303 303 303 305 305 305 306 312 311 312 314 315 316 316 316 319 319 320 320 319 319 318 319 318 322 323 320 323 333 334 333
304 304 304 305 305 304 302 301 302 304 305 303 302 303 302 302 304 305 305 305 304 306 311 312 313 315 315 315 315 317 318 318 319 319 318 318 319 318 318 319 320 321 321 327 333
303 303 304 304 305 302 301 302 301 303 304 303 302 303 302 303 302 305 305 304 304 304 306 310 312 314 316 316 316 315 318 319 317 317 318 318 319 318 319 318 318 320 320 321 322
303 303 303 304 304 302 300 302 302 304 303 302 303 303 302 305 303 303 304 304 304 304 305 307 311 315 316 315 315 316 316 317 320 317 317 317 318 317 319 319 318 318 319 319 320
303 303 304 304 303 301 300 302 303 303 301 302 303 303 302 304 304 303 304 304 304 304 306 308 312 316 316 315 316 318 318 316 318 317 316 316 316 316 317 318 318 318 318 319 319
302 303 303 304 303 301 300 302 302 302 303 304 304 303 303 303 303 303 304 304 304 304 306 310 313 315 315 315 314 314 316 318 316 315 317 316 316 316 317 316 315 317 317 318 319
303 303 304 303 303 301 300 301 301 301 301 302 302 303 303 303 303 302 304 304 304 304 302 308 311 313 314 314 315 315 315 315 314 315 317 316 317 315 315 315 316 315 317 318 318
303 304 303 303 303 302 300 300 300 301 300 302 302 302 302 302 302 302 304 303 304 304 304 308 309 312 315 314 316 316 315 314 315 314 314 316 317 316 315 316 316 316 316 317 317
305 306 303 303 303 302 301 300 300 301 298 305 304 303 302 303 303 303 303 304 304 305 305 305 307 311 312 315 315 318 315 316 318 315 317 314 317 313 316 315 315 315 316 316 316
306 306 304 303 302 302 301 301 300 301 302 305 304 303 303 303 303 304 304 305 304 305 305 305 308 311 313 315 314 316 316 316 317 319 315 313 314 311 309 314 315 316 315 316 315
307 307 306 304 303 302 301 301 302 295 306 306 303 303 304 304 303 304 304 304 305 306 306 307 311 312 313 314 314 314 316 317 318 319 320 313 314 311 309 311 312 315 315 315 313
307 307 307 305 304 303 302 301 297 302 305 306 307 304 303 305 304 305 305 303 305 305 309 309 313 312 313 313 313 313 315 316 319 320 315 311 313 314 308 309 309 311 312 313 313
306 308 308 305 305 305 303 296 303 303 307 306 306 306 309 308 306 307 306 307 306 308 313 314 314 313 311 314 316 315 311 308 314 316 313 311 314 313 308 307 309 312 312 313 314
306 309 309 309 307 306 304 302 308 307 306 307 307 310 310 309 308 308 307 309 309 307 313 311 313 310 312 312 312 315 317 312 310 311 306 310 310 307 309 309 310 311 313 313 314
309 310 309 311 309 307 302 304 305 305 307 307 309 311 315 314 313 310 312 312 312 309 310 309 314 312 312 312 311 314 312 316 315 318 314 310 310 311 311 310 311 311 313 314 315
310 310 309 309 309 307 303 301 306 309 308 308 310 312 310 313 312 312 311 311 310 310 309 309 310 313 311 313 315 315 316 314 312 310 311 309 309 305 308 310 311 311 314 316 316
309 303 309 308 305 302 304 309 310 310 309 309 308 310 310 309 311 310 311 311 310 310 313 311 311 313 313 312 312 312 314 312 306 314 304 304 309 305 304 308 310 312 315 316 316
308 309 309 308 303 309 307 309 311 311 310 310 311 310 309 310 311 311 310 310 309 310 311 311 311 313 314 312 312 314 315 314 309 304 304 307 309 306 305 307 311 312 315 316 315
306 300 307 308 308 308 310 309 311 311 310 311 310 309 309 310 309 311 311 311 310 308 310 310 309 306 310 310 308 308 312 312 306 302 307 306 308 309 308 308 308 311 314 315 315
304 302 302 299 303 306 308 309 310 311 310 311 311 311 310 310 310 311 310 310 310 309 309 308 308 308 309 311 310 309 309 308 305 307 308 309 309 309 309 308 309 312 314 314 314
301 300 301 302 304 304 307 308 309 310 310 311 311 310 309 310 310 310 308 309 310 309 309 307 309 306 304 309 310 310 310 308 307 308 309 308 309 309 309 308 308 310 311 313 313
295 299 300 300 302 304 305 307 309 309 310 311 311 310 310 309 309 309 310 308 308 309 308 308 306 305 305 309 309 308 308 309 308 308 309 309 308 308 308 307 307 309 310 311 312

GFSSW_850_thetae_081.txt.gz
Theta_e
307 307 308 308 307 307 306 306 305 305 304 306 305 306 306 307 307 309 308 309 309 309 314 316 317 317 317 316 321 323 320 324 322 320 321 322 322 322 323 324 324 324 329 340 341
306 308 308 307 307 306 305 307 306 306 305 305 305 305 305 305 305 306 308 308 308 307 310 313 317 315 316 318 321 321 322 321 319 320 321 323 323 322 323 322 324 324 337 341 342
305 307 307 306 305 305 306 306 306 306 305 304 304 304 304 304 303 303 303 305 310 308 311 313 314 316 317 319 321 322 320 319 321 321 322 323 323 323 323 322 323 322 330 339 341
305 306 306 305 306 306 306 305 305 305 306 306 304 303 303 302 303 305 309 310 310 310 309 311 313 315 315 317 319 321 319 319 319 321 322 321 320 322 323 323 324 323 322 328 341
305 305 304 304 306 306 305 305 305 303 303 306 304 304 303 303 302 304 308 306 306 309 309 310 313 315 315 315 318 320 319 320 319 320 321 320 319 320 321 322 323 323 322 324 336
305 304 304 304 305 306 303 302 304 301 304 306 304 303 303 303 303 305 305 305 305 308 309 311 313 313 315 315 318 319 319 319 320 319 319 318 318 319 319 323 323 322 321 327 331
304 304 303 304 305 305 302 303 303 301 304 303 302 303 302 301 304 305 305 305 304 306 309 312 312 314 315 314 315 317 318 319 318 318 317 318 318 318 319 322 322 323 321 329 332
304 303 303 304 305 303 301 302 301 302 304 303 302 303 302 304 302 305 304 304 304 303 305 309 312 312 315 315 314 316 317 320 317 317 318 317 319 317 320 321 321 322 321 321 330
304 303 304 304 305 302 301 302 303 304 302 302 303 303 302 304 303 304 304 304 304 302 304 306 310 312 315 315 314 314 315 317 318 316 316 315 317 316 319 321 320 319 321 319 321
303 303 304 304 303 301 301 301 303 302 302 302 302 302 303 304 303 303 304 304 304 302 304 308 311 314 316 316 316 314 314 316 317 317 315 316 316 316 318 318 319 318 320 319 319
303 304 304 304 303 300 301 302 302 302 302 303 303 302 303 303 303 303 304 304 304 303 304 309 313 314 313 315 312 314 314 316 315 315 317 316 316 316 315 316 316 318 320 318 319
305 305 303 304 303 301 300 300 301 301 301 301 302 302 302 302 302 304 304 304 304 305 302 308 312 311 312 314 314 315 315 316 314 314 315 316 316 315 315 316 316 316 317 318 319
306 305 304 303 303 302 300 300 300 301 300 302 302 302 302 302 302 302 304 303 304 304 303 307 308 309 314 315 316 314 315 313 315 313 314 315 316 316 316 315 316 316 316 316 316
306 306 305 303 303 302 301 300 300 301 294 305 304 302 302 302 303 303 303 304 304 305 304 305 307 310 311 315 316 317 313 314 316 313 315 313 315 312 316 316 314 316 316 317 315
307 306 306 304 303 302 301 301 300 301 298 305 304 303 303 302 302 303 305 304 303 304 304 306 306 311 311 315 314 317 316 316 316 314 314 313 314 312 308 314 315 314 316 316 317
307 307 306 305 303 302 302 301 302 295 302 305 304 304 304 303 302 304 304 303 304 306 304 306 306 311 312 312 314 314 316 317 317 316 316 312 314 313 310 311 312 313 315 316 317
307 308 307 306 305 303 302 302 297 304 305 307 307 303 303 303 301 304 303 302 304 302 307 308 311 311 312 310 314 315 315 317 319 319 316 310 313 316 310 307 308 309 312 315 316
307 309 308 308 306 304 303 297 304 304 306 306 307 306 307 306 306 305 303 301 303 306 308 312 313 311 309 312 316 314 311 308 313 317 315 310 314 313 308 308 310 309 310 312 313
307 309 308 309 307 305 303 303 310 307 307 307 308 309 310 309 307 306 304 307 306 305 312 312 313 310 311 312 313 315 311 309 308 306 305 309 308 307 306 307 308 308 310 311 312
309 309 309 309 308 306 301 307 304 304 306 306 308 309 311 313 310 309 309 309 309 306 308 309 315 313 312 312 312 312 311 313 315 307 312 310 308 311 309 309 308 308 310 312 313
310 309 309 308 307 305 301 300 304 307 307 308 309 310 310 311 312 311 310 311 311 311 307 309 311 313 313 314 314 314 315 313 310 309 310 309 309 304 306 307 308 308 311 312 313
308 301 308 308 304 299 300 307 309 309 308 308 307 308 309 308 310 310 312 311 310 309 311 310 311 313 314 311 311 312 313 312 306 314 308 301 308 305 303 304 309 310 312 313 314
307 308 309 308 300 299 305 307 309 310 309 309 310 309 309 309 311 310 310 311 309 310 310 310 310 314 313 312 311 313 313 313 307 303 303 306 309 306 305 306 311 312 314 315 315
305 300 305 307 307 306 306 305 309 311 309 310 310 309 309 309 309 311 310 311 310 308 310 310 308 307 309 310 312 313 312 312 312 311 307 304 309 307 307 308 309 313 314 315 315
300 299 300 297 300 302 304 306 308 309 309 310 310 310 310 309 309 310 310 310 309 309 308 307 308 306 308 309 308 309 309 312 312 311 309 310 307 307 306 306 308 313 314 314 314
298 298 298 299 301 302 304 305 307 308 309 309 311 310 310 309 309 309 307 308 309 308 308 306 307 306 305 309 309 310 309 310 311 311 308 308 308 306 308 308 308 311 314 314 314
297 297 298 297 298 301 302 302 305 304 308 309 311 309 309 308 308 308 309 308 306 308 307 307 306 304 303 308 308 307 307 308 309 307 309 310 309 307 307 307 308 310 312 314 314

GFSSW_850_thetae_084.txt.gz
Theta_e
306 307 308 309 308 307 306 306 307 307 306 305 306 305 305 306 306 307 309 310 310 309 315 317 317 316 317 315 320 322 322 325 321 319 320 321 321 321 322 322 323 323 325 329 335
307 307 306 307 306 306 306 306 306 306 306 306 305 305 305 305 305 304 304 306 309 309 312 314 316 316 317 316 317 321 323 321 319 317 318 320 321 322 322 322 322 322 327 338 341
305 306 306 305 306 308 307 307 306 306 305 306 307 305 304 304 303 302 306 303 308 309 309 311 313 315 316 318 318 321 319 318 320 320 321 322 323 322 322 322 322 323 323 325 336
305 306 305 305 306 306 307 306 305 305 305 304 307 304 304 303 302 304 308 308 309 310 308 309 312 314 314 314 318 321 320 319 319 321 322 321 322 323 322 322 323 323 324 323 322
305 305 305 305 306 306 306 304 304 306 304 303 306 305 304 302 302 302 306 307 306 308 310 309 311 314 314 312 316 319 319 320 319 321 321 320 319 321 322 323 322 323 323 324 322
304 305 304 305 305 306 305 304 304 305 303 304 304 304 303 302 304 305 305 303 305 305 310 308 311 312 314 314 315 316 318 319 320 319 320 319 318 320 320 321 322 323 323 323 321
305 304 304 304 305 305 302 301 301 301 303 303 303 303 303 301 304 305 305 305 304 304 306 309 310 312 314 314 315 317 316 317 318 318 317 317 317 318 319 321 322 322 323 323 321
305 304 304 304 305 304 300 302 303 304 304 303 304 303 302 304 303 303 304 304 304 301 303 307 311 311 313 313 314 316 316 316 318 316 317 317 318 315 319 319 321 322 323 323 321
305 304 304 304 304 303 301 302 303 301 301 302 302 302 302 304 303 304 304 304 303 302 304 307 308 311 313 315 313 315 319 317 317 316 316 315 317 314 319 320 320 323 323 322 321
304 304 304 305 304 300 301 302 302 301 301 302 302 302 303 303 303 303 304 304 304 302 305 306 310 311 313 316 313 315 316 317 316 316 315 315 315 313 321 321 321 322 322 322 319
305 304 305 304 303 300 300 301 302 300 302 302 302 302 302 302 303 303 304 304 304 303 304 301 310 310 312 314 311 311 314 315 314 314 316 314 316 314 316 321 321 320 320 321 318
305 305 305 304 303 301 300 300 301 301 301 302 301 302 302 302 302 303 304 303 304 305 302 305 309 309 312 312 314 311 315 315 314 314 316 314 315 314 312 315 317 320 319 319 320
306 306 305 303 303 302 300 300 301 300 300 302 302 302 302 302 302 302 303 303 304 304 304 305 309 311 311 313 315 312 314 313 314 313 313 313 315 315 314 314 316 316 318 319 319
306 306 306 304 303 302 301 300 300 301 294 304 304 302 302 302 302 302 303 304 304 305 304 306 309 310 310 311 314 315 312 313 313 313 317 313 316 310 314 314 312 315 314 316 318
307 307 306 304 304 302 301 301 300 301 299 304 304 302 302 301 302 303 304 304 303 304 304 306 308 309 310 311 314 316 313 314 313 312 312 312 314 311 309 313 316 315 315 316 316
307 308 307 306 305 303 301 301 301 296 300 304 304 303 303 302 302 303 303 303 304 305 304 305 306 309 309 307 314 314 315 315 314 313 312 311 313 311 310 310 310 312 315 315 317
306 308 308 306 305 303 302 301 297 299 303 307 308 303 301 301 301 303 303 301 302 302 304 307 309 310 310 309 314 316 313 319 320 319 314 309 312 314 309 307 307 308 312 314 315
307 308 308 308 305 303 302 296 298 302 298 306 308 306 304 304 304 304 302 299 300 303 303 309 312 311 310 310 315 316 311 307 311 314 313 309 313 313 308 309 311 312 311 311 312
307 308 308 308 306 304 302 299 302 299 306 307 308 305 310 308 307 306 304 301 302 304 309 310 313 310 310 312 313 314 314 307 306 304 306 310 308 307 306 305 306 308 309 311 311
309 308 308 308 305 304 298 304 301 304 305 307 307 307 307 310 309 308 306 306 307 303 307 309 314 311 309 312 311 312 310 311 310 308 312 310 308 310 309 308 307 307 308 309 310
308 309 308 307 306 304 298 298 302 306 306 307 307 309 309 310 310 308 310 310 308 307 307 309 311 314 309 312 314 314 312 312 309 306 309 309 310 303 306 305 304 306 308 310 310
306 300 308 307 303 297 298 306 308 308 307 306 306 308 309 308 308 311 313 312 310 309 309 309 312 313 314 311 311 311 312 311 308 310 306 301 309 305 303 302 304 308 309 311 312
303 306 307 307 299 297 302 306 308 309 309 309 310 308 308 308 310 309 311 310 310 311 310 309 310 314 314 311 311 312 311 309 305 304 309 307 309 305 304 305 307 309 311 312 313
301 297 302 305 305 304 304 303 307 308 309 309 309 309 308 308 308 310 310 311 310 309 311 310 309 308 310 309 310 312 311 310 305 302 308 305 307 308 307 307 308 310 311 312 313
299 298 298 294 296 299 301 304 307 307 308 309 310 310 309 309 308 309 309 310 310 309 308 308 308 307 307 308 310 310 310 310 308 309 308 309 307 308 306 305 306 311 312 313 313
298 297 297 297 298 298 301 302 302 303 305 307 309 310 309 309 309 308 307 308 309 308 308 305 308 306 305 308 309 310 308 309 310 310 308 308 307 305 307 306 307 310 313 313 314
298 297 297 296 294 297 298 296 298 299 301 306 304 304 307 308 307 307 308 308 307 307 307 307 305 304 304 308 308 307 307 308 310 309 310 310 310 308 307 306 307 309 313 314 315

GFSSW_850_thetae_087.txt.gz
Theta_e
307 308 307 309 307 307 308 308 307 307 306 306 306 306 305 305 306 305 306 307 309 310 313 315 316 316 316 317 321 322 323 326 324 323 323 321 322 321 322 322 323 323 329 334 333
307 307 306 307 306 306 308 308 307 307 306 305 305 307 306 305 304 303 304 303 307 310 311 312 316 316 316 316 318 321 323 323 320 318 321 320 320 321 322 321 321 322 325 335 339
306 305 306 306 306 306 308 306 306 305 305 305 304 306 306 304 303 303 305 308 308 308 309 311 314 315 316 316 316 319 320 319 319 319 320 320 322 322 322 323 322 321 323 325 336
306 305 305 306 306 305 307 308 305 305 305 304 303 305 305 303 301 304 307 307 309 309 310 309 311 313 314 316 316 319 319 318 319 320 321 321 321 323 322 322 322 322 323 324 325
305 305 305 305 306 306 306 304 304 305 305 303 305 305 304 302 302 302 302 304 306 307 310 309 309 312 314 314 316 318 319 319 319 320 321 321 321 322 322 321 322 322 323 324 323
305 305 305 304 306 306 305 301 301 301 303 304 304 305 303 301 304 305 304 303 304 306 307 309 308 310 313 313 315 316 317 319 319 318 320 319 318 320 321 321 322 322 322 323 323
305 305 304 304 305 305 302 301 302 304 305 304 304 302 302 302 303 304 304 304 303 304 304 307 308 311 312 314 313 316 316 316 318 318 317 317 319 319 320 320 321 321 323 322 323
305 306 305 304 305 304 301 303 303 303 302 303 303 302 301 304 303 303 304 304 303 301 301 304 308 309 310 313 313 317 315 319 316 317 318 317 323 316 319 319 320 321 322 322 323
305 304 305 305 305 303 300 302 303 301 301 301 302 302 302 304 303 303 304 304 304 301 303 305 307 310 310 313 315 316 318 316 318 316 316 317 318 316 318 319 319 320 322 322 322
305 304 305 305 305 302 300 301 302 301 301 301 301 302 303 303 303 303 303 304 304 303 304 306 308 310 311 310 315 314 317 316 317 318 316 315 315 314 316 319 319 319 321 322 323
305 306 305 305 304 301 300 301 301 300 302 302 302 302 302 302 302 303 303 304 303 303 302 301 306 311 311 310 311 313 315 316 315 314 317 317 316 315 317 319 318 320 322 322 322
305 306 306 305 303 302 300 300 300 301 300 301 301 302 302 302 302 302 304 303 303 304 302 304 306 309 310 311 314 313 315 316 314 314 317 316 317 315 314 319 319 320 321 322 322
305 306 306 304 303 302 300 300 300 301 299 302 302 301 302 302 301 301 303 303 303 304 303 304 307 309 311 311 311 313 314 313 315 314 312 315 318 316 314 314 318 320 320 321 322
305 307 306 305 304 303 301 300 300 300 293 302 303 302 302 302 301 302 303 303 303 304 304 306 307 310 309 312 311 313 312 313 315 317 319 312 318 313 315 315 313 316 318 319 319
305 307 307 306 305 303 302 301 300 300 298 303 303 302 302 301 301 302 303 303 303 304 303 306 309 311 310 310 308 315 312 313 312 313 313 313 318 314 309 316 316 313 314 317 318
305 308 308 307 305 304 302 301 300 296 299 304 304 303 302 302 302 302 303 303 303 305 303 305 305 308 309 308 307 307 314 314 314 312 316 312 316 314 312 312 315 316 316 317 316
306 308 308 308 305 303 302 301 297 298 301 305 307 304 301 301 301 302 302 298 300 298 298 308 308 311 308 309 307 307 315 318 317 317 314 308 313 315 310 309 309 310 313 316 316
306 308 308 307 305 304 302 296 296 300 296 305 308 306 305 303 303 302 301 299 299 301 298 307 308 310 309 308 311 315 311 312 314 315 314 310 315 314 309 309 310 309 311 310 313
307 307 308 307 305 304 302 298 299 296 303 308 308 308 308 307 307 304 303 300 299 302 307 310 312 309 310 308 308 315 311 306 307 304 312 312 309 308 307 307 306 307 308 310 310
306 307 308 307 305 303 297 303 300 304 304 307 308 307 311 311 308 307 306 303 305 302 305 309 312 310 310 311 311 312 310 313 308 310 314 310 309 312 310 309 306 306 308 310 310
305 308 307 306 304 303 297 296 301 306 306 308 307 308 309 310 309 308 309 308 305 305 305 309 311 312 310 310 314 314 315 310 309 309 312 312 311 305 307 306 304 303 306 309 310
301 297 306 306 301 296 297 304 306 307 306 307 307 308 309 308 308 311 310 309 308 307 307 308 312 313 312 311 311 311 312 310 310 312 302 305 312 305 304 303 303 304 309 309 310
300 304 305 304 298 298 301 303 305 307 308 308 309 309 308 308 310 309 310 311 310 308 309 309 311 314 314 311 311 313 311 307 305 306 309 312 311 304 304 306 307 309 309 310 310
300 294 300 303 301 300 300 301 305 306 306 306 309 309 308 308 307 309 308 311 310 311 311 311 309 308 308 308 309 312 311 308 306 308 309 308 310 310 308 307 306 308 310 311 312
298 296 298 293 295 296 299 303 300 301 301 303 307 304 303 308 308 307 308 306 310 310 309 309 311 307 308 308 310 310 310 309 305 307 309 308 308 309 307 306 305 307 310 311 312
298 297 296 296 296 296 297 299 298 298 299 300 303 301 302 305 307 310 307 307 309 309 308 305 309 306 306 308 309 310 309 308 309 309 308 307 308 305 307 307 307 308 311 311 312
299 298 297 296 294 295 296 296 297 297 299 299 299 300 304 305 304 305 306 307 307 308 309 307 307 306 306 307 307 306 306 308 309 307 309 311 310 306 307 306 308 308 311 312 313

GFSSW_850_thetae_090.txt.gz
Theta_e
307 307 307 307 307 307 307 308 309 308 307 307 306 307 307 306 305 305 307 308 309 310 310 313 312 317 318 319 321 322 326 328 325 325 325 324 325 323 323 324 324 329 330 336 332
306 306 307 307 306 307 307 307 308 307 306 305 305 305 307 307 305 305 305 304 305 308 310 313 315 316 317 317 320 321 325 325 324 324 324 324 324 325 324 324 324 325 327 336 339
305 305 305 306 306 308 306 307 306 306 306 306 304 304 306 306 305 304 304 308 308 309 310 311 312 315 316 317 317 319 320 322 322 322 322 323 323 323 324 325 324 324 326 334 339
306 305 305 306 306 307 307 305 304 306 305 304 303 305 305 304 305 304 305 306 308 310 309 310 311 314 315 316 316 318 318 318 321 321 322 323 322 323 323 323 323 323 325 329 337
306 306 305 305 305 307 306 301 304 303 302 302 305 305 305 304 303 302 303 302 306 308 310 308 311 312 313 314 316 317 317 319 319 320 322 322 323 323 323 323 323 324 324 326 328
307 306 305 305 305 305 305 301 302 304 305 304 304 305 304 303 303 305 305 303 305 306 307 310 309 310 312 312 315 314 315 318 318 320 322 322 322 322 322 323 323 324 325 325 324
305 305 306 305 305 305 302 302 303 304 304 304 303 302 303 303 303 304 304 304 303 305 306 307 309 310 310 312 313 314 315 318 319 318 320 322 323 323 322 322 323 323 324 324 324
306 306 305 306 306 305 300 302 302 303 303 303 302 302 304 303 303 303 304 304 303 301 302 303 307 309 312 311 314 315 315 318 319 319 319 320 323 322 321 322 323 323 323 324 324
305 306 305 306 305 304 300 301 302 302 301 301 302 302 304 303 303 303 303 305 304 303 304 305 307 309 310 309 315 315 316 315 318 319 320 321 319 320 321 321 322 322 323 323 324
304 306 306 306 305 303 300 301 302 301 301 301 301 303 303 303 303 303 303 304 305 304 304 306 308 310 312 310 317 315 315 315 318 320 320 320 320 319 319 321 321 320 321 322 324
303 306 306 306 304 302 300 301 302 302 301 303 303 303 303 303 302 303 303 304 304 304 304 303 310 311 312 311 311 313 314 314 316 318 320 319 319 319 318 319 320 320 321 322 323
303 306 306 306 304 303 301 300 300 301 302 301 302 302 302 302 303 303 303 304 304 305 304 305 309 309 310 310 312 314 313 316 314 318 319 319 319 319 319 319 319 319 319 320 322
304 306 307 307 305 303 302 300 300 301 302 302 302 302 302 302 303 302 303 304 304 305 305 307 309 308 310 312 311 314 313 315 317 318 318 319 319 318 318 318 318 319 320 320 322
304 306 307 307 305 304 302 300 300 300 305 305 304 303 302 302 302 303 302 303 304 304 306 306 308 309 311 311 310 315 313 315 316 317 318 318 317 318 318 319 319 318 320 321 323
304 306 307 307 306 304 303 301 300 300 311 305 304 302 303 302 302 303 303 304 303 303 306 308 311 311 312 311 309 315 314 314 316 317 317 319 320 318 316 319 319 318 319 319 321
305 307 308 307 306 304 302 301 300 307 312 306 305 304 303 303 303 303 304 303 304 305 305 306 307 310 311 310 310 308 313 315 316 317 319 316 318 316 316 317 318 318 318 318 318
306 308 308 307 305 303 301 301 308 312 304 309 309 305 304 303 302 303 303 304 304 306 307 307 308 310 309 310 308 307 315 318 318 318 316 313 318 316 315 315 315 317 317 318 318
305 307 307 307 304 303 302 304 310 306 308 306 308 307 305 305 303 303 303 303 302 304 306 309 309 310 309 310 311 310 314 316 314 315 313 313 317 314 315 315 315 313 313 313 317
305 306 307 307 304 303 303 310 310 309 308 310 310 310 309 307 307 305 304 303 302 303 308 312 312 310 309 307 309 314 317 311 314 312 314 314 314 314 313 314 312 312 312 312 312
304 306 306 305 304 303 304 309 309 305 307 308 311 309 312 311 308 307 306 306 305 302 306 311 313 309 310 309 307 308 312 317 317 318 315 315 314 312 314 314 312 312 312 313 312
303 307 305 306 304 303 310 309 306 306 306 309 309 309 311 312 308 308 309 307 306 304 305 308 312 312 310 311 312 313 316 314 315 316 316 316 315 312 311 311 311 310 309 310 311
301 309 304 305 305 300 306 303 304 307 307 308 308 307 310 311 310 311 310 310 307 306 307 307 312 312 314 312 312 312 315 314 318 316 311 315 315 309 311 310 310 311 311 311 311
299 304 303 304 307 303 302 302 304 303 305 305 309 309 306 309 311 311 307 308 308 308 311 311 314 315 315 313 312 312 313 312 312 314 316 316 315 309 308 310 310 311 312 311 311
299 308 299 301 299 301 300 302 301 300 304 301 304 303 303 310 309 311 308 310 309 309 310 312 312 312 314 313 313 314 315 313 315 318 315 316 314 313 311 312 311 310 312 312 312
298 302 298 302 301 300 301 302 300 300 299 301 303 302 303 306 309 311 307 309 308 308 310 311 314 311 311 311 312 313 314 312 313 314 317 314 313 313 313 312 311 310 311 312 312
299 300 297 298 297 299 299 300 299 299 299 301 300 301 303 305 305 306 306 306 307 309 309 310 312 310 310 311 311 313 312 313 313 313 312 311 312 310 310 311 310 311 311 312 312
300 299 299 297 299 300 299 298 298 298 298 299 299 302 305 304 301 302 303 305 308 310 311 310 311 312 313 309 310 311 310 312 312 311 312 314 313 311 310 310 310 311 310 312 312

GFSSW_850_thetae_093.txt.gz
Theta_e
309 309 306 309 308 307 310 306 308 308 307 307 306 307 305 306 307 307 308 308 310 311 311 312 313 315 318 319 320 322 326 328 326 325 325 324 324 323 324 325 325 329 333 338 340
309 307 306 307 307 308 309 307 308 305 306 307 306 306 305 307 308 308 308 307 305 308 312 312 312 315 317 318 320 321 325 326 324 324 324 324 324 324 324 325 326 327 336 338 341
308 307 307 307 307 307 309 307 305 305 306 306 305 303 305 307 307 307 307 305 307 309 311 312 313 315 316 317 318 319 323 324 323 323 323 324 325 325 325 325 325 326 334 340 342
308 307 307 306 306 306 307 306 301 308 305 303 302 305 305 307 308 305 304 306 303 309 310 311 312 314 316 317 316 320 318 319 321 322 323 324 323 325 325 326 325 325 328 335 338
307 307 307 305 307 306 306 303 304 303 304 303 305 305 306 307 306 305 303 303 304 308 310 311 311 312 315 316 316 317 318 317 318 321 323 323 324 324 324 324 324 324 326 330 333
307 307 307 307 306 306 306 301 303 304 304 304 304 305 306 307 304 306 305 305 306 307 309 309 310 312 313 313 315 315 316 317 318 321 321 323 323 322 323 323 324 324 325 326 329
306 307 307 306 307 306 305 301 303 303 304 304 303 305 305 304 304 306 305 305 305 306 307 308 308 311 312 312 313 314 315 316 318 318 321 321 322 323 322 323 324 324 324 326 326
305 306 306 306 307 307 304 301 302 303 303 303 302 305 306 303 305 304 305 305 305 305 304 307 307 310 311 312 312 313 315 316 316 318 318 320 321 320 321 322 323 323 323 325 326
304 306 306 307 307 305 303 300 302 302 301 301 304 305 305 303 305 305 305 305 305 305 306 306 308 306 309 313 315 314 321 315 315 318 318 321 320 319 320 322 323 322 323 324 325
303 305 307 307 306 304 302 300 302 301 302 303 304 305 304 305 304 304 305 305 305 305 306 307 308 308 310 312 317 318 318 315 314 319 319 319 320 319 321 321 321 321 322 323 324
303 305 306 307 306 303 302 303 305 305 303 305 304 304 304 304 304 305 305 305 305 305 306 304 308 312 312 311 313 315 315 314 313 317 318 319 319 319 320 320 321 320 321 321 323
303 305 306 307 305 304 303 304 303 303 304 303 303 303 303 304 303 304 305 305 305 305 306 306 308 309 310 312 313 313 316 315 313 318 318 319 319 319 319 320 320 320 320 320 321
304 305 307 307 306 305 303 302 300 301 304 304 303 303 303 304 303 304 304 304 304 304 305 307 309 309 310 312 312 313 316 316 314 318 318 318 319 319 319 319 319 319 319 319 320
305 306 307 307 307 305 305 301 300 300 307 308 305 305 303 303 303 303 304 304 304 304 305 307 307 310 311 312 311 315 315 315 315 318 317 317 320 318 318 318 318 319 318 319 320
305 306 308 307 306 306 303 302 300 301 313 307 306 304 303 303 303 304 304 304 304 304 304 309 309 310 312 312 311 315 314 314 316 316 316 318 317 317 317 318 319 319 318 318 320
305 306 307 307 305 304 302 301 302 307 315 308 307 306 305 303 303 304 304 303 304 304 306 308 308 311 311 311 311 309 315 316 316 317 320 317 316 315 318 318 319 318 318 318 319
303 306 307 307 306 303 303 304 307 312 307 311 309 307 306 306 305 303 304 304 305 307 309 309 311 310 311 310 308 309 316 320 318 319 316 315 317 317 316 316 317 319 318 318 319
303 305 306 306 304 304 303 306 313 308 313 309 309 309 307 307 305 304 304 304 304 305 309 311 311 311 310 311 313 311 314 318 318 318 316 314 316 316 315 315 315 315 317 318 319
302 305 307 306 305 304 305 312 311 309 307 309 310 310 312 308 308 306 305 306 304 304 310 311 312 310 309 309 310 313 314 314 316 314 316 315 313 314 315 314 314 315 315 315 316
303 307 307 305 304 304 307 308 305 307 308 309 310 310 311 310 308 307 308 307 304 304 307 311 312 310 309 308 308 309 309 316 318 316 316 315 313 315 314 315 315 315 315 315 315
304 309 304 304 304 306 309 305 305 307 307 308 307 308 310 311 308 308 310 309 306 304 306 309 312 312 309 310 312 312 315 316 316 318 316 316 314 314 314 313 313 313 312 313 314
305 311 303 303 308 307 305 303 304 303 305 307 308 309 308 310 312 310 310 309 307 305 308 308 312 314 314 312 311 313 314 315 319 318 316 318 315 313 313 313 313 314 314 313 313
305 307 301 305 306 306 303 303 302 302 304 303 305 305 305 308 313 313 307 309 309 307 312 311 315 316 315 314 312 313 314 316 314 317 319 319 315 312 312 312 312 313 314 314 314
304 310 302 302 301 303 303 304 302 301 302 303 303 304 306 308 309 311 307 310 309 309 311 312 314 314 316 315 314 314 315 315 315 319 316 316 314 313 312 313 313 312 313 314 314
302 306 301 304 303 302 302 303 302 301 301 301 304 303 304 308 308 308 307 307 310 310 310 312 316 313 312 313 313 314 316 315 314 316 319 315 315 314 314 314 312 312 313 314 315
304 303 300 301 301 302 302 302 301 301 301 302 302 303 304 306 304 306 305 308 309 309 309 312 314 312 313 313 313 314 314 315 314 314 314 314 314 313 313 312 312 312 312 313 314
300 299 303 300 302 302 302 301 300 300 300 300 302 304 305 304 302 302 303 304 306 310 312 312 313 314 315 311 312 314 314 314 314 313 314 315 314 313 313 312 312 312 312 312 313

GFSSW_850_thetae_096.txt.gz
Theta_e
309 309 310 307 308 308 308 310 309 308 306 307 307 307 306 306 305 307 309 310 310 311 312 312 313 313 316 317 319 321 326 327 327 326 324 324 323 324 324 324 327 333 338 344 342
308 309 308 308 308 309 307 309 308 306 302 306 307 306 305 304 307 309 309 309 308 307 309 311 313 312 314 317 318 321 323 325 325 324 323 324 324 324 325 325 327 336 338 341 342
308 308 308 308 308 308 307 308 307 301 305 306 303 303 304 306 308 309 309 307 306 305 310 310 312 312 314 316 318 319 322 322 324 324 324 325 325 324 324 324 327 334 338 342 342
306 308 308 307 306 308 307 307 304 308 303 303 302 304 305 308 308 306 305 304 306 304 311 310 311 312 315 316 316 319 318 319 322 322 324 323 324 325 324 325 326 330 337 342 342
306 307 308 307 307 307 307 306 304 303 304 304 304 305 307 308 307 306 304 304 303 307 310 311 312 311 313 314 316 317 317 317 319 319 321 323 324 324 325 325 325 328 335 338 339
305 306 306 307 308 307 307 305 302 303 304 304 304 305 307 307 305 306 306 306 306 306 308 309 311 311 309 313 315 316 315 317 317 319 321 323 324 324 324 324 325 327 329 333 335
305 306 307 307 307 307 307 304 302 303 304 303 304 305 306 306 304 306 306 305 305 306 308 309 308 310 310 312 314 314 315 316 316 319 321 321 323 324 323 323 324 325 325 327 330
302 304 306 307 307 307 306 303 301 302 302 303 302 305 307 305 303 305 305 305 305 305 305 307 308 307 308 312 312 314 314 318 316 319 320 320 323 322 322 323 324 324 324 325 327
302 303 306 306 307 306 303 302 300 302 301 301 302 306 306 304 305 305 305 305 305 305 307 306 308 306 307 313 313 313 317 317 316 317 318 320 320 319 320 320 323 323 323 325 326
302 303 306 306 306 305 303 302 301 301 303 304 305 305 305 305 305 304 305 305 305 305 306 306 307 307 306 311 314 313 314 314 315 314 318 317 317 318 318 320 321 322 322 323 325
302 303 306 306 306 305 304 305 306 305 305 305 305 305 304 304 304 305 305 305 305 305 306 304 307 309 308 308 312 313 314 314 314 315 315 318 318 318 318 319 320 321 322 322 323
303 304 306 307 306 305 305 305 304 302 302 304 304 304 304 304 303 304 304 304 305 306 305 304 305 306 308 308 312 312 316 314 315 315 316 318 319 317 317 320 320 320 320 321 321
304 305 306 307 305 306 305 304 301 301 304 305 304 304 304 304 304 304 305 304 304 305 305 306 307 307 309 310 312 311 313 316 316 316 317 317 318 318 317 319 320 320 320 320 320
305 305 307 307 309 306 306 304 300 300 305 307 306 305 304 304 303 303 304 304 304 304 305 305 306 309 310 312 312 313 312 312 316 317 321 318 320 319 318 318 317 319 319 319 320
304 305 307 307 307 306 304 302 300 303 314 307 306 304 304 304 304 304 304 304 304 304 305 307 308 309 312 313 311 313 312 315 316 317 316 318 318 317 317 316 316 317 319 319 319
302 306 307 307 306 304 303 302 304 307 311 307 307 306 306 302 304 304 304 304 304 304 305 306 307 311 311 311 311 310 314 316 316 317 318 317 315 312 314 316 315 316 317 318 318
303 306 306 306 307 304 303 304 308 311 308 309 309 307 306 306 305 304 304 304 305 306 309 311 311 310 310 310 309 310 314 318 319 318 319 316 316 313 314 315 315 316 317 318 318
303 305 305 306 305 304 304 307 310 307 308 307 308 308 308 306 305 305 304 304 304 304 309 310 309 310 309 311 311 311 313 317 315 314 313 315 319 313 313 314 315 315 318 318 318
303 306 305 305 304 304 306 310 307 307 308 309 309 308 311 307 307 306 305 305 304 303 311 311 311 309 310 310 310 312 314 312 316 314 314 312 312 312 312 312 314 315 315 315 318
307 308 306 303 303 305 308 307 305 307 306 307 309 308 311 310 307 307 307 307 304 304 308 310 311 310 309 308 308 309 308 316 316 318 320 313 311 313 313 312 312 313 314 314 315
306 310 306 303 305 307 308 305 305 305 305 309 309 309 309 311 310 307 310 308 305 304 307 309 311 311 310 310 310 309 310 314 316 316 315 313 312 312 311 312 311 311 313 314 315
308 313 303 305 308 308 307 303 303 302 304 306 306 306 306 307 311 310 310 309 307 305 307 309 312 311 311 311 311 311 311 314 317 317 315 316 312 310 310 311 312 314 313 313 313
307 308 301 304 308 308 304 304 302 302 303 304 305 305 305 307 312 309 307 308 309 307 312 310 313 315 314 312 312 313 313 315 315 314 318 320 312 310 311 311 312 312 314 314 313
305 309 303 304 302 303 304 304 302 301 302 302 303 305 306 308 309 309 307 309 310 311 311 311 313 313 316 315 312 311 312 314 313 316 315 316 312 311 310 311 311 312 314 314 314
305 309 305 307 304 303 302 303 302 302 301 302 304 305 304 307 309 308 307 309 310 310 310 311 314 312 313 313 313 313 314 314 312 314 315 315 314 312 311 311 311 312 313 314 315
304 302 301 302 301 302 302 302 301 301 301 302 302 304 305 305 304 306 304 307 308 308 309 310 314 312 311 313 313 314 315 314 314 314 313 313 313 312 311 311 312 312 312 313 314
301 302 304 302 302 302 302 301 301 300 301 301 302 303 305 304 302 302 303 303 305 308 311 312 314 312 315 311 312 313 313 314 314 313 314 314 313 311 311 311 312 312 312 312 313

GFSSW_850_thetae_099.txt.gz
Theta_e
308 307 309 309 310 310 308 307 310 308 307 304 306 308 306 306 306 305 306 308 310 310 310 309 311 312 312 314 316 318 323 327 325 324 324 323 323 324 324 326 332 338 341 339 344
307 306 309 309 308 309 308 307 309 308 303 310 307 304 303 303 304 306 307 311 311 310 308 308 309 312 312 315 315 319 322 321 322 322 323 324 323 324 326 331 337 339 341 341 344
306 307 308 309 309 306 309 307 308 305 307 304 303 302 304 306 308 309 310 309 308 307 305 307 308 311 312 312 315 317 320 320 320 320 323 324 324 324 325 326 336 340 342 342 342
307 307 307 308 308 308 308 307 306 308 302 304 303 305 305 307 308 306 305 303 303 304 307 310 310 311 312 314 314 317 317 318 320 323 323 323 324 325 324 324 330 334 336 342 343
305 306 306 306 307 307 307 308 304 306 303 304 304 305 307 308 307 306 305 304 305 306 308 309 311 309 311 313 314 315 316 317 317 320 320 323 324 324 324 324 331 335 332 341 342
303 305 305 306 307 307 308 307 303 302 303 304 304 305 306 308 305 306 304 305 306 306 307 308 310 310 311 310 311 315 314 315 317 319 319 323 324 324 324 324 329 331 329 332 341
305 303 304 306 307 306 308 306 302 302 303 303 303 304 305 306 304 304 305 305 304 305 306 308 309 309 308 310 311 313 314 315 318 319 321 322 324 325 324 324 324 329 329 331 332
305 303 303 306 306 307 307 303 302 301 302 303 302 303 305 306 303 304 305 305 305 305 304 306 308 307 307 307 312 314 314 317 316 318 319 321 322 322 323 323 323 324 330 331 330
303 303 303 306 306 307 305 303 301 301 302 301 302 306 305 306 305 305 305 305 305 305 305 307 307 307 307 306 313 312 317 315 317 317 321 320 321 320 322 322 322 323 323 331 329
301 302 304 306 306 306 305 304 303 302 304 302 304 304 305 305 305 304 304 304 304 305 305 306 306 307 307 307 313 313 314 314 316 316 320 319 319 318 322 321 321 320 322 327 326
301 303 304 306 306 305 305 305 305 306 304 305 304 304 304 304 304 304 305 304 305 305 302 303 304 304 309 307 308 311 312 313 313 314 319 320 319 317 319 320 320 320 322 322 326
302 304 305 306 306 306 305 305 304 303 301 303 304 303 304 303 304 304 304 304 304 304 303 301 303 304 308 308 308 311 313 312 312 313 314 316 318 317 315 316 318 319 321 321 323
303 304 305 307 306 306 305 304 301 301 303 304 304 304 304 304 304 303 304 304 304 304 304 302 305 305 307 309 309 310 314 313 313 315 315 315 317 318 317 316 319 319 320 321 321
304 304 306 306 307 306 306 304 300 300 304 306 306 305 304 304 304 304 304 304 304 304 304 303 305 306 308 310 310 314 312 312 316 316 318 316 319 317 317 316 316 318 319 320 320
302 304 307 306 305 305 303 302 300 303 300 305 306 304 304 304 304 304 303 303 303 304 304 304 306 307 312 311 310 313 312 315 314 316 315 318 319 316 316 317 316 315 319 319 319
301 305 306 306 306 304 302 301 303 299 297 305 307 306 306 303 303 304 304 303 304 303 304 305 305 309 310 310 311 310 315 316 315 317 315 317 317 311 317 317 315 314 318 319 319
302 306 306 305 306 303 303 304 301 298 303 304 307 306 305 305 305 304 304 302 300 305 307 308 310 310 310 310 309 310 314 317 318 319 315 316 315 312 312 314 314 313 316 319 318
303 305 304 304 304 304 304 300 299 304 300 307 308 306 307 306 304 305 303 298 302 304 305 303 310 311 310 310 309 311 312 312 318 317 312 315 315 313 310 311 314 315 317 317 318
303 305 304 303 303 305 305 298 299 300 306 306 305 303 309 307 307 305 299 301 304 303 310 306 310 310 309 310 310 312 312 312 315 314 310 314 311 309 310 311 311 313 315 316 317
306 307 304 302 305 305 299 301 302 305 303 307 302 307 308 310 307 304 303 305 304 303 308 309 311 309 309 308 307 310 308 314 312 316 316 310 311 309 311 311 311 311 313 314 316
307 308 305 304 305 306 297 298 303 303 304 307 307 309 306 308 309 301 307 307 304 303 305 308 307 310 308 309 307 307 308 313 314 311 314 311 309 309 310 309 310 310 312 314 315
308 305 302 306 302 303 297 302 303 302 302 305 304 305 305 307 311 307 308 308 308 304 309 308 309 308 308 311 309 308 310 314 310 315 308 305 309 309 309 309 311 312 312 313 314
308 305 302 305 297 296 302 303 302 301 302 303 304 304 304 306 311 308 306 307 309 309 309 309 312 310 311 312 311 312 312 314 314 310 313 315 310 309 309 308 312 313 313 313 313
305 301 303 303 302 300 302 303 302 301 302 302 303 303 304 307 307 308 306 308 310 310 310 310 311 311 309 309 309 310 311 312 309 309 316 315 312 310 310 310 310 312 314 314 313
305 304 304 300 300 300 301 302 302 301 301 301 303 303 304 304 307 307 306 308 308 309 308 311 313 311 311 312 312 311 311 313 312 313 315 315 312 312 310 309 310 311 314 314 314
303 300 302 300 301 300 300 300 301 300 301 301 302 303 305 303 303 306 304 306 307 308 307 307 310 311 307 312 312 313 313 313 313 313 313 312 313 309 310 311 311 311 312 314 314
305 302 302 301 299 298 299 299 300 300 300 301 301 301 305 302 301 301 302 303 304 307 311 310 311 310 310 310 311 312 312 313 313 312 313 313 311 309 310 310 310 311 311 312 314

GFSSW_850_thetae_102.txt.gz
Theta_e
303 307 308 310 309 308 308 309 308 309 308 305 309 310 307 304 304 304 303 306 310 311 310 309 308 310 311 311 312 315 320 320 324 325 323 323 323 322 322 325 331 336 341 343 343
309 308 308 308 310 309 307 309 307 308 306 309 308 304 302 303 303 306 305 307 310 311 310 307 307 309 310 312 313 315 317 319 319 321 322 324 324 323 330 335 339 340 342 343 344
307 308 308 309 309 308 308 308 307 306 308 306 304 303 304 305 307 308 309 309 308 309 307 307 309 306 310 311 313 314 315 316 320 319 321 324 324 324 330 332 338 341 342 343 344
308 308 308 308 307 309 308 308 307 306 305 303 303 304 305 307 307 306 305 304 307 305 304 307 308 309 309 311 311 313 316 315 319 321 323 324 324 325 325 324 334 334 338 342 342
304 307 307 307 308 307 308 308 308 303 302 304 304 305 306 307 307 305 305 304 305 306 306 308 309 310 309 309 311 313 314 315 317 318 321 322 324 325 324 324 332 334 337 339 341
304 306 306 306 307 308 307 308 307 301 302 303 304 305 306 307 305 305 304 304 304 305 307 308 309 309 309 309 310 313 314 314 315 318 319 320 324 324 324 324 330 333 333 337 339
304 306 306 306 306 307 307 307 305 301 302 303 303 304 304 305 304 304 303 305 305 304 303 306 307 308 306 309 309 311 315 314 315 318 319 318 324 325 324 324 324 328 331 334 336
303 306 307 304 306 306 307 304 303 301 301 302 302 302 304 306 304 303 304 305 305 305 305 305 306 308 306 305 310 314 314 316 317 318 319 318 321 323 323 324 322 323 328 330 336
300 303 304 304 305 307 305 304 303 301 301 301 302 305 305 305 305 305 304 305 305 304 305 306 306 307 306 307 312 313 316 315 317 318 318 317 320 320 322 324 322 322 324 326 331
300 301 303 304 306 306 305 305 305 303 304 301 303 304 304 305 304 304 303 304 302 304 305 305 305 306 307 307 312 312 314 313 316 318 319 317 318 318 322 322 321 321 322 322 327
300 302 303 304 306 305 305 305 304 305 304 304 304 304 304 304 304 304 304 304 304 304 302 302 299 301 308 307 308 309 312 314 313 316 319 319 318 321 322 321 320 320 320 321 323
300 303 304 305 305 306 305 304 304 302 301 303 303 304 303 303 303 303 304 303 304 303 302 299 301 305 305 307 308 310 311 313 313 314 318 318 318 318 321 320 319 319 319 320 322
301 303 304 306 306 306 305 305 302 300 303 304 304 303 304 304 304 304 304 304 303 303 303 301 303 304 305 309 308 310 311 312 314 315 314 316 318 318 317 318 318 318 318 319 320
301 302 304 306 306 306 306 304 300 301 297 305 305 305 304 304 304 303 304 304 303 303 303 301 304 306 307 310 309 310 311 312 312 315 318 315 318 316 315 316 315 317 318 319 318
300 302 306 305 305 305 303 302 300 302 293 302 306 304 304 304 303 304 303 303 303 303 303 300 305 307 309 309 309 312 313 312 313 314 315 318 317 315 314 316 315 315 316 317 318
299 302 306 305 305 303 302 301 302 295 294 302 306 306 307 303 302 304 303 303 303 303 303 304 304 306 310 310 310 310 314 315 315 315 314 317 317 314 316 315 315 314 315 318 319
299 305 305 305 306 303 303 303 296 296 299 301 307 306 306 305 304 304 303 301 301 301 304 306 308 310 310 310 308 310 314 317 318 318 313 315 319 316 312 314 315 314 316 317 319
302 305 304 304 304 303 303 295 295 302 300 305 307 307 308 303 303 303 301 298 302 303 304 308 310 311 309 309 307 311 311 315 318 313 316 316 317 313 310 310 315 315 316 318 318
304 304 303 303 303 304 304 293 298 299 305 303 303 297 307 306 304 304 296 299 303 303 308 307 311 310 310 309 309 311 312 312 312 310 311 314 311 308 309 309 309 313 315 317 318
304 305 303 303 304 305 297 298 302 303 303 306 303 307 305 307 302 304 301 304 304 303 307 308 310 309 309 308 306 309 309 310 309 315 313 311 309 310 311 311 310 310 312 315 316
306 308 302 304 305 302 295 295 303 301 303 306 306 308 305 307 307 298 305 306 306 303 306 307 306 308 308 308 309 309 310 312 313 308 310 309 308 307 307 309 310 309 312 313 315
308 305 302 305 301 298 295 301 302 301 302 305 304 305 303 306 309 306 306 307 308 306 308 308 307 306 306 310 308 307 309 312 305 312 304 301 309 307 305 308 309 311 312 312 313
308 301 304 305 297 294 300 302 301 302 301 302 303 303 304 307 309 306 305 306 309 308 309 308 309 308 306 311 309 310 311 312 309 305 309 304 308 307 306 307 311 312 312 313 313
305 299 302 302 300 298 301 301 300 300 301 301 303 303 304 307 306 307 301 307 309 311 309 310 311 306 303 307 308 308 311 312 306 304 311 307 312 310 308 309 309 312 313 313 313
305 300 302 299 299 299 300 301 301 300 300 301 303 304 303 306 307 307 304 305 307 308 307 310 311 311 311 310 310 309 310 311 306 312 315 314 313 311 308 308 309 311 313 313 313
305 300 301 299 299 298 300 299 300 300 300 301 302 302 303 304 302 307 305 306 306 306 306 306 309 308 307 310 311 312 311 312 313 312 313 313 312 309 309 310 309 310 312 313 313
303 301 301 299 297 297 297 298 299 299 300 300 301 300 303 302 301 301 301 303 304 306 309 310 308 308 308 308 310 309 312 311 312 312 311 312 310 309 310 310 309 310 310 312 313

GFSSW_850_thetae_105.txt.gz
Theta_e
305 308 309 308 310 310 309 309 310 307 308 307 309 308 307 307 304 303 303 303 306 308 312 309 308 307 308 310 311 312 316 316 316 320 323 322 321 322 322 324 330 337 337 342 343
306 308 309 308 309 310 309 307 309 308 307 307 308 310 307 303 303 305 307 307 309 311 310 308 306 306 308 310 311 311 315 316 315 315 321 322 323 322 323 327 333 336 338 342 344
304 308 308 309 310 309 309 309 309 308 307 304 303 303 303 305 306 308 308 308 308 309 306 307 306 308 307 309 310 311 313 313 314 317 320 321 323 324 326 327 333 338 339 340 338
303 306 307 308 308 309 309 309 308 308 304 303 303 304 304 306 306 305 306 307 307 307 305 305 308 308 307 309 309 311 311 311 313 317 319 320 322 324 326 324 327 336 331 337 338
302 307 307 307 307 308 308 308 308 307 302 303 305 304 306 306 306 306 305 303 304 305 306 307 308 308 308 307 308 310 310 311 313 315 319 318 322 324 324 324 328 335 334 336 338
303 304 307 307 307 308 308 308 308 306 301 303 306 304 305 306 304 305 304 303 304 303 305 307 307 308 308 308 308 309 311 311 312 316 315 316 320 324 324 324 328 334 335 334 337
302 302 305 307 306 308 307 308 308 304 301 302 304 304 303 302 304 304 304 304 304 305 304 303 306 307 307 308 308 308 311 313 313 315 316 314 317 326 324 324 327 330 333 334 334
303 302 302 306 306 307 307 307 305 302 301 303 303 302 302 305 305 303 304 304 305 305 305 305 306 306 307 306 305 310 312 314 313 315 316 312 316 320 323 324 322 325 329 332 334
303 301 300 304 304 306 308 305 304 301 301 301 301 305 304 305 305 305 304 303 304 304 305 305 305 306 306 307 307 311 311 314 315 316 318 315 314 316 322 324 322 322 324 328 332
304 301 301 303 305 306 305 305 304 303 302 300 303 304 304 305 304 304 303 304 303 304 304 304 304 305 306 307 308 312 313 312 315 318 317 316 316 316 318 323 322 321 322 324 328
304 301 301 303 305 306 305 305 304 305 304 304 304 304 304 303 303 303 304 304 303 304 301 302 299 300 303 307 307 308 311 312 313 317 318 316 316 315 315 315 321 320 320 321 325
303 301 301 303 306 305 305 304 303 302 302 303 303 304 303 303 304 303 303 304 303 302 302 298 299 304 304 307 308 308 311 312 313 314 318 317 317 317 316 315 319 319 318 320 322
303 301 301 304 306 305 304 304 303 301 302 304 304 303 304 304 304 303 303 304 303 302 302 300 302 303 304 308 309 309 311 311 314 316 316 318 319 319 318 317 317 318 317 319 320
303 300 301 305 305 306 305 304 301 302 294 303 305 304 304 304 303 303 304 304 302 303 302 300 303 306 306 310 308 310 310 312 313 317 319 316 320 318 317 318 318 317 317 320 320
303 300 302 305 306 305 302 302 300 302 294 300 306 304 304 304 302 303 303 302 303 302 301 298 304 306 309 309 308 312 311 311 312 316 317 317 316 315 316 318 317 316 317 320 320
302 299 304 305 305 304 302 300 301 294 292 301 305 306 307 303 303 303 303 303 302 303 303 302 304 305 309 309 309 308 313 313 314 315 313 316 315 314 316 315 314 315 317 319 320
301 300 305 305 305 303 301 302 295 292 298 300 305 306 306 305 304 304 302 299 301 300 300 306 307 306 310 310 307 307 313 316 316 315 313 316 317 313 313 313 313 313 314 318 318
299 304 306 305 305 303 303 294 291 298 297 303 306 307 306 304 304 303 300 299 303 303 304 308 310 311 309 308 309 310 312 306 315 314 316 316 316 314 311 310 312 314 314 314 315
302 306 305 304 304 303 302 290 295 297 303 302 302 296 305 306 304 303 296 299 301 303 310 307 308 310 308 308 308 310 312 311 308 308 312 314 311 308 308 309 309 313 315 315 316
303 304 304 303 303 304 295 298 300 303 302 304 300 306 303 307 305 303 300 303 303 303 305 306 307 308 309 307 306 310 309 314 304 307 315 313 309 309 308 308 309 310 312 315 316
304 304 303 303 304 303 293 295 301 301 304 305 305 307 304 307 306 304 303 305 306 304 305 306 303 305 306 307 307 308 307 312 312 306 310 311 309 307 307 306 308 307 311 313 314
307 305 303 304 300 295 295 300 302 301 303 304 303 304 304 306 308 305 303 305 306 307 308 307 303 301 305 307 308 307 308 310 308 311 305 301 310 305 305 307 309 310 311 312 313
305 303 303 304 296 293 299 301 300 301 301 302 302 303 304 307 306 305 303 305 308 308 308 308 307 301 303 308 308 309 310 311 307 303 311 302 309 306 306 307 310 311 311 312 312
302 300 303 304 298 297 300 300 300 300 300 301 302 302 304 306 305 305 301 307 309 309 310 310 311 304 302 306 307 308 310 311 301 302 311 305 310 308 307 308 308 311 312 312 312
304 300 301 298 298 298 299 299 300 300 300 301 303 303 300 304 306 305 302 306 307 307 307 310 311 312 311 310 309 309 310 311 303 309 305 312 312 309 307 306 308 309 312 312 313
304 301 299 297 298 298 300 299 300 299 300 300 302 304 303 304 301 306 304 305 302 306 307 307 309 307 306 309 310 311 310 310 312 311 312 311 312 309 309 309 309 310 312 312 313
303 301 301 298 296 297 297 297 299 298 299 300 300 301 302 302 301 301 301 302 303 305 308 308 306 304 306 305 310 308 308 310 311 311 311 313 311 309 309 308 308 309 309 310 311

GFSSW_850_thetae_108.txt.gz
Theta_e
306 305 307 310 309 309 310 310 307 310 308 309 308 309 309 309 305 303 303 303 304 306 310 310 308 307 306 308 310 311 313 314 315 315 315 319 321 322 322 321 322 334 337 338 344
307 306 308 309 309 309 309 309 309 309 309 308 306 305 308 303 303 303 306 305 309 310 311 309 307 305 306 309 310 310 311 312 312 313 313 316 320 321 323 322 323 334 336 341 344
309 307 307 308 309 309 308 309 308 309 308 307 305 304 304 304 305 307 307 308 310 309 308 306 306 306 306 308 310 309 310 310 311 313 315 315 320 321 322 325 324 334 336 343 345
308 306 306 308 308 309 309 308 309 309 308 303 306 303 304 305 304 305 306 307 307 304 305 306 306 307 306 307 309 309 309 309 311 312 313 316 319 320 320 322 323 327 334 342 345
304 307 307 308 307 308 307 308 308 308 306 302 306 304 305 306 305 306 305 303 303 304 305 306 307 308 306 306 307 309 308 309 310 310 311 315 318 319 318 319 323 324 332 334 343
304 307 306 305 307 307 308 308 308 307 306 302 304 304 304 305 305 305 304 303 304 304 304 304 306 306 307 307 308 308 309 309 310 311 312 315 315 316 317 318 321 325 330 331 334
305 304 307 306 306 306 308 308 307 307 304 301 303 304 303 302 304 304 304 304 304 305 304 304 304 306 307 307 305 308 308 309 310 310 311 315 316 315 315 317 322 326 329 330 334
306 305 308 305 304 304 306 308 307 304 301 301 304 302 301 304 305 303 303 304 304 304 304 304 305 306 306 306 305 307 308 311 311 310 309 313 316 313 315 318 320 325 331 331 333
308 305 303 306 304 304 306 307 305 303 300 302 302 304 303 304 304 305 304 303 303 303 304 304 304 305 306 306 304 307 311 311 312 310 311 314 316 313 313 314 320 320 325 332 333
311 305 304 304 303 304 305 305 304 303 301 300 303 303 303 304 304 304 304 303 304 303 303 303 302 303 303 306 297 306 310 311 313 311 312 314 315 315 312 311 315 320 320 323 331
316 307 304 301 304 304 305 305 304 304 304 303 304 304 303 303 303 303 303 304 303 304 302 301 299 297 300 304 307 307 307 309 312 315 315 316 315 314 314 310 313 318 319 319 323
312 306 305 300 305 305 305 304 303 302 302 302 303 303 303 303 304 303 303 303 303 301 301 298 299 301 304 304 307 308 308 312 312 313 316 316 316 316 312 312 313 317 317 318 320
315 307 303 301 306 305 305 304 303 301 302 304 303 303 304 304 304 303 303 303 302 302 301 300 301 302 304 305 308 309 310 312 314 317 317 317 319 318 315 315 316 315 316 317 320
311 308 301 302 304 305 305 304 302 302 293 302 304 304 304 304 303 303 303 303 302 302 302 300 301 304 306 306 308 308 309 313 316 316 320 314 320 319 317 317 317 317 316 317 319
310 306 302 304 306 305 303 303 300 304 296 298 305 304 305 303 302 303 303 302 302 302 301 297 303 305 308 309 308 311 311 312 313 313 318 316 315 317 317 318 317 315 315 317 320
308 306 304 306 305 304 302 300 302 295 292 302 305 305 305 304 303 303 303 303 302 303 302 301 303 304 306 309 307 307 312 313 313 313 313 316 314 315 318 317 316 315 316 318 319
308 305 305 305 305 303 301 302 296 294 297 300 305 305 304 304 303 302 302 300 303 301 303 306 306 305 306 309 307 306 307 311 310 310 315 313 315 313 315 314 315 315 315 317 319
307 303 305 306 305 302 301 295 296 297 296 302 305 305 303 305 301 302 300 299 302 304 302 307 309 310 309 309 309 309 307 307 314 316 316 315 316 313 310 312 314 315 315 317 319
307 302 306 305 303 302 302 292 295 296 301 302 301 295 306 305 304 300 295 299 301 303 310 308 309 309 308 307 308 311 312 310 309 308 308 312 310 308 307 307 308 311 313 315 318
305 305 305 304 303 303 296 298 299 301 302 303 298 305 303 306 304 302 298 303 305 302 304 306 300 306 309 307 307 310 310 310 307 311 316 313 309 309 308 307 306 309 312 313 315
303 304 304 303 303 303 294 295 300 301 304 305 304 304 304 307 304 298 300 304 305 305 303 305 302 304 304 308 308 310 310 311 309 307 312 312 310 307 306 305 307 307 309 311 313
304 303 303 303 300 294 294 299 301 301 304 303 303 303 305 306 306 297 302 304 305 306 308 306 302 304 308 307 308 307 308 310 306 311 304 304 311 305 304 307 308 309 310 310 311
305 302 303 303 298 294 298 300 300 301 301 302 302 302 303 306 304 304 299 304 308 307 309 308 304 296 301 304 307 308 309 310 305 304 311 308 311 306 305 306 309 310 311 312 312
302 303 302 303 301 297 299 299 300 300 300 302 302 302 304 306 304 305 300 306 308 308 310 309 310 303 304 308 306 306 309 308 300 304 309 306 310 307 305 305 306 310 312 312 312
301 301 303 303 297 297 298 298 299 300 299 301 302 302 300 303 305 305 302 305 306 305 307 308 308 310 311 310 309 309 309 310 302 307 304 310 310 308 307 306 306 309 312 312 312
302 301 299 296 297 297 300 298 299 299 299 300 302 303 301 302 300 303 303 305 301 306 307 307 307 306 306 306 310 309 308 310 310 311 311 310 311 308 308 308 308 308 309 310 312
302 301 301 297 296 297 296 297 299 298 299 300 301 301 302 302 301 301 301 302 302 305 307 308 304 303 305 304 309 306 306 310 311 310 310 312 310 308 307 307 307 308 308 308 310

GFSSW_850_thetae_111.txt.gz
Theta_e
305 303 309 310 309 309 311 310 310 310 310 309 308 308 308 308 305 303 302 303 303 304 304 310 309 308 307 307 310 311 312 312 313 315 315 314 314 318 319 320 321 322 325 333 331
305 304 308 310 309 309 309 309 310 309 310 309 307 306 305 303 303 303 305 305 307 310 311 309 309 306 305 308 309 310 311 310 310 311 313 313 314 317 318 321 323 323 323 329 340
306 305 306 306 308 309 309 310 309 310 309 308 304 305 307 303 304 307 307 309 310 309 308 307 305 305 306 306 309 309 310 308 309 309 312 314 315 315 320 322 322 323 323 331 336
315 305 304 306 308 307 308 309 309 309 308 307 303 306 304 304 303 305 308 306 306 305 304 306 305 306 305 306 307 309 309 309 307 308 311 313 314 316 318 319 318 322 320 323 341
319 309 305 306 307 308 308 308 309 308 308 305 303 305 303 305 304 306 305 303 302 303 304 305 306 307 307 305 306 307 308 308 308 309 309 311 312 313 317 318 318 316 317 321 323
321 318 306 306 304 307 307 308 308 308 307 305 302 305 303 303 304 305 304 303 304 304 304 304 305 306 306 306 307 307 307 307 308 309 310 310 311 313 317 318 318 317 318 320 322
319 317 308 308 307 307 307 308 308 307 306 302 303 303 303 302 303 304 304 303 304 304 304 304 304 304 305 306 306 306 307 306 307 308 309 311 312 312 314 315 317 317 318 319 323
318 318 314 308 306 306 307 307 307 307 303 301 305 303 300 303 305 304 303 303 303 304 304 304 304 305 305 305 305 305 305 307 308 308 310 311 312 314 315 315 316 316 315 319 324
317 315 311 306 307 305 306 307 307 304 301 302 303 302 303 304 304 304 304 304 303 303 303 304 304 305 305 304 303 304 305 307 307 310 310 311 311 314 313 316 316 314 311 319 325
315 315 310 311 306 304 307 306 304 303 301 301 302 303 303 304 304 304 304 303 303 303 303 303 302 303 302 303 302 301 306 307 306 311 310 311 311 314 315 316 314 310 309 315 322
316 316 316 306 304 305 306 304 304 303 303 302 303 303 303 303 303 303 303 303 303 303 302 300 302 302 301 301 303 304 306 306 306 307 311 311 310 313 314 312 309 309 311 313 318
316 315 314 311 303 306 305 304 303 302 302 303 303 303 303 303 304 303 303 303 302 302 301 299 301 301 301 303 304 304 308 308 308 309 311 312 312 314 312 310 310 311 313 314 316
314 315 313 308 303 306 305 304 303 301 302 303 303 303 303 304 304 303 303 303 302 302 301 301 301 301 303 305 306 305 308 309 312 313 313 314 316 317 313 312 312 313 314 314 316
313 312 310 306 304 305 305 304 303 302 295 302 304 304 304 304 302 303 303 303 302 302 301 300 300 303 306 307 306 309 309 311 314 316 318 314 320 318 316 314 314 315 313 315 317
311 310 310 307 305 305 304 304 301 303 297 299 304 304 304 303 302 303 303 302 302 301 301 299 301 304 304 309 308 311 306 312 315 317 316 317 317 318 316 316 316 316 315 316 317
311 309 309 305 304 305 303 301 302 298 296 302 304 305 304 303 302 303 303 302 302 302 302 301 301 304 305 307 306 307 311 312 313 314 317 316 315 317 318 316 316 315 315 317 318
310 309 308 303 305 304 301 301 299 298 297 301 304 304 302 302 302 302 302 299 302 304 300 305 306 305 305 308 307 308 306 310 314 314 317 315 316 314 314 315 316 315 315 317 318
309 306 307 303 304 303 301 297 298 297 296 301 305 304 299 302 300 301 300 300 301 303 298 302 306 310 308 309 309 309 307 311 313 315 317 314 316 311 307 307 313 314 314 315 318
308 305 303 303 304 301 302 296 297 296 301 303 300 293 305 304 302 299 295 299 301 302 307 307 304 308 307 306 306 311 310 311 310 308 314 312 309 308 308 307 307 310 315 315 316
308 303 304 305 303 302 299 301 299 299 301 302 298 304 301 304 301 295 298 303 305 302 303 306 304 304 307 306 308 309 310 311 309 312 317 311 310 311 308 308 307 310 312 316 318
307 304 305 304 302 302 297 295 300 301 304 304 304 304 303 304 301 293 300 303 305 306 302 305 301 305 305 309 310 309 311 310 309 307 314 314 314 307 306 306 308 308 308 315 316
304 303 304 303 302 296 294 298 300 300 304 302 302 302 303 305 304 295 302 304 305 306 308 306 302 305 308 306 308 307 308 309 309 312 304 310 313 305 305 307 308 308 309 310 314
303 302 303 303 300 294 297 299 299 300 301 302 302 302 303 304 302 303 298 303 306 308 309 309 305 301 304 306 306 307 308 309 304 306 309 310 312 306 304 306 308 309 310 311 312
303 303 302 303 301 297 298 299 299 300 299 301 301 302 304 305 302 304 298 305 307 306 309 309 310 304 311 310 307 308 309 307 301 310 310 308 309 307 306 306 306 309 311 311 311
302 303 303 302 301 296 298 298 299 300 299 302 302 302 300 303 304 304 301 303 305 306 307 307 308 310 309 310 309 308 309 309 307 307 308 310 309 307 306 305 305 307 309 311 312
301 299 301 296 299 296 298 297 299 298 299 301 302 301 301 301 299 302 303 301 300 304 307 305 305 305 305 308 307 308 308 309 310 310 309 309 310 307 306 308 307 307 307 309 310
303 301 300 297 295 296 296 296 298 298 299 299 300 300 302 301 301 301 302 302 302 304 305 305 304 303 305 304 308 306 306 309 310 308 309 311 309 306 306 306 306 307 307 307 308

GFSSW_850_thetae_114.txt.gz
Theta_e
318 308 306 307 307 305 309 310 310 311 310 310 309 306 305 304 304 304 304 304 304 303 305 310 309 308 308 309 310 310 313 312 311 311 312 313 314 314 315 318 322 323 325 325 326
322 315 308 308 307 305 309 309 309 310 310 309 308 306 307 303 303 303 303 305 304 309 311 311 309 307 308 309 309 310 311 310 310 310 311 311 314 315 316 315 318 322 322 324 328
321 320 312 309 309 308 308 310 310 310 310 309 308 306 303 303 304 307 308 310 310 310 310 308 306 306 307 307 309 309 311 309 309 308 309 310 312 313 315 316 317 319 322 325 325
321 321 315 308 306 307 308 308 308 310 309 308 306 306 303 303 305 307 309 307 308 307 305 307 307 306 307 308 307 308 307 308 308 308 308 310 310 311 314 315 316 317 320 323 323
319 320 315 310 309 307 306 308 308 309 309 308 304 305 304 306 305 305 306 304 302 302 305 306 306 306 307 306 306 307 307 306 306 308 308 308 309 311 312 314 316 317 318 321 321
316 319 317 315 307 305 307 307 308 309 308 308 304 304 304 304 304 305 305 304 304 304 304 305 305 305 306 306 307 306 306 307 307 308 308 309 310 309 310 313 317 318 318 318 319
316 319 317 314 309 307 305 307 308 308 307 306 303 304 303 304 303 304 304 304 303 304 304 305 305 305 304 305 304 306 306 306 306 307 309 309 311 311 308 311 314 317 318 317 318
313 316 316 314 308 305 306 306 307 307 306 302 304 305 303 303 303 305 304 303 303 304 304 305 304 305 305 305 305 305 305 307 305 308 308 309 312 310 309 310 312 315 318 317 318
310 313 316 314 310 305 304 307 307 307 304 302 304 302 304 304 304 304 304 304 304 303 303 305 304 304 305 305 305 304 306 305 305 307 309 310 311 311 312 311 311 315 317 316 317
307 312 316 315 312 311 303 307 305 304 302 303 302 303 303 304 303 303 304 303 304 304 304 304 304 306 306 305 305 304 305 306 306 307 310 311 311 312 314 315 316 317 317 315 315
306 311 315 313 309 303 303 305 304 303 303 303 303 303 303 303 303 303 303 303 304 304 305 304 305 305 304 304 305 304 305 306 305 306 308 311 312 312 315 316 316 317 315 314 315
307 310 315 313 307 303 306 305 303 303 304 303 303 303 303 304 305 303 303 303 303 304 304 304 305 303 303 303 304 305 305 306 306 308 309 311 313 312 313 315 315 315 314 314 315
309 314 312 308 304 303 305 305 304 302 304 303 302 303 304 304 305 304 303 303 304 304 304 304 303 303 303 304 306 306 307 307 308 310 310 313 313 313 314 313 313 314 314 314 314
311 311 310 306 304 304 305 305 304 302 307 305 305 304 304 304 304 303 303 303 304 303 303 304 303 303 304 306 306 308 308 310 312 311 316 313 316 314 313 314 315 315 316 316 316
308 311 309 305 304 304 304 304 303 303 308 303 306 304 304 304 303 304 303 303 304 303 303 305 302 304 305 305 307 311 307 309 313 313 316 315 319 316 315 317 316 316 317 317 316
308 310 309 306 303 305 303 302 302 307 308 305 305 306 306 304 304 303 303 302 303 304 304 305 304 304 305 306 306 307 310 312 312 314 320 317 318 320 319 317 318 316 316 316 318
306 308 309 306 303 304 302 301 309 309 300 306 306 305 305 305 304 304 305 304 306 307 309 307 308 306 305 307 309 308 313 316 318 320 320 318 315 313 312 315 316 317 315 317 317
306 308 307 303 304 303 301 305 307 301 302 304 306 305 307 305 304 304 305 307 304 304 306 309 311 309 308 309 310 309 312 316 317 320 320 316 317 312 310 309 311 316 314 315 316
308 306 304 304 304 302 302 308 306 303 303 306 304 306 307 306 305 304 304 307 305 304 307 309 310 307 307 305 307 311 314 312 315 312 317 316 313 313 311 312 311 315 313 315 317
307 306 304 305 303 301 305 306 302 301 303 304 308 306 306 306 306 305 305 307 308 306 304 308 310 306 308 307 309 311 310 316 315 318 320 315 317 314 312 311 311 315 313 315 316
303 304 304 303 301 302 307 305 303 302 304 306 306 307 306 307 305 304 306 306 307 308 306 307 307 311 309 311 312 312 313 313 312 312 318 318 317 309 311 311 311 313 314 314 315
303 305 303 302 303 301 305 300 301 302 304 305 305 305 306 306 305 305 306 306 306 307 309 308 308 312 311 308 309 310 312 312 317 315 312 316 315 309 310 311 311 310 312 313 314
301 301 302 302 304 303 300 301 301 302 304 304 305 305 305 306 306 306 304 306 306 309 310 310 311 312 311 309 310 311 312 311 309 313 313 317 315 310 311 312 312 311 312 313 314
302 303 301 302 300 301 302 302 302 300 302 302 304 304 306 306 306 306 307 306 307 306 309 310 310 311 313 312 311 313 313 311 310 317 314 314 313 312 310 311 309 310 311 311 312
302 304 303 303 302 301 300 301 302 302 301 303 304 305 306 306 306 306 305 306 306 307 309 310 312 311 311 311 311 312 313 312 312 311 316 313 313 311 310 310 309 308 310 310 309
301 302 302 300 303 303 300 301 302 300 302 303 305 305 304 306 305 306 305 306 307 308 309 308 312 310 311 309 311 312 311 313 313 312 313 313 312 310 310 310 310 309 308 308 308
302 301 301 300 302 303 301 301 301 301 300 301 304 305 305 304 303 303 303 303 305 307 309 309 310 310 312 308 310 313 311 312 312 311 313 315 311 311 311 309 308 308 308 307 307

GFSSW_850_thetae_117.txt.gz
Theta_e
322 322 320 314 306 307 309 309 311 310 311 310 310 309 306 304 304 307 309 308 308 306 305 310 310 310 310 310 310 311 314 314 313 312 313 312 313 313 314 314 315 318 320 323 325
321 320 320 318 308 306 308 310 309 310 310 311 310 309 305 304 307 307 307 304 304 307 311 311 311 310 311 311 310 311 312 312 311 312 311 311 311 311 313 315 314 315 318 322 324
319 319 320 318 315 307 308 309 310 310 310 309 309 307 306 303 307 308 307 310 310 310 312 311 310 308 309 310 310 311 312 311 311 310 310 310 310 311 313 315 315 315 315 319 323
314 317 319 318 317 309 309 308 308 308 310 309 308 305 305 306 308 309 309 309 309 310 309 309 308 308 308 309 309 310 309 309 309 309 309 310 309 310 310 312 312 314 316 316 319
312 314 319 318 318 314 308 307 308 308 309 309 308 304 305 307 306 307 306 305 305 306 306 307 307 307 308 308 307 308 308 307 307 307 307 307 308 309 309 310 311 312 315 317 318
312 314 316 317 317 313 306 307 307 309 309 308 307 303 306 306 306 306 306 305 305 305 305 305 306 306 306 306 307 307 307 307 306 307 307 308 308 308 309 309 310 311 313 315 318
310 312 316 318 315 314 307 307 306 308 308 307 306 305 306 306 305 305 305 305 304 305 305 305 305 305 305 305 305 305 306 306 306 306 306 306 308 309 308 309 309 310 312 314 318
306 311 313 316 314 310 305 302 306 308 307 306 303 306 305 302 304 303 305 305 305 305 305 305 305 305 305 306 306 306 306 307 306 306 305 306 309 310 309 309 309 309 313 315 317
305 307 311 314 311 310 305 304 305 308 307 302 305 305 305 302 305 306 306 305 305 304 304 304 305 304 304 307 306 305 306 304 304 305 306 307 311 310 309 310 310 310 310 313 316
304 306 309 311 312 309 306 306 307 306 304 305 303 304 304 305 305 305 305 305 305 304 304 304 304 305 305 307 307 305 305 305 304 305 307 309 310 310 310 311 311 310 311 313 315
303 306 307 312 313 310 304 306 305 305 305 305 305 304 304 305 304 304 304 305 305 304 305 305 306 306 306 305 305 305 305 305 305 305 305 306 308 311 312 313 313 313 314 315 318
305 306 307 312 310 307 306 306 306 305 305 304 304 304 304 305 306 305 304 304 304 305 305 305 306 305 305 304 304 304 304 304 305 306 306 308 309 310 312 314 315 315 315 317 317
305 311 309 309 307 305 306 306 304 302 306 303 304 304 305 305 307 306 304 304 305 305 305 305 305 304 304 304 304 305 305 306 306 307 309 311 312 310 312 313 314 315 316 317 317
304 310 308 307 306 306 307 305 304 302 309 306 305 306 306 306 306 305 304 304 305 306 305 305 305 304 304 304 305 308 307 308 308 309 312 311 316 314 312 313 315 314 315 316 316
301 307 308 308 307 306 306 305 303 302 311 307 306 306 306 306 305 305 304 304 305 306 304 307 305 305 306 307 308 308 308 310 311 312 312 314 315 316 314 315 315 315 317 317 318
301 306 307 307 304 305 304 304 302 310 313 307 307 307 307 305 305 305 305 304 305 305 306 306 305 306 307 307 308 308 310 311 310 313 316 316 315 317 316 316 316 317 317 318 319
303 306 308 307 306 304 302 302 311 313 304 308 307 307 306 306 306 306 307 307 307 308 312 309 309 308 306 309 310 310 313 319 319 317 319 317 317 316 312 312 316 316 315 317 317
304 305 307 305 303 303 302 306 312 306 305 306 307 307 307 307 307 306 308 308 307 306 306 310 313 310 309 310 310 309 313 317 319 321 319 315 318 316 312 313 314 313 314 317 315
305 306 307 304 304 302 303 311 309 308 305 307 307 307 307 307 307 306 308 309 307 307 309 310 312 309 308 307 308 312 316 313 315 316 318 318 316 314 313 316 313 312 315 315 313
305 305 305 304 303 302 305 309 304 304 306 307 311 308 309 307 308 308 308 308 309 308 307 308 310 309 309 309 310 312 312 317 318 321 321 319 316 313 314 315 313 313 315 315 314
303 304 305 304 302 303 307 307 305 303 305 307 308 309 308 308 307 308 309 308 309 308 309 307 310 314 312 312 313 314 314 313 314 313 320 319 316 313 314 312 315 313 314 314 313
303 304 304 302 304 304 308 303 303 304 306 306 307 307 308 307 307 308 308 308 308 308 309 309 310 314 312 310 310 311 314 313 320 317 317 315 315 313 314 313 313 313 314 314 313
301 301 302 303 306 307 303 303 303 304 306 306 307 307 306 307 308 308 308 307 308 309 311 311 312 316 316 312 312 313 313 312 312 317 317 316 317 312 311 312 312 313 312 313 313
302 304 301 302 303 305 304 304 303 302 305 304 306 306 307 307 307 308 308 307 307 308 309 310 310 313 315 313 312 315 313 313 315 318 316 316 314 313 312 311 312 312 312 311 311
304 306 304 305 304 303 304 304 304 304 304 304 306 307 308 308 307 308 307 308 308 308 310 311 311 311 312 312 313 313 314 314 315 315 316 314 314 312 312 311 310 310 310 309 310
304 305 304 303 303 304 302 303 303 303 304 305 306 307 307 308 307 308 307 308 309 309 310 311 313 311 311 312 313 313 313 313 314 314 314 314 314 312 311 310 310 309 309 309 309
302 303 304 303 305 305 305 303 303 303 303 303 305 307 307 306 305 306 306 307 307 309 310 311 312 313 313 311 311 313 312 313 313 313 314 315 313 312 311 310 309 309 309 308 308